<?xml version="1.0" encoding="UTF-8" standalone="no" ?>
<gpx xmlns="http://www.topografix.com/GPX/1/1" xmlns:xsi="http://www.w3.org/2001/XMLSchema-instance" xsi:schemaLocation="http://www.topografix.com/GPX/1/1 http://www.topografix.com/GPX/1/1/gpx.xsd" version="1.1" creator="VisuGPX - https://www.visugpx.com">
  <metadata>
    <name>SAULT BREAZ 18.11.22</name>
    <desc><![CDATA[rando journée avec beaux points de vue, cascades, carrière de tuf, demoiselles de Villebois ...]]></desc>
  </metadata>
  <trk>
    <name><![CDATA[SAULT BREAZ 18.11.22]]></name>
    <extensions>
      <line xmlns="http://www.topografix.com/GPX/gpx_style/0/2">
        <color>0000FF</color>
        <width>4</width>
      </line>
    </extensions>
    <trkseg>
      <trkpt lat="45.85781" lon="5.405">
        <ele>236.62</ele>
        <time>2022-11-18T06:52:41Z</time>
      </trkpt>
      <trkpt lat="45.85781" lon="5.40498">
        <ele>236.62</ele>
        <time>2022-11-18T06:52:43Z</time>
      </trkpt>
      <trkpt lat="45.85779" lon="5.40504">
        <ele>236.62</ele>
        <time>2022-11-18T06:53:07Z</time>
      </trkpt>
      <trkpt lat="45.85782" lon="5.40504">
        <ele>236.62</ele>
        <time>2022-11-18T06:53:55Z</time>
      </trkpt>
      <trkpt lat="45.85781" lon="5.40504">
        <ele>204.9</ele>
        <time>2022-11-18T06:54:48Z</time>
      </trkpt>
      <trkpt lat="45.85782" lon="5.40503">
        <ele>204.9</ele>
        <time>2022-11-18T06:55:57Z</time>
      </trkpt>
      <trkpt lat="45.85783" lon="5.40503">
        <ele>204.9</ele>
        <time>2022-11-18T06:56:45Z</time>
      </trkpt>
      <trkpt lat="45.85782" lon="5.40505">
        <ele>204.9</ele>
        <time>2022-11-18T06:57:10Z</time>
      </trkpt>
      <trkpt lat="45.85783" lon="5.40504">
        <ele>204.9</ele>
        <time>2022-11-18T06:57:30Z</time>
      </trkpt>
      <trkpt lat="45.85782" lon="5.40505">
        <ele>204.9</ele>
        <time>2022-11-18T06:58:08Z</time>
      </trkpt>
      <trkpt lat="45.85781" lon="5.40504">
        <ele>204.9</ele>
        <time>2022-11-18T06:58:47Z</time>
      </trkpt>
      <trkpt lat="45.85782" lon="5.40505">
        <ele>204.9</ele>
        <time>2022-11-18T06:59:19Z</time>
      </trkpt>
      <trkpt lat="45.85781" lon="5.40506">
        <ele>204.9</ele>
        <time>2022-11-18T06:59:50Z</time>
      </trkpt>
      <trkpt lat="45.85782" lon="5.40506">
        <ele>204.9</ele>
        <time>2022-11-18T07:00:17Z</time>
      </trkpt>
      <trkpt lat="45.85784" lon="5.40507">
        <ele>204.9</ele>
        <time>2022-11-18T07:00:34Z</time>
      </trkpt>
      <trkpt lat="45.85784" lon="5.40504">
        <ele>204.9</ele>
        <time>2022-11-18T07:01:03Z</time>
      </trkpt>
      <trkpt lat="45.85783" lon="5.40502">
        <ele>204.9</ele>
        <time>2022-11-18T07:01:33Z</time>
      </trkpt>
      <trkpt lat="45.85782" lon="5.40502">
        <ele>204.9</ele>
        <time>2022-11-18T07:01:56Z</time>
      </trkpt>
      <trkpt lat="45.85781" lon="5.40504">
        <ele>204.9</ele>
        <time>2022-11-18T07:02:30Z</time>
      </trkpt>
      <trkpt lat="45.85782" lon="5.40505">
        <ele>204.9</ele>
        <time>2022-11-18T07:03:31Z</time>
      </trkpt>
      <trkpt lat="45.8578" lon="5.40511">
        <ele>204.9</ele>
        <time>2022-11-18T07:03:50Z</time>
      </trkpt>
      <trkpt lat="45.85776" lon="5.40515">
        <ele>204.9</ele>
        <time>2022-11-18T07:03:55Z</time>
      </trkpt>
      <trkpt lat="45.85775" lon="5.40527">
        <ele>204.9</ele>
        <time>2022-11-18T07:04:08Z</time>
      </trkpt>
      <trkpt lat="45.85779" lon="5.40529">
        <ele>204.9</ele>
        <time>2022-11-18T07:04:19Z</time>
      </trkpt>
      <trkpt lat="45.85773" lon="5.40537">
        <ele>204.9</ele>
        <time>2022-11-18T07:04:26Z</time>
      </trkpt>
      <trkpt lat="45.85767" lon="5.4055">
        <ele>204.42</ele>
        <time>2022-11-18T07:04:39Z</time>
      </trkpt>
      <trkpt lat="45.85766" lon="5.40551">
        <ele>204.42</ele>
        <time>2022-11-18T07:04:40Z</time>
      </trkpt>
      <trkpt lat="45.8576" lon="5.40572">
        <ele>204.42</ele>
        <time>2022-11-18T07:04:55Z</time>
      </trkpt>
      <trkpt lat="45.8575" lon="5.40598">
        <ele>204.42</ele>
        <time>2022-11-18T07:05:12Z</time>
      </trkpt>
      <trkpt lat="45.85743" lon="5.40625">
        <ele>204.9</ele>
        <time>2022-11-18T07:05:30Z</time>
      </trkpt>
      <trkpt lat="45.85732" lon="5.40653">
        <ele>205.38</ele>
        <time>2022-11-18T07:05:49Z</time>
      </trkpt>
      <trkpt lat="45.85722" lon="5.40676">
        <ele>205.38</ele>
        <time>2022-11-18T07:06:05Z</time>
      </trkpt>
      <trkpt lat="45.85717" lon="5.40698">
        <ele>205.86</ele>
        <time>2022-11-18T07:06:19Z</time>
      </trkpt>
      <trkpt lat="45.85709" lon="5.4072">
        <ele>205.86</ele>
        <time>2022-11-18T07:06:35Z</time>
      </trkpt>
      <trkpt lat="45.85704" lon="5.40733">
        <ele>205.86</ele>
        <time>2022-11-18T07:06:43Z</time>
      </trkpt>
      <trkpt lat="45.85698" lon="5.40756">
        <ele>206.34</ele>
        <time>2022-11-18T07:06:57Z</time>
      </trkpt>
      <trkpt lat="45.85691" lon="5.40779">
        <ele>206.82</ele>
        <time>2022-11-18T07:07:12Z</time>
      </trkpt>
      <trkpt lat="45.8569" lon="5.40782">
        <ele>206.82</ele>
        <time>2022-11-18T07:07:14Z</time>
      </trkpt>
      <trkpt lat="45.85689" lon="5.40784">
        <ele>206.82</ele>
        <time>2022-11-18T07:07:15Z</time>
      </trkpt>
      <trkpt lat="45.85682" lon="5.40809">
        <ele>206.82</ele>
        <time>2022-11-18T07:07:32Z</time>
      </trkpt>
      <trkpt lat="45.85681" lon="5.40813">
        <ele>206.82</ele>
        <time>2022-11-18T07:07:35Z</time>
      </trkpt>
      <trkpt lat="45.8568" lon="5.40814">
        <ele>206.82</ele>
        <time>2022-11-18T07:07:36Z</time>
      </trkpt>
      <trkpt lat="45.85679" lon="5.40815">
        <ele>206.82</ele>
        <time>2022-11-18T07:07:37Z</time>
      </trkpt>
      <trkpt lat="45.85678" lon="5.40817">
        <ele>206.82</ele>
        <time>2022-11-18T07:07:38Z</time>
      </trkpt>
      <trkpt lat="45.85678" lon="5.40819">
        <ele>206.82</ele>
        <time>2022-11-18T07:07:39Z</time>
      </trkpt>
      <trkpt lat="45.85677" lon="5.40821">
        <ele>206.82</ele>
        <time>2022-11-18T07:07:40Z</time>
      </trkpt>
      <trkpt lat="45.85676" lon="5.40823">
        <ele>206.82</ele>
        <time>2022-11-18T07:07:41Z</time>
      </trkpt>
      <trkpt lat="45.85676" lon="5.40824">
        <ele>206.82</ele>
        <time>2022-11-18T07:07:42Z</time>
      </trkpt>
      <trkpt lat="45.85667" lon="5.40848">
        <ele>207.3</ele>
        <time>2022-11-18T07:07:57Z</time>
      </trkpt>
      <trkpt lat="45.85656" lon="5.40874">
        <ele>207.3</ele>
        <time>2022-11-18T07:08:15Z</time>
      </trkpt>
      <trkpt lat="45.85655" lon="5.40876">
        <ele>207.3</ele>
        <time>2022-11-18T07:08:16Z</time>
      </trkpt>
      <trkpt lat="45.85646" lon="5.409">
        <ele>207.78</ele>
        <time>2022-11-18T07:08:31Z</time>
      </trkpt>
      <trkpt lat="45.85641" lon="5.40912">
        <ele>207.78</ele>
        <time>2022-11-18T07:08:40Z</time>
      </trkpt>
      <trkpt lat="45.85641" lon="5.40914">
        <ele>207.78</ele>
        <time>2022-11-18T07:08:41Z</time>
      </trkpt>
      <trkpt lat="45.8564" lon="5.40916">
        <ele>207.78</ele>
        <time>2022-11-18T07:08:42Z</time>
      </trkpt>
      <trkpt lat="45.85639" lon="5.40917">
        <ele>207.78</ele>
        <time>2022-11-18T07:08:43Z</time>
      </trkpt>
      <trkpt lat="45.85629" lon="5.40936">
        <ele>207.78</ele>
        <time>2022-11-18T07:08:56Z</time>
      </trkpt>
      <trkpt lat="45.85618" lon="5.4096">
        <ele>207.78</ele>
        <time>2022-11-18T07:09:13Z</time>
      </trkpt>
      <trkpt lat="45.85607" lon="5.40979">
        <ele>208.26</ele>
        <time>2022-11-18T07:09:26Z</time>
      </trkpt>
      <trkpt lat="45.85601" lon="5.40988">
        <ele>208.26</ele>
        <time>2022-11-18T07:09:33Z</time>
      </trkpt>
      <trkpt lat="45.856" lon="5.40989">
        <ele>208.26</ele>
        <time>2022-11-18T07:09:34Z</time>
      </trkpt>
      <trkpt lat="45.85598" lon="5.40991">
        <ele>208.26</ele>
        <time>2022-11-18T07:09:36Z</time>
      </trkpt>
      <trkpt lat="45.85597" lon="5.40992">
        <ele>208.26</ele>
        <time>2022-11-18T07:09:37Z</time>
      </trkpt>
      <trkpt lat="45.85591" lon="5.41003">
        <ele>208.26</ele>
        <time>2022-11-18T07:09:45Z</time>
      </trkpt>
      <trkpt lat="45.8559" lon="5.41004">
        <ele>208.26</ele>
        <time>2022-11-18T07:09:46Z</time>
      </trkpt>
      <trkpt lat="45.85577" lon="5.41023">
        <ele>208.74</ele>
        <time>2022-11-18T07:10:02Z</time>
      </trkpt>
      <trkpt lat="45.85569" lon="5.41033">
        <ele>208.74</ele>
        <time>2022-11-18T07:10:16Z</time>
      </trkpt>
      <trkpt lat="45.85564" lon="5.41037">
        <ele>209.22</ele>
        <time>2022-11-18T07:10:32Z</time>
      </trkpt>
      <trkpt lat="45.8557" lon="5.4104">
        <ele>208.74</ele>
        <time>2022-11-18T07:10:43Z</time>
      </trkpt>
      <trkpt lat="45.85581" lon="5.4105">
        <ele>209.7</ele>
        <time>2022-11-18T07:10:56Z</time>
      </trkpt>
      <trkpt lat="45.85594" lon="5.41062">
        <ele>210.67</ele>
        <time>2022-11-18T07:11:11Z</time>
      </trkpt>
      <trkpt lat="45.85608" lon="5.41074">
        <ele>211.63</ele>
        <time>2022-11-18T07:11:25Z</time>
      </trkpt>
      <trkpt lat="45.85623" lon="5.41088">
        <ele>213.07</ele>
        <time>2022-11-18T07:11:40Z</time>
      </trkpt>
      <trkpt lat="45.85631" lon="5.4111">
        <ele>214.99</ele>
        <time>2022-11-18T07:11:55Z</time>
      </trkpt>
      <trkpt lat="45.85632" lon="5.41136">
        <ele>216.43</ele>
        <time>2022-11-18T07:12:12Z</time>
      </trkpt>
      <trkpt lat="45.85632" lon="5.4114">
        <ele>216.43</ele>
        <time>2022-11-18T07:12:14Z</time>
      </trkpt>
      <trkpt lat="45.85627" lon="5.41162">
        <ele>218.36</ele>
        <time>2022-11-18T07:12:30Z</time>
      </trkpt>
      <trkpt lat="45.85618" lon="5.41183">
        <ele>220.28</ele>
        <time>2022-11-18T07:12:50Z</time>
      </trkpt>
      <trkpt lat="45.85618" lon="5.41185">
        <ele>220.28</ele>
        <time>2022-11-18T07:12:51Z</time>
      </trkpt>
      <trkpt lat="45.85617" lon="5.41186">
        <ele>220.28</ele>
        <time>2022-11-18T07:12:52Z</time>
      </trkpt>
      <trkpt lat="45.85617" lon="5.41188">
        <ele>220.28</ele>
        <time>2022-11-18T07:12:53Z</time>
      </trkpt>
      <trkpt lat="45.85611" lon="5.41213">
        <ele>222.2</ele>
        <time>2022-11-18T07:13:12Z</time>
      </trkpt>
      <trkpt lat="45.85606" lon="5.41235">
        <ele>223.64</ele>
        <time>2022-11-18T07:13:32Z</time>
      </trkpt>
      <trkpt lat="45.85611" lon="5.41241">
        <ele>224.61</ele>
        <time>2022-11-18T07:13:39Z</time>
      </trkpt>
      <trkpt lat="45.85619" lon="5.41225">
        <ele>225.57</ele>
        <time>2022-11-18T07:13:55Z</time>
      </trkpt>
      <trkpt lat="45.85628" lon="5.41204">
        <ele>226.53</ele>
        <time>2022-11-18T07:14:12Z</time>
      </trkpt>
      <trkpt lat="45.85636" lon="5.41184">
        <ele>227.49</ele>
        <time>2022-11-18T07:14:28Z</time>
      </trkpt>
      <trkpt lat="45.85646" lon="5.41165">
        <ele>228.93</ele>
        <time>2022-11-18T07:14:43Z</time>
      </trkpt>
      <trkpt lat="45.85656" lon="5.4115">
        <ele>230.37</ele>
        <time>2022-11-18T07:14:57Z</time>
      </trkpt>
      <trkpt lat="45.85658" lon="5.41146">
        <ele>230.37</ele>
        <time>2022-11-18T07:15:00Z</time>
      </trkpt>
      <trkpt lat="45.85659" lon="5.41145">
        <ele>230.37</ele>
        <time>2022-11-18T07:15:01Z</time>
      </trkpt>
      <trkpt lat="45.85673" lon="5.41127">
        <ele>231.81</ele>
        <time>2022-11-18T07:15:17Z</time>
      </trkpt>
      <trkpt lat="45.85681" lon="5.41114">
        <ele>232.78</ele>
        <time>2022-11-18T07:15:27Z</time>
      </trkpt>
      <trkpt lat="45.85692" lon="5.41097">
        <ele>234.22</ele>
        <time>2022-11-18T07:15:42Z</time>
      </trkpt>
      <trkpt lat="45.85704" lon="5.41077">
        <ele>235.66</ele>
        <time>2022-11-18T07:15:57Z</time>
      </trkpt>
      <trkpt lat="45.8572" lon="5.41061">
        <ele>236.62</ele>
        <time>2022-11-18T07:16:14Z</time>
      </trkpt>
      <trkpt lat="45.85731" lon="5.41051">
        <ele>237.58</ele>
        <time>2022-11-18T07:16:25Z</time>
      </trkpt>
      <trkpt lat="45.85732" lon="5.4105">
        <ele>237.58</ele>
        <time>2022-11-18T07:16:26Z</time>
      </trkpt>
      <trkpt lat="45.8575" lon="5.41037">
        <ele>239.51</ele>
        <time>2022-11-18T07:16:43Z</time>
      </trkpt>
      <trkpt lat="45.85763" lon="5.41023">
        <ele>240.95</ele>
        <time>2022-11-18T07:16:59Z</time>
      </trkpt>
      <trkpt lat="45.85775" lon="5.41008">
        <ele>242.39</ele>
        <time>2022-11-18T07:17:14Z</time>
      </trkpt>
      <trkpt lat="45.85786" lon="5.40987">
        <ele>244.31</ele>
        <time>2022-11-18T07:17:31Z</time>
      </trkpt>
      <trkpt lat="45.8579" lon="5.40975">
        <ele>245.27</ele>
        <time>2022-11-18T07:17:40Z</time>
      </trkpt>
      <trkpt lat="45.8579" lon="5.40973">
        <ele>245.27</ele>
        <time>2022-11-18T07:17:41Z</time>
      </trkpt>
      <trkpt lat="45.8579" lon="5.40971">
        <ele>245.27</ele>
        <time>2022-11-18T07:17:42Z</time>
      </trkpt>
      <trkpt lat="45.85791" lon="5.40969">
        <ele>245.75</ele>
        <time>2022-11-18T07:17:43Z</time>
      </trkpt>
      <trkpt lat="45.85791" lon="5.40967">
        <ele>245.75</ele>
        <time>2022-11-18T07:17:44Z</time>
      </trkpt>
      <trkpt lat="45.85792" lon="5.40963">
        <ele>246.23</ele>
        <time>2022-11-18T07:17:47Z</time>
      </trkpt>
      <trkpt lat="45.85793" lon="5.40958">
        <ele>246.23</ele>
        <time>2022-11-18T07:17:51Z</time>
      </trkpt>
      <trkpt lat="45.85804" lon="5.40939">
        <ele>247.68</ele>
        <time>2022-11-18T07:18:07Z</time>
      </trkpt>
      <trkpt lat="45.85813" lon="5.40927">
        <ele>249.12</ele>
        <time>2022-11-18T07:18:19Z</time>
      </trkpt>
      <trkpt lat="45.85816" lon="5.40922">
        <ele>249.6</ele>
        <time>2022-11-18T07:18:23Z</time>
      </trkpt>
      <trkpt lat="45.85817" lon="5.40921">
        <ele>249.6</ele>
        <time>2022-11-18T07:18:24Z</time>
      </trkpt>
      <trkpt lat="45.85832" lon="5.40909">
        <ele>251.04</ele>
        <time>2022-11-18T07:18:39Z</time>
      </trkpt>
      <trkpt lat="45.85846" lon="5.40898">
        <ele>252.48</ele>
        <time>2022-11-18T07:18:54Z</time>
      </trkpt>
      <trkpt lat="45.85863" lon="5.40889">
        <ele>253.93</ele>
        <time>2022-11-18T07:19:10Z</time>
      </trkpt>
      <trkpt lat="45.85875" lon="5.40883">
        <ele>254.89</ele>
        <time>2022-11-18T07:19:21Z</time>
      </trkpt>
      <trkpt lat="45.85888" lon="5.40875">
        <ele>256.33</ele>
        <time>2022-11-18T07:19:36Z</time>
      </trkpt>
      <trkpt lat="45.85896" lon="5.40873">
        <ele>256.81</ele>
        <time>2022-11-18T07:19:43Z</time>
      </trkpt>
      <trkpt lat="45.85897" lon="5.40873">
        <ele>256.81</ele>
        <time>2022-11-18T07:19:44Z</time>
      </trkpt>
      <trkpt lat="45.85912" lon="5.40871">
        <ele>258.25</ele>
        <time>2022-11-18T07:19:58Z</time>
      </trkpt>
      <trkpt lat="45.85926" lon="5.40869">
        <ele>260.17</ele>
        <time>2022-11-18T07:20:13Z</time>
      </trkpt>
      <trkpt lat="45.85943" lon="5.40872">
        <ele>261.62</ele>
        <time>2022-11-18T07:20:29Z</time>
      </trkpt>
      <trkpt lat="45.85957" lon="5.40879">
        <ele>262.58</ele>
        <time>2022-11-18T07:20:45Z</time>
      </trkpt>
      <trkpt lat="45.85976" lon="5.40893">
        <ele>264.5</ele>
        <time>2022-11-18T07:21:05Z</time>
      </trkpt>
      <trkpt lat="45.8599" lon="5.40908">
        <ele>265.94</ele>
        <time>2022-11-18T07:21:22Z</time>
      </trkpt>
      <trkpt lat="45.85994" lon="5.40925">
        <ele>267.86</ele>
        <time>2022-11-18T07:21:37Z</time>
      </trkpt>
      <trkpt lat="45.85987" lon="5.40931">
        <ele>269.31</ele>
        <time>2022-11-18T07:21:46Z</time>
      </trkpt>
      <trkpt lat="45.85967" lon="5.40939">
        <ele>270.75</ele>
        <time>2022-11-18T07:22:04Z</time>
      </trkpt>
      <trkpt lat="45.85945" lon="5.4094">
        <ele>273.15</ele>
        <time>2022-11-18T07:22:24Z</time>
      </trkpt>
      <trkpt lat="45.85934" lon="5.40941">
        <ele>274.11</ele>
        <time>2022-11-18T07:22:34Z</time>
      </trkpt>
      <trkpt lat="45.85933" lon="5.40941">
        <ele>274.11</ele>
        <time>2022-11-18T07:22:35Z</time>
      </trkpt>
      <trkpt lat="45.85932" lon="5.40942">
        <ele>274.11</ele>
        <time>2022-11-18T07:22:36Z</time>
      </trkpt>
      <trkpt lat="45.85923" lon="5.40955">
        <ele>276.04</ele>
        <time>2022-11-18T07:22:50Z</time>
      </trkpt>
      <trkpt lat="45.85924" lon="5.4096">
        <ele>276.52</ele>
        <time>2022-11-18T07:22:53Z</time>
      </trkpt>
      <trkpt lat="45.85924" lon="5.40963">
        <ele>277</ele>
        <time>2022-11-18T07:22:55Z</time>
      </trkpt>
      <trkpt lat="45.85925" lon="5.40965">
        <ele>277</ele>
        <time>2022-11-18T07:22:56Z</time>
      </trkpt>
      <trkpt lat="45.85925" lon="5.40967">
        <ele>277</ele>
        <time>2022-11-18T07:22:57Z</time>
      </trkpt>
      <trkpt lat="45.85926" lon="5.40969">
        <ele>277</ele>
        <time>2022-11-18T07:22:58Z</time>
      </trkpt>
      <trkpt lat="45.85933" lon="5.40983">
        <ele>278.44</ele>
        <time>2022-11-18T07:23:10Z</time>
      </trkpt>
      <trkpt lat="45.85938" lon="5.40997">
        <ele>280.36</ele>
        <time>2022-11-18T07:23:27Z</time>
      </trkpt>
      <trkpt lat="45.85924" lon="5.40998">
        <ele>281.8</ele>
        <time>2022-11-18T07:23:42Z</time>
      </trkpt>
      <trkpt lat="45.85918" lon="5.40991">
        <ele>282.77</ele>
        <time>2022-11-18T07:23:49Z</time>
      </trkpt>
      <trkpt lat="45.8591" lon="5.40983">
        <ele>284.21</ele>
        <time>2022-11-18T07:24:04Z</time>
      </trkpt>
      <trkpt lat="45.859" lon="5.40995">
        <ele>284.21</ele>
        <time>2022-11-18T07:24:19Z</time>
      </trkpt>
      <trkpt lat="45.85898" lon="5.40996">
        <ele>284.69</ele>
        <time>2022-11-18T07:24:41Z</time>
      </trkpt>
      <trkpt lat="45.85897" lon="5.40996">
        <ele>284.69</ele>
        <time>2022-11-18T07:25:03Z</time>
      </trkpt>
      <trkpt lat="45.85898" lon="5.40996">
        <ele>284.21</ele>
        <time>2022-11-18T07:25:36Z</time>
      </trkpt>
      <trkpt lat="45.85899" lon="5.40997">
        <ele>284.21</ele>
        <time>2022-11-18T07:26:07Z</time>
      </trkpt>
      <trkpt lat="45.85898" lon="5.40997">
        <ele>284.21</ele>
        <time>2022-11-18T07:26:31Z</time>
      </trkpt>
      <trkpt lat="45.85899" lon="5.40998">
        <ele>284.21</ele>
        <time>2022-11-18T07:26:56Z</time>
      </trkpt>
      <trkpt lat="45.859" lon="5.40998">
        <ele>284.21</ele>
        <time>2022-11-18T07:27:22Z</time>
      </trkpt>
      <trkpt lat="45.85897" lon="5.41001">
        <ele>284.21</ele>
        <time>2022-11-18T07:27:44Z</time>
      </trkpt>
      <trkpt lat="45.85896" lon="5.41002">
        <ele>284.21</ele>
        <time>2022-11-18T07:27:45Z</time>
      </trkpt>
      <trkpt lat="45.85894" lon="5.41003">
        <ele>284.21</ele>
        <time>2022-11-18T07:27:46Z</time>
      </trkpt>
      <trkpt lat="45.85879" lon="5.4102">
        <ele>282.77</ele>
        <time>2022-11-18T07:28:05Z</time>
      </trkpt>
      <trkpt lat="45.8586" lon="5.41034">
        <ele>281.8</ele>
        <time>2022-11-18T07:28:24Z</time>
      </trkpt>
      <trkpt lat="45.85852" lon="5.4104">
        <ele>281.8</ele>
        <time>2022-11-18T07:28:32Z</time>
      </trkpt>
      <trkpt lat="45.85843" lon="5.41054">
        <ele>280.36</ele>
        <time>2022-11-18T07:28:51Z</time>
      </trkpt>
      <trkpt lat="45.85841" lon="5.41057">
        <ele>280.36</ele>
        <time>2022-11-18T07:28:56Z</time>
      </trkpt>
      <trkpt lat="45.8584" lon="5.41059">
        <ele>280.36</ele>
        <time>2022-11-18T07:28:57Z</time>
      </trkpt>
      <trkpt lat="45.85839" lon="5.4106">
        <ele>280.36</ele>
        <time>2022-11-18T07:28:58Z</time>
      </trkpt>
      <trkpt lat="45.85838" lon="5.41062">
        <ele>279.88</ele>
        <time>2022-11-18T07:28:59Z</time>
      </trkpt>
      <trkpt lat="45.85837" lon="5.41063">
        <ele>279.88</ele>
        <time>2022-11-18T07:29:00Z</time>
      </trkpt>
      <trkpt lat="45.8583" lon="5.41076">
        <ele>277</ele>
        <time>2022-11-18T07:29:18Z</time>
      </trkpt>
      <trkpt lat="45.85829" lon="5.41076">
        <ele>277</ele>
        <time>2022-11-18T07:29:43Z</time>
      </trkpt>
      <trkpt lat="45.85829" lon="5.41077">
        <ele>277</ele>
        <time>2022-11-18T07:30:04Z</time>
      </trkpt>
      <trkpt lat="45.85828" lon="5.41076">
        <ele>276.52</ele>
        <time>2022-11-18T07:30:25Z</time>
      </trkpt>
      <trkpt lat="45.85829" lon="5.41075">
        <ele>276.52</ele>
        <time>2022-11-18T07:30:51Z</time>
      </trkpt>
      <trkpt lat="45.8583" lon="5.41077">
        <ele>276.52</ele>
        <time>2022-11-18T07:31:13Z</time>
      </trkpt>
      <trkpt lat="45.85829" lon="5.41076">
        <ele>276.52</ele>
        <time>2022-11-18T07:31:37Z</time>
      </trkpt>
      <trkpt lat="45.85829" lon="5.41075">
        <ele>276.52</ele>
        <time>2022-11-18T07:31:59Z</time>
      </trkpt>
      <trkpt lat="45.8583" lon="5.41077">
        <ele>276.52</ele>
        <time>2022-11-18T07:32:22Z</time>
      </trkpt>
      <trkpt lat="45.85829" lon="5.41076">
        <ele>276.52</ele>
        <time>2022-11-18T07:32:55Z</time>
      </trkpt>
      <trkpt lat="45.8583" lon="5.41079">
        <ele>276.52</ele>
        <time>2022-11-18T07:33:18Z</time>
      </trkpt>
      <trkpt lat="45.8584" lon="5.41088">
        <ele>276.52</ele>
        <time>2022-11-18T07:33:38Z</time>
      </trkpt>
      <trkpt lat="45.85839" lon="5.41094">
        <ele>276.52</ele>
        <time>2022-11-18T07:33:43Z</time>
      </trkpt>
      <trkpt lat="45.85838" lon="5.41103">
        <ele>273.15</ele>
        <time>2022-11-18T07:33:51Z</time>
      </trkpt>
      <trkpt lat="45.85836" lon="5.41105">
        <ele>272.67</ele>
        <time>2022-11-18T07:33:53Z</time>
      </trkpt>
      <trkpt lat="45.85836" lon="5.41106">
        <ele>272.19</ele>
        <time>2022-11-18T07:33:54Z</time>
      </trkpt>
      <trkpt lat="45.85831" lon="5.41114">
        <ele>271.23</ele>
        <time>2022-11-18T07:34:00Z</time>
      </trkpt>
      <trkpt lat="45.85811" lon="5.41137">
        <ele>268.35</ele>
        <time>2022-11-18T07:34:23Z</time>
      </trkpt>
      <trkpt lat="45.85796" lon="5.41151">
        <ele>266.42</ele>
        <time>2022-11-18T07:34:41Z</time>
      </trkpt>
      <trkpt lat="45.85781" lon="5.41166">
        <ele>264.5</ele>
        <time>2022-11-18T07:35:00Z</time>
      </trkpt>
      <trkpt lat="45.85775" lon="5.41177">
        <ele>262.58</ele>
        <time>2022-11-18T07:35:20Z</time>
      </trkpt>
      <trkpt lat="45.85777" lon="5.41178">
        <ele>262.58</ele>
        <time>2022-11-18T07:35:48Z</time>
      </trkpt>
      <trkpt lat="45.85777" lon="5.41177">
        <ele>262.1</ele>
        <time>2022-11-18T07:36:16Z</time>
      </trkpt>
      <trkpt lat="45.85776" lon="5.41178">
        <ele>262.58</ele>
        <time>2022-11-18T07:36:41Z</time>
      </trkpt>
      <trkpt lat="45.85772" lon="5.41179">
        <ele>262.58</ele>
        <time>2022-11-18T07:37:09Z</time>
      </trkpt>
      <trkpt lat="45.8576" lon="5.41185">
        <ele>262.1</ele>
        <time>2022-11-18T07:37:26Z</time>
      </trkpt>
      <trkpt lat="45.85757" lon="5.41187">
        <ele>259.69</ele>
        <time>2022-11-18T07:37:30Z</time>
      </trkpt>
      <trkpt lat="45.85744" lon="5.41188">
        <ele>257.29</ele>
        <time>2022-11-18T07:37:42Z</time>
      </trkpt>
      <trkpt lat="45.85733" lon="5.41183">
        <ele>256.81</ele>
        <time>2022-11-18T07:37:59Z</time>
      </trkpt>
      <trkpt lat="45.85729" lon="5.41184">
        <ele>256.33</ele>
        <time>2022-11-18T07:38:15Z</time>
      </trkpt>
      <trkpt lat="45.85729" lon="5.41192">
        <ele>254.41</ele>
        <time>2022-11-18T07:38:33Z</time>
      </trkpt>
      <trkpt lat="45.85727" lon="5.41196">
        <ele>253.44</ele>
        <time>2022-11-18T07:38:55Z</time>
      </trkpt>
      <trkpt lat="45.85724" lon="5.41198">
        <ele>252.96</ele>
        <time>2022-11-18T07:39:15Z</time>
      </trkpt>
      <trkpt lat="45.85725" lon="5.41199">
        <ele>252.96</ele>
        <time>2022-11-18T07:39:43Z</time>
      </trkpt>
      <trkpt lat="45.85722" lon="5.41191">
        <ele>252.96</ele>
        <time>2022-11-18T07:40:04Z</time>
      </trkpt>
      <trkpt lat="45.85718" lon="5.41172">
        <ele>253.93</ele>
        <time>2022-11-18T07:40:23Z</time>
      </trkpt>
      <trkpt lat="45.85717" lon="5.41148">
        <ele>254.89</ele>
        <time>2022-11-18T07:40:40Z</time>
      </trkpt>
      <trkpt lat="45.85721" lon="5.41131">
        <ele>254.41</ele>
        <time>2022-11-18T07:40:57Z</time>
      </trkpt>
      <trkpt lat="45.8573" lon="5.41118">
        <ele>254.41</ele>
        <time>2022-11-18T07:41:16Z</time>
      </trkpt>
      <trkpt lat="45.85739" lon="5.41128">
        <ele>257.77</ele>
        <time>2022-11-18T07:41:36Z</time>
      </trkpt>
      <trkpt lat="45.85752" lon="5.41138">
        <ele>259.69</ele>
        <time>2022-11-18T07:41:54Z</time>
      </trkpt>
      <trkpt lat="45.85757" lon="5.41146">
        <ele>260.17</ele>
        <time>2022-11-18T07:42:09Z</time>
      </trkpt>
      <trkpt lat="45.85764" lon="5.41165">
        <ele>259.21</ele>
        <time>2022-11-18T07:42:25Z</time>
      </trkpt>
      <trkpt lat="45.85776" lon="5.4117">
        <ele>260.17</ele>
        <time>2022-11-18T07:42:42Z</time>
      </trkpt>
      <trkpt lat="45.85777" lon="5.41168">
        <ele>260.17</ele>
        <time>2022-11-18T07:42:43Z</time>
      </trkpt>
      <trkpt lat="45.85783" lon="5.41162">
        <ele>260.65</ele>
        <time>2022-11-18T07:42:51Z</time>
      </trkpt>
      <trkpt lat="45.85795" lon="5.41149">
        <ele>262.1</ele>
        <time>2022-11-18T07:43:04Z</time>
      </trkpt>
      <trkpt lat="45.85798" lon="5.41145">
        <ele>262.58</ele>
        <time>2022-11-18T07:43:09Z</time>
      </trkpt>
      <trkpt lat="45.85809" lon="5.41135">
        <ele>263.54</ele>
        <time>2022-11-18T07:43:23Z</time>
      </trkpt>
      <trkpt lat="45.8582" lon="5.41123">
        <ele>264.98</ele>
        <time>2022-11-18T07:43:38Z</time>
      </trkpt>
      <trkpt lat="45.85829" lon="5.4111">
        <ele>266.42</ele>
        <time>2022-11-18T07:43:54Z</time>
      </trkpt>
      <trkpt lat="45.85837" lon="5.41096">
        <ele>268.35</ele>
        <time>2022-11-18T07:44:12Z</time>
      </trkpt>
      <trkpt lat="45.85835" lon="5.41078">
        <ele>270.27</ele>
        <time>2022-11-18T07:44:30Z</time>
      </trkpt>
      <trkpt lat="45.85836" lon="5.41061">
        <ele>272.67</ele>
        <time>2022-11-18T07:44:48Z</time>
      </trkpt>
      <trkpt lat="45.85846" lon="5.41051">
        <ele>275.07</ele>
        <time>2022-11-18T07:45:08Z</time>
      </trkpt>
      <trkpt lat="45.85849" lon="5.41045">
        <ele>275.56</ele>
        <time>2022-11-18T07:45:13Z</time>
      </trkpt>
      <trkpt lat="45.8586" lon="5.41031">
        <ele>276.04</ele>
        <time>2022-11-18T07:45:29Z</time>
      </trkpt>
      <trkpt lat="45.85861" lon="5.4103">
        <ele>276.04</ele>
        <time>2022-11-18T07:45:30Z</time>
      </trkpt>
      <trkpt lat="45.85865" lon="5.41029">
        <ele>276.52</ele>
        <time>2022-11-18T07:45:33Z</time>
      </trkpt>
      <trkpt lat="45.85878" lon="5.41018">
        <ele>277</ele>
        <time>2022-11-18T07:45:48Z</time>
      </trkpt>
      <trkpt lat="45.85879" lon="5.41017">
        <ele>277</ele>
        <time>2022-11-18T07:45:49Z</time>
      </trkpt>
      <trkpt lat="45.8588" lon="5.41016">
        <ele>277</ele>
        <time>2022-11-18T07:45:50Z</time>
      </trkpt>
      <trkpt lat="45.85885" lon="5.41012">
        <ele>277</ele>
        <time>2022-11-18T07:45:55Z</time>
      </trkpt>
      <trkpt lat="45.85886" lon="5.41011">
        <ele>277</ele>
        <time>2022-11-18T07:45:56Z</time>
      </trkpt>
      <trkpt lat="45.859" lon="5.40995">
        <ele>278.44</ele>
        <time>2022-11-18T07:46:13Z</time>
      </trkpt>
      <trkpt lat="45.85901" lon="5.40995">
        <ele>278.44</ele>
        <time>2022-11-18T07:46:14Z</time>
      </trkpt>
      <trkpt lat="45.85912" lon="5.40985">
        <ele>278.44</ele>
        <time>2022-11-18T07:46:28Z</time>
      </trkpt>
      <trkpt lat="45.85921" lon="5.40993">
        <ele>277.96</ele>
        <time>2022-11-18T07:46:42Z</time>
      </trkpt>
      <trkpt lat="45.85928" lon="5.41">
        <ele>276.04</ele>
        <time>2022-11-18T07:46:58Z</time>
      </trkpt>
      <trkpt lat="45.85934" lon="5.41004">
        <ele>275.56</ele>
        <time>2022-11-18T07:47:20Z</time>
      </trkpt>
      <trkpt lat="45.85923" lon="5.41014">
        <ele>277.48</ele>
        <time>2022-11-18T07:47:42Z</time>
      </trkpt>
      <trkpt lat="45.85915" lon="5.41032">
        <ele>279.4</ele>
        <time>2022-11-18T07:47:57Z</time>
      </trkpt>
      <trkpt lat="45.85914" lon="5.41038">
        <ele>279.88</ele>
        <time>2022-11-18T07:48:01Z</time>
      </trkpt>
      <trkpt lat="45.85915" lon="5.4104">
        <ele>279.88</ele>
        <time>2022-11-18T07:48:02Z</time>
      </trkpt>
      <trkpt lat="45.85922" lon="5.41052">
        <ele>280.84</ele>
        <time>2022-11-18T07:48:15Z</time>
      </trkpt>
      <trkpt lat="45.85934" lon="5.41064">
        <ele>282.77</ele>
        <time>2022-11-18T07:48:35Z</time>
      </trkpt>
      <trkpt lat="45.85941" lon="5.41072">
        <ele>283.73</ele>
        <time>2022-11-18T07:48:43Z</time>
      </trkpt>
      <trkpt lat="45.85954" lon="5.41082">
        <ele>285.65</ele>
        <time>2022-11-18T07:49:00Z</time>
      </trkpt>
      <trkpt lat="45.85965" lon="5.4109">
        <ele>287.57</ele>
        <time>2022-11-18T07:49:15Z</time>
      </trkpt>
      <trkpt lat="45.85972" lon="5.41092">
        <ele>288.53</ele>
        <time>2022-11-18T07:49:22Z</time>
      </trkpt>
      <trkpt lat="45.85988" lon="5.41095">
        <ele>289.01</ele>
        <time>2022-11-18T07:49:38Z</time>
      </trkpt>
      <trkpt lat="45.86003" lon="5.41097">
        <ele>289.49</ele>
        <time>2022-11-18T07:49:53Z</time>
      </trkpt>
      <trkpt lat="45.86015" lon="5.41103">
        <ele>289.97</ele>
        <time>2022-11-18T07:50:09Z</time>
      </trkpt>
      <trkpt lat="45.86031" lon="5.41104">
        <ele>291.42</ele>
        <time>2022-11-18T07:50:31Z</time>
      </trkpt>
      <trkpt lat="45.8605" lon="5.41107">
        <ele>291.9</ele>
        <time>2022-11-18T07:50:51Z</time>
      </trkpt>
      <trkpt lat="45.86075" lon="5.41115">
        <ele>293.34</ele>
        <time>2022-11-18T07:51:15Z</time>
      </trkpt>
      <trkpt lat="45.86096" lon="5.41113">
        <ele>293.82</ele>
        <time>2022-11-18T07:51:36Z</time>
      </trkpt>
      <trkpt lat="45.86114" lon="5.41113">
        <ele>294.78</ele>
        <time>2022-11-18T07:51:50Z</time>
      </trkpt>
      <trkpt lat="45.86133" lon="5.41122">
        <ele>295.74</ele>
        <time>2022-11-18T07:52:05Z</time>
      </trkpt>
      <trkpt lat="45.86144" lon="5.41131">
        <ele>296.7</ele>
        <time>2022-11-18T07:52:17Z</time>
      </trkpt>
      <trkpt lat="45.8615" lon="5.41137">
        <ele>297.18</ele>
        <time>2022-11-18T07:52:25Z</time>
      </trkpt>
      <trkpt lat="45.86151" lon="5.41139">
        <ele>297.18</ele>
        <time>2022-11-18T07:52:26Z</time>
      </trkpt>
      <trkpt lat="45.86162" lon="5.41154">
        <ele>298.63</ele>
        <time>2022-11-18T07:52:41Z</time>
      </trkpt>
      <trkpt lat="45.86171" lon="5.41164">
        <ele>299.59</ele>
        <time>2022-11-18T07:52:54Z</time>
      </trkpt>
      <trkpt lat="45.86173" lon="5.41165">
        <ele>299.59</ele>
        <time>2022-11-18T07:52:56Z</time>
      </trkpt>
      <trkpt lat="45.86181" lon="5.41169">
        <ele>300.55</ele>
        <time>2022-11-18T07:53:04Z</time>
      </trkpt>
      <trkpt lat="45.86187" lon="5.41171">
        <ele>301.03</ele>
        <time>2022-11-18T07:53:10Z</time>
      </trkpt>
      <trkpt lat="45.86198" lon="5.41175">
        <ele>301.51</ele>
        <time>2022-11-18T07:53:22Z</time>
      </trkpt>
      <trkpt lat="45.86208" lon="5.41187">
        <ele>301.99</ele>
        <time>2022-11-18T07:53:37Z</time>
      </trkpt>
      <trkpt lat="45.86223" lon="5.41194">
        <ele>302.47</ele>
        <time>2022-11-18T07:53:52Z</time>
      </trkpt>
      <trkpt lat="45.86234" lon="5.41205">
        <ele>302.95</ele>
        <time>2022-11-18T07:54:07Z</time>
      </trkpt>
      <trkpt lat="45.86243" lon="5.41217">
        <ele>302.95</ele>
        <time>2022-11-18T07:54:24Z</time>
      </trkpt>
      <trkpt lat="45.86257" lon="5.41226">
        <ele>301.03</ele>
        <time>2022-11-18T07:54:42Z</time>
      </trkpt>
      <trkpt lat="45.86258" lon="5.41226">
        <ele>301.03</ele>
        <time>2022-11-18T07:54:43Z</time>
      </trkpt>
      <trkpt lat="45.86266" lon="5.41232">
        <ele>299.59</ele>
        <time>2022-11-18T07:54:55Z</time>
      </trkpt>
      <trkpt lat="45.86281" lon="5.41242">
        <ele>298.15</ele>
        <time>2022-11-18T07:55:15Z</time>
      </trkpt>
      <trkpt lat="45.86295" lon="5.41253">
        <ele>296.22</ele>
        <time>2022-11-18T07:55:35Z</time>
      </trkpt>
      <trkpt lat="45.86313" lon="5.41269">
        <ele>294.78</ele>
        <time>2022-11-18T07:55:55Z</time>
      </trkpt>
      <trkpt lat="45.86327" lon="5.41287">
        <ele>292.38</ele>
        <time>2022-11-18T07:56:19Z</time>
      </trkpt>
      <trkpt lat="45.86334" lon="5.41291">
        <ele>291.42</ele>
        <time>2022-11-18T07:56:44Z</time>
      </trkpt>
      <trkpt lat="45.86339" lon="5.41293">
        <ele>291.42</ele>
        <time>2022-11-18T07:57:06Z</time>
      </trkpt>
      <trkpt lat="45.86343" lon="5.41304">
        <ele>291.42</ele>
        <time>2022-11-18T07:57:30Z</time>
      </trkpt>
      <trkpt lat="45.86343" lon="5.41305">
        <ele>287.57</ele>
        <time>2022-11-18T07:57:34Z</time>
      </trkpt>
      <trkpt lat="45.86338" lon="5.41309">
        <ele>291.42</ele>
        <time>2022-11-18T07:58:00Z</time>
      </trkpt>
      <trkpt lat="45.8633" lon="5.41318">
        <ele>291.42</ele>
        <time>2022-11-18T07:58:26Z</time>
      </trkpt>
      <trkpt lat="45.86325" lon="5.41327">
        <ele>281.8</ele>
        <time>2022-11-18T07:58:35Z</time>
      </trkpt>
      <trkpt lat="45.86325" lon="5.41328">
        <ele>281.8</ele>
        <time>2022-11-18T07:58:36Z</time>
      </trkpt>
      <trkpt lat="45.86321" lon="5.41332">
        <ele>280.84</ele>
        <time>2022-11-18T07:59:02Z</time>
      </trkpt>
      <trkpt lat="45.86321" lon="5.41339">
        <ele>279.88</ele>
        <time>2022-11-18T07:59:25Z</time>
      </trkpt>
      <trkpt lat="45.86307" lon="5.41328">
        <ele>277.96</ele>
        <time>2022-11-18T07:59:48Z</time>
      </trkpt>
      <trkpt lat="45.86302" lon="5.41326">
        <ele>274.59</ele>
        <time>2022-11-18T08:00:04Z</time>
      </trkpt>
      <trkpt lat="45.86295" lon="5.41321">
        <ele>273.63</ele>
        <time>2022-11-18T08:00:19Z</time>
      </trkpt>
      <trkpt lat="45.86292" lon="5.41316">
        <ele>272.19</ele>
        <time>2022-11-18T08:00:46Z</time>
      </trkpt>
      <trkpt lat="45.86286" lon="5.41317">
        <ele>270.27</ele>
        <time>2022-11-18T08:01:09Z</time>
      </trkpt>
      <trkpt lat="45.86279" lon="5.4132">
        <ele>268.83</ele>
        <time>2022-11-18T08:01:35Z</time>
      </trkpt>
      <trkpt lat="45.8627" lon="5.41322">
        <ele>265.46</ele>
        <time>2022-11-18T08:01:56Z</time>
      </trkpt>
      <trkpt lat="45.86266" lon="5.41323">
        <ele>262.58</ele>
        <time>2022-11-18T08:02:17Z</time>
      </trkpt>
      <trkpt lat="45.86263" lon="5.41323">
        <ele>259.69</ele>
        <time>2022-11-18T08:02:33Z</time>
      </trkpt>
      <trkpt lat="45.8626" lon="5.41322">
        <ele>258.25</ele>
        <time>2022-11-18T08:02:41Z</time>
      </trkpt>
      <trkpt lat="45.86253" lon="5.41323">
        <ele>255.37</ele>
        <time>2022-11-18T08:02:59Z</time>
      </trkpt>
      <trkpt lat="45.86245" lon="5.41319">
        <ele>253.44</ele>
        <time>2022-11-18T08:03:19Z</time>
      </trkpt>
      <trkpt lat="45.8624" lon="5.41318">
        <ele>253.93</ele>
        <time>2022-11-18T08:03:44Z</time>
      </trkpt>
      <trkpt lat="45.86237" lon="5.41316">
        <ele>253.93</ele>
        <time>2022-11-18T08:04:00Z</time>
      </trkpt>
      <trkpt lat="45.86223" lon="5.41307">
        <ele>252.48</ele>
        <time>2022-11-18T08:04:19Z</time>
      </trkpt>
      <trkpt lat="45.86204" lon="5.41302">
        <ele>257.77</ele>
        <time>2022-11-18T08:04:40Z</time>
      </trkpt>
      <trkpt lat="45.86203" lon="5.41303">
        <ele>255.85</ele>
        <time>2022-11-18T08:04:41Z</time>
      </trkpt>
      <trkpt lat="45.86187" lon="5.41306">
        <ele>254.89</ele>
        <time>2022-11-18T08:04:55Z</time>
      </trkpt>
      <trkpt lat="45.86163" lon="5.41313">
        <ele>255.37</ele>
        <time>2022-11-18T08:05:17Z</time>
      </trkpt>
      <trkpt lat="45.86141" lon="5.41315">
        <ele>254.89</ele>
        <time>2022-11-18T08:05:40Z</time>
      </trkpt>
      <trkpt lat="45.86111" lon="5.41318">
        <ele>254.41</ele>
        <time>2022-11-18T08:06:03Z</time>
      </trkpt>
      <trkpt lat="45.86082" lon="5.4132">
        <ele>252.48</ele>
        <time>2022-11-18T08:06:29Z</time>
      </trkpt>
      <trkpt lat="45.86063" lon="5.41319">
        <ele>252.48</ele>
        <time>2022-11-18T08:06:49Z</time>
      </trkpt>
      <trkpt lat="45.86041" lon="5.41327">
        <ele>252</ele>
        <time>2022-11-18T08:07:07Z</time>
      </trkpt>
      <trkpt lat="45.86024" lon="5.41331">
        <ele>251.52</ele>
        <time>2022-11-18T08:07:26Z</time>
      </trkpt>
      <trkpt lat="45.85998" lon="5.41344">
        <ele>253.44</ele>
        <time>2022-11-18T08:07:51Z</time>
      </trkpt>
      <trkpt lat="45.85975" lon="5.41344">
        <ele>254.41</ele>
        <time>2022-11-18T08:08:13Z</time>
      </trkpt>
      <trkpt lat="45.85951" lon="5.41345">
        <ele>254.41</ele>
        <time>2022-11-18T08:08:35Z</time>
      </trkpt>
      <trkpt lat="45.85928" lon="5.41343">
        <ele>252.96</ele>
        <time>2022-11-18T08:08:55Z</time>
      </trkpt>
      <trkpt lat="45.859" lon="5.41336">
        <ele>252.48</ele>
        <time>2022-11-18T08:09:19Z</time>
      </trkpt>
      <trkpt lat="45.85871" lon="5.41325">
        <ele>252.48</ele>
        <time>2022-11-18T08:09:44Z</time>
      </trkpt>
      <trkpt lat="45.85847" lon="5.4132">
        <ele>251.04</ele>
        <time>2022-11-18T08:10:02Z</time>
      </trkpt>
      <trkpt lat="45.85832" lon="5.41321">
        <ele>250.08</ele>
        <time>2022-11-18T08:10:15Z</time>
      </trkpt>
      <trkpt lat="45.85814" lon="5.41323">
        <ele>249.6</ele>
        <time>2022-11-18T08:10:33Z</time>
      </trkpt>
      <trkpt lat="45.85791" lon="5.41323">
        <ele>248.64</ele>
        <time>2022-11-18T08:10:57Z</time>
      </trkpt>
      <trkpt lat="45.85766" lon="5.41323">
        <ele>246.23</ele>
        <time>2022-11-18T08:11:24Z</time>
      </trkpt>
      <trkpt lat="45.85752" lon="5.41314">
        <ele>244.31</ele>
        <time>2022-11-18T08:11:38Z</time>
      </trkpt>
      <trkpt lat="45.85743" lon="5.41308">
        <ele>243.35</ele>
        <time>2022-11-18T08:11:45Z</time>
      </trkpt>
      <trkpt lat="45.85741" lon="5.41308">
        <ele>242.87</ele>
        <time>2022-11-18T08:11:46Z</time>
      </trkpt>
      <trkpt lat="45.85715" lon="5.41301">
        <ele>240.95</ele>
        <time>2022-11-18T08:12:06Z</time>
      </trkpt>
      <trkpt lat="45.85711" lon="5.41303">
        <ele>240.47</ele>
        <time>2022-11-18T08:12:09Z</time>
      </trkpt>
      <trkpt lat="45.857" lon="5.41318">
        <ele>239.99</ele>
        <time>2022-11-18T08:12:25Z</time>
      </trkpt>
      <trkpt lat="45.85692" lon="5.41344">
        <ele>242.87</ele>
        <time>2022-11-18T08:12:45Z</time>
      </trkpt>
      <trkpt lat="45.85691" lon="5.41345">
        <ele>242.87</ele>
        <time>2022-11-18T08:12:46Z</time>
      </trkpt>
      <trkpt lat="45.85689" lon="5.41348">
        <ele>242.87</ele>
        <time>2022-11-18T08:12:48Z</time>
      </trkpt>
      <trkpt lat="45.85688" lon="5.41348">
        <ele>243.35</ele>
        <time>2022-11-18T08:12:49Z</time>
      </trkpt>
      <trkpt lat="45.85674" lon="5.41359">
        <ele>244.31</ele>
        <time>2022-11-18T08:13:06Z</time>
      </trkpt>
      <trkpt lat="45.85658" lon="5.41384">
        <ele>244.31</ele>
        <time>2022-11-18T08:13:28Z</time>
      </trkpt>
      <trkpt lat="45.85654" lon="5.4139">
        <ele>244.31</ele>
        <time>2022-11-18T08:13:50Z</time>
      </trkpt>
      <trkpt lat="45.85643" lon="5.4141">
        <ele>244.79</ele>
        <time>2022-11-18T08:14:08Z</time>
      </trkpt>
      <trkpt lat="45.8563" lon="5.41434">
        <ele>246.23</ele>
        <time>2022-11-18T08:14:30Z</time>
      </trkpt>
      <trkpt lat="45.85619" lon="5.41453">
        <ele>247.68</ele>
        <time>2022-11-18T08:14:52Z</time>
      </trkpt>
      <trkpt lat="45.85608" lon="5.41474">
        <ele>249.6</ele>
        <time>2022-11-18T08:15:15Z</time>
      </trkpt>
      <trkpt lat="45.85603" lon="5.41504">
        <ele>252</ele>
        <time>2022-11-18T08:15:37Z</time>
      </trkpt>
      <trkpt lat="45.85603" lon="5.41505">
        <ele>252</ele>
        <time>2022-11-18T08:15:38Z</time>
      </trkpt>
      <trkpt lat="45.8561" lon="5.41525">
        <ele>253.93</ele>
        <time>2022-11-18T08:15:53Z</time>
      </trkpt>
      <trkpt lat="45.8561" lon="5.41544">
        <ele>255.37</ele>
        <time>2022-11-18T08:16:09Z</time>
      </trkpt>
      <trkpt lat="45.85618" lon="5.41561">
        <ele>257.29</ele>
        <time>2022-11-18T08:16:25Z</time>
      </trkpt>
      <trkpt lat="45.85624" lon="5.41578">
        <ele>259.21</ele>
        <time>2022-11-18T08:16:42Z</time>
      </trkpt>
      <trkpt lat="45.85626" lon="5.41587">
        <ele>260.65</ele>
        <time>2022-11-18T08:16:57Z</time>
      </trkpt>
      <trkpt lat="45.85626" lon="5.41588">
        <ele>261.14</ele>
        <time>2022-11-18T08:17:23Z</time>
      </trkpt>
      <trkpt lat="45.85627" lon="5.41589">
        <ele>260.17</ele>
        <time>2022-11-18T08:17:58Z</time>
      </trkpt>
      <trkpt lat="45.85627" lon="5.4159">
        <ele>260.17</ele>
        <time>2022-11-18T08:18:56Z</time>
      </trkpt>
      <trkpt lat="45.85627" lon="5.41591">
        <ele>260.17</ele>
        <time>2022-11-18T08:20:33Z</time>
      </trkpt>
      <trkpt lat="45.85628" lon="5.41591">
        <ele>260.17</ele>
        <time>2022-11-18T08:20:54Z</time>
      </trkpt>
      <trkpt lat="45.85629" lon="5.41591">
        <ele>260.17</ele>
        <time>2022-11-18T08:22:13Z</time>
      </trkpt>
      <trkpt lat="45.85631" lon="5.41595">
        <ele>260.17</ele>
        <time>2022-11-18T08:22:30Z</time>
      </trkpt>
      <trkpt lat="45.85637" lon="5.41607">
        <ele>260.17</ele>
        <time>2022-11-18T08:22:46Z</time>
      </trkpt>
      <trkpt lat="45.85644" lon="5.41625">
        <ele>261.62</ele>
        <time>2022-11-18T08:23:01Z</time>
      </trkpt>
      <trkpt lat="45.85647" lon="5.41632">
        <ele>261.62</ele>
        <time>2022-11-18T08:23:06Z</time>
      </trkpt>
      <trkpt lat="45.85655" lon="5.41649">
        <ele>262.58</ele>
        <time>2022-11-18T08:23:20Z</time>
      </trkpt>
      <trkpt lat="45.85661" lon="5.41663">
        <ele>263.06</ele>
        <time>2022-11-18T08:23:32Z</time>
      </trkpt>
      <trkpt lat="45.85666" lon="5.41681">
        <ele>264.02</ele>
        <time>2022-11-18T08:23:45Z</time>
      </trkpt>
      <trkpt lat="45.85672" lon="5.41698">
        <ele>264.5</ele>
        <time>2022-11-18T08:24:00Z</time>
      </trkpt>
      <trkpt lat="45.85678" lon="5.41707">
        <ele>264.98</ele>
        <time>2022-11-18T08:24:09Z</time>
      </trkpt>
      <trkpt lat="45.85681" lon="5.4171">
        <ele>264.98</ele>
        <time>2022-11-18T08:24:13Z</time>
      </trkpt>
      <trkpt lat="45.85688" lon="5.41719">
        <ele>265.94</ele>
        <time>2022-11-18T08:24:22Z</time>
      </trkpt>
      <trkpt lat="45.85691" lon="5.41728">
        <ele>266.42</ele>
        <time>2022-11-18T08:24:27Z</time>
      </trkpt>
      <trkpt lat="45.85691" lon="5.41729">
        <ele>266.42</ele>
        <time>2022-11-18T08:24:28Z</time>
      </trkpt>
      <trkpt lat="45.85698" lon="5.41748">
        <ele>265.94</ele>
        <time>2022-11-18T08:24:42Z</time>
      </trkpt>
      <trkpt lat="45.85699" lon="5.41769">
        <ele>265.94</ele>
        <time>2022-11-18T08:24:58Z</time>
      </trkpt>
      <trkpt lat="45.85697" lon="5.4178">
        <ele>266.42</ele>
        <time>2022-11-18T08:25:05Z</time>
      </trkpt>
      <trkpt lat="45.85693" lon="5.41799">
        <ele>266.9</ele>
        <time>2022-11-18T08:25:18Z</time>
      </trkpt>
      <trkpt lat="45.85693" lon="5.41832">
        <ele>266.9</ele>
        <time>2022-11-18T08:25:37Z</time>
      </trkpt>
      <trkpt lat="45.85694" lon="5.41843">
        <ele>266.9</ele>
        <time>2022-11-18T08:25:43Z</time>
      </trkpt>
      <trkpt lat="45.85694" lon="5.41845">
        <ele>266.9</ele>
        <time>2022-11-18T08:25:44Z</time>
      </trkpt>
      <trkpt lat="45.85695" lon="5.41857">
        <ele>266.9</ele>
        <time>2022-11-18T08:25:51Z</time>
      </trkpt>
      <trkpt lat="45.857" lon="5.41883">
        <ele>267.38</ele>
        <time>2022-11-18T08:26:08Z</time>
      </trkpt>
      <trkpt lat="45.85702" lon="5.41891">
        <ele>267.38</ele>
        <time>2022-11-18T08:26:13Z</time>
      </trkpt>
      <trkpt lat="45.85706" lon="5.41914">
        <ele>267.86</ele>
        <time>2022-11-18T08:26:26Z</time>
      </trkpt>
      <trkpt lat="45.85708" lon="5.41926">
        <ele>267.86</ele>
        <time>2022-11-18T08:26:33Z</time>
      </trkpt>
      <trkpt lat="45.85708" lon="5.41928">
        <ele>267.86</ele>
        <time>2022-11-18T08:26:34Z</time>
      </trkpt>
      <trkpt lat="45.85708" lon="5.4193">
        <ele>267.86</ele>
        <time>2022-11-18T08:26:35Z</time>
      </trkpt>
      <trkpt lat="45.85708" lon="5.41932">
        <ele>267.86</ele>
        <time>2022-11-18T08:26:36Z</time>
      </trkpt>
      <trkpt lat="45.85708" lon="5.41934">
        <ele>267.86</ele>
        <time>2022-11-18T08:26:37Z</time>
      </trkpt>
      <trkpt lat="45.85708" lon="5.41947">
        <ele>267.86</ele>
        <time>2022-11-18T08:26:46Z</time>
      </trkpt>
      <trkpt lat="45.85706" lon="5.41972">
        <ele>268.35</ele>
        <time>2022-11-18T08:27:01Z</time>
      </trkpt>
      <trkpt lat="45.85706" lon="5.41994">
        <ele>269.31</ele>
        <time>2022-11-18T08:27:16Z</time>
      </trkpt>
      <trkpt lat="45.85706" lon="5.42">
        <ele>269.31</ele>
        <time>2022-11-18T08:27:20Z</time>
      </trkpt>
      <trkpt lat="45.85706" lon="5.42003">
        <ele>269.79</ele>
        <time>2022-11-18T08:27:22Z</time>
      </trkpt>
      <trkpt lat="45.85705" lon="5.4203">
        <ele>270.75</ele>
        <time>2022-11-18T08:27:39Z</time>
      </trkpt>
      <trkpt lat="45.85705" lon="5.42033">
        <ele>271.23</ele>
        <time>2022-11-18T08:27:41Z</time>
      </trkpt>
      <trkpt lat="45.85704" lon="5.42035">
        <ele>271.23</ele>
        <time>2022-11-18T08:27:42Z</time>
      </trkpt>
      <trkpt lat="45.85704" lon="5.42036">
        <ele>271.23</ele>
        <time>2022-11-18T08:27:43Z</time>
      </trkpt>
      <trkpt lat="45.85708" lon="5.42059">
        <ele>272.19</ele>
        <time>2022-11-18T08:28:00Z</time>
      </trkpt>
      <trkpt lat="45.85709" lon="5.4206">
        <ele>272.19</ele>
        <time>2022-11-18T08:28:01Z</time>
      </trkpt>
      <trkpt lat="45.85709" lon="5.42062">
        <ele>272.19</ele>
        <time>2022-11-18T08:28:02Z</time>
      </trkpt>
      <trkpt lat="45.85713" lon="5.42085">
        <ele>272.67</ele>
        <time>2022-11-18T08:28:16Z</time>
      </trkpt>
      <trkpt lat="45.85715" lon="5.4211">
        <ele>273.63</ele>
        <time>2022-11-18T08:28:31Z</time>
      </trkpt>
      <trkpt lat="45.85716" lon="5.42141">
        <ele>273.63</ele>
        <time>2022-11-18T08:28:48Z</time>
      </trkpt>
      <trkpt lat="45.85716" lon="5.42169">
        <ele>273.63</ele>
        <time>2022-11-18T08:29:05Z</time>
      </trkpt>
      <trkpt lat="45.85715" lon="5.42198">
        <ele>273.63</ele>
        <time>2022-11-18T08:29:24Z</time>
      </trkpt>
      <trkpt lat="45.85713" lon="5.42224">
        <ele>274.11</ele>
        <time>2022-11-18T08:29:40Z</time>
      </trkpt>
      <trkpt lat="45.85716" lon="5.42245">
        <ele>274.11</ele>
        <time>2022-11-18T08:29:53Z</time>
      </trkpt>
      <trkpt lat="45.85719" lon="5.42254">
        <ele>274.59</ele>
        <time>2022-11-18T08:29:59Z</time>
      </trkpt>
      <trkpt lat="45.85729" lon="5.42275">
        <ele>275.07</ele>
        <time>2022-11-18T08:30:17Z</time>
      </trkpt>
      <trkpt lat="45.8573" lon="5.42278">
        <ele>275.07</ele>
        <time>2022-11-18T08:30:19Z</time>
      </trkpt>
      <trkpt lat="45.85732" lon="5.42281">
        <ele>275.07</ele>
        <time>2022-11-18T08:30:21Z</time>
      </trkpt>
      <trkpt lat="45.85733" lon="5.42282">
        <ele>275.07</ele>
        <time>2022-11-18T08:30:22Z</time>
      </trkpt>
      <trkpt lat="45.85739" lon="5.42304">
        <ele>276.04</ele>
        <time>2022-11-18T08:30:37Z</time>
      </trkpt>
      <trkpt lat="45.85741" lon="5.42316">
        <ele>276.04</ele>
        <time>2022-11-18T08:30:45Z</time>
      </trkpt>
      <trkpt lat="45.85741" lon="5.42318">
        <ele>276.04</ele>
        <time>2022-11-18T08:30:46Z</time>
      </trkpt>
      <trkpt lat="45.8574" lon="5.42342">
        <ele>277</ele>
        <time>2022-11-18T08:31:02Z</time>
      </trkpt>
      <trkpt lat="45.85739" lon="5.42352">
        <ele>277</ele>
        <time>2022-11-18T08:31:08Z</time>
      </trkpt>
      <trkpt lat="45.85738" lon="5.42354">
        <ele>277</ele>
        <time>2022-11-18T08:31:09Z</time>
      </trkpt>
      <trkpt lat="45.85734" lon="5.42368">
        <ele>277.48</ele>
        <time>2022-11-18T08:31:19Z</time>
      </trkpt>
      <trkpt lat="45.85733" lon="5.4237">
        <ele>277.48</ele>
        <time>2022-11-18T08:31:20Z</time>
      </trkpt>
      <trkpt lat="45.85732" lon="5.42371">
        <ele>277.48</ele>
        <time>2022-11-18T08:31:21Z</time>
      </trkpt>
      <trkpt lat="45.85732" lon="5.42373">
        <ele>277.48</ele>
        <time>2022-11-18T08:31:22Z</time>
      </trkpt>
      <trkpt lat="45.85722" lon="5.42399">
        <ele>278.44</ele>
        <time>2022-11-18T08:31:40Z</time>
      </trkpt>
      <trkpt lat="45.8572" lon="5.42422">
        <ele>278.92</ele>
        <time>2022-11-18T08:31:54Z</time>
      </trkpt>
      <trkpt lat="45.85718" lon="5.42455">
        <ele>279.4</ele>
        <time>2022-11-18T08:32:12Z</time>
      </trkpt>
      <trkpt lat="45.85717" lon="5.42458">
        <ele>279.4</ele>
        <time>2022-11-18T08:32:14Z</time>
      </trkpt>
      <trkpt lat="45.85717" lon="5.4246">
        <ele>279.4</ele>
        <time>2022-11-18T08:32:15Z</time>
      </trkpt>
      <trkpt lat="45.85717" lon="5.42462">
        <ele>279.4</ele>
        <time>2022-11-18T08:32:16Z</time>
      </trkpt>
      <trkpt lat="45.85716" lon="5.42464">
        <ele>279.4</ele>
        <time>2022-11-18T08:32:17Z</time>
      </trkpt>
      <trkpt lat="45.85716" lon="5.42466">
        <ele>279.4</ele>
        <time>2022-11-18T08:32:18Z</time>
      </trkpt>
      <trkpt lat="45.85716" lon="5.42469">
        <ele>279.4</ele>
        <time>2022-11-18T08:32:20Z</time>
      </trkpt>
      <trkpt lat="45.85716" lon="5.42471">
        <ele>279.4</ele>
        <time>2022-11-18T08:32:21Z</time>
      </trkpt>
      <trkpt lat="45.85715" lon="5.425">
        <ele>279.88</ele>
        <time>2022-11-18T08:32:39Z</time>
      </trkpt>
      <trkpt lat="45.85716" lon="5.42524">
        <ele>280.36</ele>
        <time>2022-11-18T08:32:54Z</time>
      </trkpt>
      <trkpt lat="45.85716" lon="5.42548">
        <ele>280.36</ele>
        <time>2022-11-18T08:33:08Z</time>
      </trkpt>
      <trkpt lat="45.85717" lon="5.42563">
        <ele>280.84</ele>
        <time>2022-11-18T08:33:19Z</time>
      </trkpt>
      <trkpt lat="45.85717" lon="5.42575">
        <ele>281.32</ele>
        <time>2022-11-18T08:33:27Z</time>
      </trkpt>
      <trkpt lat="45.85716" lon="5.42584">
        <ele>281.8</ele>
        <time>2022-11-18T08:33:42Z</time>
      </trkpt>
      <trkpt lat="45.85719" lon="5.42604">
        <ele>282.28</ele>
        <time>2022-11-18T08:33:58Z</time>
      </trkpt>
      <trkpt lat="45.85724" lon="5.42627">
        <ele>282.77</ele>
        <time>2022-11-18T08:34:14Z</time>
      </trkpt>
      <trkpt lat="45.85727" lon="5.42649">
        <ele>283.73</ele>
        <time>2022-11-18T08:34:29Z</time>
      </trkpt>
      <trkpt lat="45.85729" lon="5.42663">
        <ele>284.21</ele>
        <time>2022-11-18T08:34:38Z</time>
      </trkpt>
      <trkpt lat="45.85733" lon="5.42682">
        <ele>284.69</ele>
        <time>2022-11-18T08:34:50Z</time>
      </trkpt>
      <trkpt lat="45.85734" lon="5.42696">
        <ele>285.17</ele>
        <time>2022-11-18T08:34:59Z</time>
      </trkpt>
      <trkpt lat="45.85735" lon="5.42698">
        <ele>285.17</ele>
        <time>2022-11-18T08:35:00Z</time>
      </trkpt>
      <trkpt lat="45.8574" lon="5.42713">
        <ele>285.65</ele>
        <time>2022-11-18T08:35:12Z</time>
      </trkpt>
      <trkpt lat="45.8574" lon="5.42715">
        <ele>285.65</ele>
        <time>2022-11-18T08:35:13Z</time>
      </trkpt>
      <trkpt lat="45.85746" lon="5.42733">
        <ele>286.13</ele>
        <time>2022-11-18T08:35:26Z</time>
      </trkpt>
      <trkpt lat="45.85747" lon="5.42746">
        <ele>286.61</ele>
        <time>2022-11-18T08:35:34Z</time>
      </trkpt>
      <trkpt lat="45.85752" lon="5.42768">
        <ele>286.61</ele>
        <time>2022-11-18T08:35:47Z</time>
      </trkpt>
      <trkpt lat="45.85752" lon="5.4277">
        <ele>286.61</ele>
        <time>2022-11-18T08:35:48Z</time>
      </trkpt>
      <trkpt lat="45.85753" lon="5.42794">
        <ele>286.61</ele>
        <time>2022-11-18T08:36:02Z</time>
      </trkpt>
      <trkpt lat="45.85754" lon="5.42796">
        <ele>286.61</ele>
        <time>2022-11-18T08:36:03Z</time>
      </trkpt>
      <trkpt lat="45.85756" lon="5.42818">
        <ele>287.09</ele>
        <time>2022-11-18T08:36:16Z</time>
      </trkpt>
      <trkpt lat="45.85758" lon="5.42825">
        <ele>287.09</ele>
        <time>2022-11-18T08:36:21Z</time>
      </trkpt>
      <trkpt lat="45.85762" lon="5.42848">
        <ele>287.09</ele>
        <time>2022-11-18T08:36:36Z</time>
      </trkpt>
      <trkpt lat="45.85763" lon="5.42858">
        <ele>287.57</ele>
        <time>2022-11-18T08:36:43Z</time>
      </trkpt>
      <trkpt lat="45.85769" lon="5.42878">
        <ele>287.57</ele>
        <time>2022-11-18T08:36:56Z</time>
      </trkpt>
      <trkpt lat="45.85773" lon="5.42887">
        <ele>287.57</ele>
        <time>2022-11-18T08:37:11Z</time>
      </trkpt>
      <trkpt lat="45.85769" lon="5.42897">
        <ele>287.09</ele>
        <time>2022-11-18T08:37:24Z</time>
      </trkpt>
      <trkpt lat="45.85766" lon="5.42905">
        <ele>287.09</ele>
        <time>2022-11-18T08:37:30Z</time>
      </trkpt>
      <trkpt lat="45.85766" lon="5.42907">
        <ele>287.09</ele>
        <time>2022-11-18T08:37:31Z</time>
      </trkpt>
      <trkpt lat="45.85764" lon="5.42915">
        <ele>286.61</ele>
        <time>2022-11-18T08:37:42Z</time>
      </trkpt>
      <trkpt lat="45.85764" lon="5.42917">
        <ele>286.61</ele>
        <time>2022-11-18T08:37:58Z</time>
      </trkpt>
      <trkpt lat="45.8576" lon="5.42922">
        <ele>286.61</ele>
        <time>2022-11-18T08:38:07Z</time>
      </trkpt>
      <trkpt lat="45.8576" lon="5.42923">
        <ele>286.61</ele>
        <time>2022-11-18T08:38:08Z</time>
      </trkpt>
      <trkpt lat="45.8576" lon="5.42925">
        <ele>286.61</ele>
        <time>2022-11-18T08:38:09Z</time>
      </trkpt>
      <trkpt lat="45.85751" lon="5.42943">
        <ele>286.13</ele>
        <time>2022-11-18T08:38:22Z</time>
      </trkpt>
      <trkpt lat="45.85742" lon="5.42963">
        <ele>285.65</ele>
        <time>2022-11-18T08:38:42Z</time>
      </trkpt>
      <trkpt lat="45.85742" lon="5.42965">
        <ele>285.65</ele>
        <time>2022-11-18T08:38:43Z</time>
      </trkpt>
      <trkpt lat="45.85738" lon="5.42983">
        <ele>285.17</ele>
        <time>2022-11-18T08:38:57Z</time>
      </trkpt>
      <trkpt lat="45.85735" lon="5.4301">
        <ele>284.69</ele>
        <time>2022-11-18T08:39:13Z</time>
      </trkpt>
      <trkpt lat="45.85735" lon="5.43012">
        <ele>284.69</ele>
        <time>2022-11-18T08:39:14Z</time>
      </trkpt>
      <trkpt lat="45.85734" lon="5.43025">
        <ele>283.73</ele>
        <time>2022-11-18T08:39:22Z</time>
      </trkpt>
      <trkpt lat="45.85734" lon="5.43027">
        <ele>283.73</ele>
        <time>2022-11-18T08:39:23Z</time>
      </trkpt>
      <trkpt lat="45.85731" lon="5.43037">
        <ele>283.25</ele>
        <time>2022-11-18T08:39:31Z</time>
      </trkpt>
      <trkpt lat="45.8573" lon="5.43039">
        <ele>283.25</ele>
        <time>2022-11-18T08:39:32Z</time>
      </trkpt>
      <trkpt lat="45.85721" lon="5.43056">
        <ele>282.77</ele>
        <time>2022-11-18T08:39:45Z</time>
      </trkpt>
      <trkpt lat="45.8572" lon="5.43057">
        <ele>282.77</ele>
        <time>2022-11-18T08:39:46Z</time>
      </trkpt>
      <trkpt lat="45.85711" lon="5.43071">
        <ele>281.8</ele>
        <time>2022-11-18T08:40:00Z</time>
      </trkpt>
      <trkpt lat="45.85701" lon="5.43087">
        <ele>280.36</ele>
        <time>2022-11-18T08:40:16Z</time>
      </trkpt>
      <trkpt lat="45.857" lon="5.43088">
        <ele>280.36</ele>
        <time>2022-11-18T08:40:17Z</time>
      </trkpt>
      <trkpt lat="45.85693" lon="5.43101">
        <ele>279.88</ele>
        <time>2022-11-18T08:40:27Z</time>
      </trkpt>
      <trkpt lat="45.85692" lon="5.43102">
        <ele>279.4</ele>
        <time>2022-11-18T08:40:28Z</time>
      </trkpt>
      <trkpt lat="45.85681" lon="5.43119">
        <ele>278.92</ele>
        <time>2022-11-18T08:40:42Z</time>
      </trkpt>
      <trkpt lat="45.85673" lon="5.43129">
        <ele>277.96</ele>
        <time>2022-11-18T08:40:53Z</time>
      </trkpt>
      <trkpt lat="45.85658" lon="5.43139">
        <ele>277</ele>
        <time>2022-11-18T08:41:07Z</time>
      </trkpt>
      <trkpt lat="45.85644" lon="5.43149">
        <ele>277</ele>
        <time>2022-11-18T08:41:21Z</time>
      </trkpt>
      <trkpt lat="45.85628" lon="5.43159">
        <ele>276.04</ele>
        <time>2022-11-18T08:41:37Z</time>
      </trkpt>
      <trkpt lat="45.85624" lon="5.43175">
        <ele>276.04</ele>
        <time>2022-11-18T08:41:48Z</time>
      </trkpt>
      <trkpt lat="45.85625" lon="5.43184">
        <ele>276.04</ele>
        <time>2022-11-18T08:41:55Z</time>
      </trkpt>
      <trkpt lat="45.85625" lon="5.43186">
        <ele>276.04</ele>
        <time>2022-11-18T08:41:56Z</time>
      </trkpt>
      <trkpt lat="45.85625" lon="5.43188">
        <ele>276.04</ele>
        <time>2022-11-18T08:41:57Z</time>
      </trkpt>
      <trkpt lat="45.85625" lon="5.43191">
        <ele>276.04</ele>
        <time>2022-11-18T08:41:58Z</time>
      </trkpt>
      <trkpt lat="45.85625" lon="5.43193">
        <ele>275.56</ele>
        <time>2022-11-18T08:41:59Z</time>
      </trkpt>
      <trkpt lat="45.85626" lon="5.4322">
        <ele>275.56</ele>
        <time>2022-11-18T08:42:15Z</time>
      </trkpt>
      <trkpt lat="45.85621" lon="5.43247">
        <ele>275.07</ele>
        <time>2022-11-18T08:42:31Z</time>
      </trkpt>
      <trkpt lat="45.85616" lon="5.43271">
        <ele>274.59</ele>
        <time>2022-11-18T08:42:45Z</time>
      </trkpt>
      <trkpt lat="45.8561" lon="5.43294">
        <ele>274.11</ele>
        <time>2022-11-18T08:43:02Z</time>
      </trkpt>
      <trkpt lat="45.85609" lon="5.43307">
        <ele>273.63</ele>
        <time>2022-11-18T08:43:17Z</time>
      </trkpt>
      <trkpt lat="45.85609" lon="5.43309">
        <ele>273.63</ele>
        <time>2022-11-18T08:43:36Z</time>
      </trkpt>
      <trkpt lat="45.85607" lon="5.43312">
        <ele>273.15</ele>
        <time>2022-11-18T08:44:00Z</time>
      </trkpt>
      <trkpt lat="45.85606" lon="5.43316">
        <ele>273.15</ele>
        <time>2022-11-18T08:44:24Z</time>
      </trkpt>
      <trkpt lat="45.85607" lon="5.43318">
        <ele>273.15</ele>
        <time>2022-11-18T08:44:48Z</time>
      </trkpt>
      <trkpt lat="45.85608" lon="5.43318">
        <ele>273.15</ele>
        <time>2022-11-18T08:45:12Z</time>
      </trkpt>
      <trkpt lat="45.85608" lon="5.43316">
        <ele>273.15</ele>
        <time>2022-11-18T08:45:35Z</time>
      </trkpt>
      <trkpt lat="45.85607" lon="5.43316">
        <ele>273.15</ele>
        <time>2022-11-18T08:45:56Z</time>
      </trkpt>
      <trkpt lat="45.8561" lon="5.43317">
        <ele>273.15</ele>
        <time>2022-11-18T08:46:22Z</time>
      </trkpt>
      <trkpt lat="45.85621" lon="5.43331">
        <ele>274.11</ele>
        <time>2022-11-18T08:46:38Z</time>
      </trkpt>
      <trkpt lat="45.85627" lon="5.43344">
        <ele>275.56</ele>
        <time>2022-11-18T08:46:50Z</time>
      </trkpt>
      <trkpt lat="45.8563" lon="5.43347">
        <ele>275.56</ele>
        <time>2022-11-18T08:46:53Z</time>
      </trkpt>
      <trkpt lat="45.85639" lon="5.43354">
        <ele>276.52</ele>
        <time>2022-11-18T08:47:04Z</time>
      </trkpt>
      <trkpt lat="45.8564" lon="5.43355">
        <ele>277</ele>
        <time>2022-11-18T08:47:05Z</time>
      </trkpt>
      <trkpt lat="45.85642" lon="5.43357">
        <ele>277</ele>
        <time>2022-11-18T08:47:07Z</time>
      </trkpt>
      <trkpt lat="45.85645" lon="5.43361">
        <ele>277.48</ele>
        <time>2022-11-18T08:47:12Z</time>
      </trkpt>
      <trkpt lat="45.85647" lon="5.43363">
        <ele>277.48</ele>
        <time>2022-11-18T08:47:14Z</time>
      </trkpt>
      <trkpt lat="45.85648" lon="5.43364">
        <ele>277.48</ele>
        <time>2022-11-18T08:47:15Z</time>
      </trkpt>
      <trkpt lat="45.85651" lon="5.43365">
        <ele>277.96</ele>
        <time>2022-11-18T08:47:18Z</time>
      </trkpt>
      <trkpt lat="45.85661" lon="5.43365">
        <ele>278.92</ele>
        <time>2022-11-18T08:47:30Z</time>
      </trkpt>
      <trkpt lat="45.85675" lon="5.4337">
        <ele>280.36</ele>
        <time>2022-11-18T08:47:45Z</time>
      </trkpt>
      <trkpt lat="45.85677" lon="5.43371">
        <ele>280.36</ele>
        <time>2022-11-18T08:47:46Z</time>
      </trkpt>
      <trkpt lat="45.8569" lon="5.43377">
        <ele>281.8</ele>
        <time>2022-11-18T08:48:02Z</time>
      </trkpt>
      <trkpt lat="45.85706" lon="5.43397">
        <ele>283.25</ele>
        <time>2022-11-18T08:48:23Z</time>
      </trkpt>
      <trkpt lat="45.8571" lon="5.43403">
        <ele>283.73</ele>
        <time>2022-11-18T08:48:28Z</time>
      </trkpt>
      <trkpt lat="45.85711" lon="5.43405">
        <ele>283.73</ele>
        <time>2022-11-18T08:48:30Z</time>
      </trkpt>
      <trkpt lat="45.85718" lon="5.4342">
        <ele>285.17</ele>
        <time>2022-11-18T08:48:48Z</time>
      </trkpt>
      <trkpt lat="45.85729" lon="5.43429">
        <ele>287.57</ele>
        <time>2022-11-18T08:49:06Z</time>
      </trkpt>
      <trkpt lat="45.85738" lon="5.43435">
        <ele>289.97</ele>
        <time>2022-11-18T08:49:23Z</time>
      </trkpt>
      <trkpt lat="45.85738" lon="5.43449">
        <ele>292.38</ele>
        <time>2022-11-18T08:49:46Z</time>
      </trkpt>
      <trkpt lat="45.85733" lon="5.43465">
        <ele>293.82</ele>
        <time>2022-11-18T08:50:01Z</time>
      </trkpt>
      <trkpt lat="45.85736" lon="5.43477">
        <ele>295.74</ele>
        <time>2022-11-18T08:50:16Z</time>
      </trkpt>
      <trkpt lat="45.85742" lon="5.43491">
        <ele>297.18</ele>
        <time>2022-11-18T08:50:30Z</time>
      </trkpt>
      <trkpt lat="45.85743" lon="5.43505">
        <ele>299.11</ele>
        <time>2022-11-18T08:50:43Z</time>
      </trkpt>
      <trkpt lat="45.85748" lon="5.43517">
        <ele>301.03</ele>
        <time>2022-11-18T08:50:59Z</time>
      </trkpt>
      <trkpt lat="45.85753" lon="5.43531">
        <ele>302.95</ele>
        <time>2022-11-18T08:51:14Z</time>
      </trkpt>
      <trkpt lat="45.85758" lon="5.43546">
        <ele>304.88</ele>
        <time>2022-11-18T08:51:31Z</time>
      </trkpt>
      <trkpt lat="45.85765" lon="5.43564">
        <ele>307.28</ele>
        <time>2022-11-18T08:51:48Z</time>
      </trkpt>
      <trkpt lat="45.8577" lon="5.43573">
        <ele>308.72</ele>
        <time>2022-11-18T08:52:00Z</time>
      </trkpt>
      <trkpt lat="45.85781" lon="5.43589">
        <ele>311.12</ele>
        <time>2022-11-18T08:52:19Z</time>
      </trkpt>
      <trkpt lat="45.8579" lon="5.43606">
        <ele>313.53</ele>
        <time>2022-11-18T08:52:39Z</time>
      </trkpt>
      <trkpt lat="45.858" lon="5.43621">
        <ele>315.45</ele>
        <time>2022-11-18T08:52:57Z</time>
      </trkpt>
      <trkpt lat="45.85808" lon="5.43636">
        <ele>317.85</ele>
        <time>2022-11-18T08:53:13Z</time>
      </trkpt>
      <trkpt lat="45.85815" lon="5.43649">
        <ele>319.78</ele>
        <time>2022-11-18T08:53:30Z</time>
      </trkpt>
      <trkpt lat="45.85823" lon="5.43664">
        <ele>322.18</ele>
        <time>2022-11-18T08:53:46Z</time>
      </trkpt>
      <trkpt lat="45.85827" lon="5.4368">
        <ele>324.1</ele>
        <time>2022-11-18T08:54:05Z</time>
      </trkpt>
      <trkpt lat="45.85834" lon="5.43696">
        <ele>326.5</ele>
        <time>2022-11-18T08:54:24Z</time>
      </trkpt>
      <trkpt lat="45.85844" lon="5.43708">
        <ele>328.91</ele>
        <time>2022-11-18T08:54:46Z</time>
      </trkpt>
      <trkpt lat="45.85852" lon="5.4372">
        <ele>331.31</ele>
        <time>2022-11-18T08:55:03Z</time>
      </trkpt>
      <trkpt lat="45.85864" lon="5.43723">
        <ele>333.71</ele>
        <time>2022-11-18T08:55:25Z</time>
      </trkpt>
      <trkpt lat="45.85879" lon="5.43733">
        <ele>336.12</ele>
        <time>2022-11-18T08:55:48Z</time>
      </trkpt>
      <trkpt lat="45.8589" lon="5.43742">
        <ele>338.52</ele>
        <time>2022-11-18T08:56:06Z</time>
      </trkpt>
      <trkpt lat="45.85902" lon="5.4375">
        <ele>340.44</ele>
        <time>2022-11-18T08:56:25Z</time>
      </trkpt>
      <trkpt lat="45.85911" lon="5.43758">
        <ele>343.33</ele>
        <time>2022-11-18T08:56:43Z</time>
      </trkpt>
      <trkpt lat="45.85924" lon="5.43764">
        <ele>345.25</ele>
        <time>2022-11-18T08:57:01Z</time>
      </trkpt>
      <trkpt lat="45.85933" lon="5.43767">
        <ele>348.13</ele>
        <time>2022-11-18T08:57:20Z</time>
      </trkpt>
      <trkpt lat="45.85944" lon="5.43766">
        <ele>350.54</ele>
        <time>2022-11-18T08:57:38Z</time>
      </trkpt>
      <trkpt lat="45.85955" lon="5.43766">
        <ele>353.42</ele>
        <time>2022-11-18T08:57:57Z</time>
      </trkpt>
      <trkpt lat="45.85965" lon="5.43763">
        <ele>356.31</ele>
        <time>2022-11-18T08:58:16Z</time>
      </trkpt>
      <trkpt lat="45.85979" lon="5.43757">
        <ele>358.71</ele>
        <time>2022-11-18T08:58:34Z</time>
      </trkpt>
      <trkpt lat="45.85989" lon="5.43748">
        <ele>361.11</ele>
        <time>2022-11-18T08:58:52Z</time>
      </trkpt>
      <trkpt lat="45.85995" lon="5.43732">
        <ele>362.55</ele>
        <time>2022-11-18T08:59:10Z</time>
      </trkpt>
      <trkpt lat="45.85999" lon="5.43722">
        <ele>364</ele>
        <time>2022-11-18T08:59:28Z</time>
      </trkpt>
      <trkpt lat="45.86002" lon="5.43711">
        <ele>364.96</ele>
        <time>2022-11-18T08:59:44Z</time>
      </trkpt>
      <trkpt lat="45.86007" lon="5.437">
        <ele>365.44</ele>
        <time>2022-11-18T09:00:02Z</time>
      </trkpt>
      <trkpt lat="45.86012" lon="5.437">
        <ele>366.4</ele>
        <time>2022-11-18T09:00:25Z</time>
      </trkpt>
      <trkpt lat="45.86014" lon="5.43702">
        <ele>366.4</ele>
        <time>2022-11-18T09:00:48Z</time>
      </trkpt>
      <trkpt lat="45.86015" lon="5.43698">
        <ele>366.4</ele>
        <time>2022-11-18T09:01:12Z</time>
      </trkpt>
      <trkpt lat="45.86018" lon="5.43697">
        <ele>366.4</ele>
        <time>2022-11-18T09:01:32Z</time>
      </trkpt>
      <trkpt lat="45.86015" lon="5.43694">
        <ele>366.4</ele>
        <time>2022-11-18T09:01:57Z</time>
      </trkpt>
      <trkpt lat="45.86015" lon="5.43692">
        <ele>366.4</ele>
        <time>2022-11-18T09:02:23Z</time>
      </trkpt>
      <trkpt lat="45.86017" lon="5.43694">
        <ele>366.4</ele>
        <time>2022-11-18T09:02:47Z</time>
      </trkpt>
      <trkpt lat="45.86015" lon="5.43692">
        <ele>366.4</ele>
        <time>2022-11-18T09:03:12Z</time>
      </trkpt>
      <trkpt lat="45.86015" lon="5.43689">
        <ele>366.4</ele>
        <time>2022-11-18T09:03:31Z</time>
      </trkpt>
      <trkpt lat="45.86011" lon="5.43689">
        <ele>366.4</ele>
        <time>2022-11-18T09:03:51Z</time>
      </trkpt>
      <trkpt lat="45.86003" lon="5.43682">
        <ele>366.4</ele>
        <time>2022-11-18T09:04:11Z</time>
      </trkpt>
      <trkpt lat="45.85992" lon="5.43677">
        <ele>366.4</ele>
        <time>2022-11-18T09:04:33Z</time>
      </trkpt>
      <trkpt lat="45.85991" lon="5.43676">
        <ele>372.65</ele>
        <time>2022-11-18T09:04:34Z</time>
      </trkpt>
      <trkpt lat="45.85981" lon="5.43666">
        <ele>376.01</ele>
        <time>2022-11-18T09:04:57Z</time>
      </trkpt>
      <trkpt lat="45.8598" lon="5.43654">
        <ele>378.42</ele>
        <time>2022-11-18T09:05:16Z</time>
      </trkpt>
      <trkpt lat="45.85987" lon="5.43648">
        <ele>381.78</ele>
        <time>2022-11-18T09:05:35Z</time>
      </trkpt>
      <trkpt lat="45.85995" lon="5.43643">
        <ele>384.18</ele>
        <time>2022-11-18T09:05:55Z</time>
      </trkpt>
      <trkpt lat="45.86003" lon="5.43635">
        <ele>387.07</ele>
        <time>2022-11-18T09:06:16Z</time>
      </trkpt>
      <trkpt lat="45.86006" lon="5.43623">
        <ele>389.95</ele>
        <time>2022-11-18T09:06:34Z</time>
      </trkpt>
      <trkpt lat="45.86" lon="5.43617">
        <ele>392.84</ele>
        <time>2022-11-18T09:06:52Z</time>
      </trkpt>
      <trkpt lat="45.85994" lon="5.43613">
        <ele>395.24</ele>
        <time>2022-11-18T09:07:10Z</time>
      </trkpt>
      <trkpt lat="45.85987" lon="5.43608">
        <ele>397.16</ele>
        <time>2022-11-18T09:07:23Z</time>
      </trkpt>
      <trkpt lat="45.85977" lon="5.43597">
        <ele>400.05</ele>
        <time>2022-11-18T09:07:42Z</time>
      </trkpt>
      <trkpt lat="45.85972" lon="5.4359">
        <ele>402.93</ele>
        <time>2022-11-18T09:08:01Z</time>
      </trkpt>
      <trkpt lat="45.85971" lon="5.4359">
        <ele>403.89</ele>
        <time>2022-11-18T09:08:54Z</time>
      </trkpt>
      <trkpt lat="45.85973" lon="5.4359">
        <ele>403.89</ele>
        <time>2022-11-18T09:09:20Z</time>
      </trkpt>
      <trkpt lat="45.85976" lon="5.43573">
        <ele>405.81</ele>
        <time>2022-11-18T09:09:37Z</time>
      </trkpt>
      <trkpt lat="45.85976" lon="5.43569">
        <ele>406.77</ele>
        <time>2022-11-18T09:09:43Z</time>
      </trkpt>
      <trkpt lat="45.85978" lon="5.43555">
        <ele>408.7</ele>
        <time>2022-11-18T09:09:56Z</time>
      </trkpt>
      <trkpt lat="45.85983" lon="5.43539">
        <ele>410.62</ele>
        <time>2022-11-18T09:10:11Z</time>
      </trkpt>
      <trkpt lat="45.85984" lon="5.43525">
        <ele>412.06</ele>
        <time>2022-11-18T09:10:26Z</time>
      </trkpt>
      <trkpt lat="45.85988" lon="5.4351">
        <ele>413.98</ele>
        <time>2022-11-18T09:10:43Z</time>
      </trkpt>
      <trkpt lat="45.85994" lon="5.4349">
        <ele>416.39</ele>
        <time>2022-11-18T09:11:03Z</time>
      </trkpt>
      <trkpt lat="45.85996" lon="5.43474">
        <ele>418.31</ele>
        <time>2022-11-18T09:11:18Z</time>
      </trkpt>
      <trkpt lat="45.85997" lon="5.43455">
        <ele>421.19</ele>
        <time>2022-11-18T09:11:42Z</time>
      </trkpt>
      <trkpt lat="45.85998" lon="5.43439">
        <ele>423.12</ele>
        <time>2022-11-18T09:11:56Z</time>
      </trkpt>
      <trkpt lat="45.86001" lon="5.43424">
        <ele>424.56</ele>
        <time>2022-11-18T09:12:10Z</time>
      </trkpt>
      <trkpt lat="45.86004" lon="5.43413">
        <ele>426</ele>
        <time>2022-11-18T09:12:27Z</time>
      </trkpt>
      <trkpt lat="45.86006" lon="5.434">
        <ele>427.92</ele>
        <time>2022-11-18T09:12:44Z</time>
      </trkpt>
      <trkpt lat="45.86007" lon="5.43392">
        <ele>428.4</ele>
        <time>2022-11-18T09:13:03Z</time>
      </trkpt>
      <trkpt lat="45.86011" lon="5.43372">
        <ele>429.85</ele>
        <time>2022-11-18T09:13:26Z</time>
      </trkpt>
      <trkpt lat="45.86014" lon="5.43355">
        <ele>431.77</ele>
        <time>2022-11-18T09:13:42Z</time>
      </trkpt>
      <trkpt lat="45.86014" lon="5.43353">
        <ele>431.77</ele>
        <time>2022-11-18T09:13:43Z</time>
      </trkpt>
      <trkpt lat="45.86017" lon="5.43339">
        <ele>431.77</ele>
        <time>2022-11-18T09:13:54Z</time>
      </trkpt>
      <trkpt lat="45.86022" lon="5.4332">
        <ele>433.21</ele>
        <time>2022-11-18T09:14:09Z</time>
      </trkpt>
      <trkpt lat="45.86026" lon="5.43305">
        <ele>434.65</ele>
        <time>2022-11-18T09:14:29Z</time>
      </trkpt>
      <trkpt lat="45.86032" lon="5.43282">
        <ele>435.61</ele>
        <time>2022-11-18T09:14:47Z</time>
      </trkpt>
      <trkpt lat="45.86037" lon="5.43273">
        <ele>438.98</ele>
        <time>2022-11-18T09:15:05Z</time>
      </trkpt>
      <trkpt lat="45.86042" lon="5.43275">
        <ele>440.9</ele>
        <time>2022-11-18T09:15:31Z</time>
      </trkpt>
      <trkpt lat="45.86045" lon="5.43272">
        <ele>443.31</ele>
        <time>2022-11-18T09:15:54Z</time>
      </trkpt>
      <trkpt lat="45.8605" lon="5.43271">
        <ele>446.19</ele>
        <time>2022-11-18T09:16:20Z</time>
      </trkpt>
      <trkpt lat="45.86052" lon="5.43277">
        <ele>448.59</ele>
        <time>2022-11-18T09:16:42Z</time>
      </trkpt>
      <trkpt lat="45.86055" lon="5.43278">
        <ele>450.52</ele>
        <time>2022-11-18T09:17:03Z</time>
      </trkpt>
      <trkpt lat="45.86057" lon="5.4328">
        <ele>451.96</ele>
        <time>2022-11-18T09:17:26Z</time>
      </trkpt>
      <trkpt lat="45.86064" lon="5.43267">
        <ele>454.36</ele>
        <time>2022-11-18T09:17:46Z</time>
      </trkpt>
      <trkpt lat="45.86071" lon="5.43253">
        <ele>457.72</ele>
        <time>2022-11-18T09:18:06Z</time>
      </trkpt>
      <trkpt lat="45.86074" lon="5.43257">
        <ele>460.61</ele>
        <time>2022-11-18T09:18:24Z</time>
      </trkpt>
      <trkpt lat="45.8608" lon="5.43252">
        <ele>463.49</ele>
        <time>2022-11-18T09:18:43Z</time>
      </trkpt>
      <trkpt lat="45.86079" lon="5.43249">
        <ele>463.97</ele>
        <time>2022-11-18T09:19:03Z</time>
      </trkpt>
      <trkpt lat="45.8608" lon="5.43247">
        <ele>463.97</ele>
        <time>2022-11-18T09:19:31Z</time>
      </trkpt>
      <trkpt lat="45.86079" lon="5.4325">
        <ele>463.97</ele>
        <time>2022-11-18T09:19:55Z</time>
      </trkpt>
      <trkpt lat="45.86077" lon="5.4325">
        <ele>464.45</ele>
        <time>2022-11-18T09:20:23Z</time>
      </trkpt>
      <trkpt lat="45.86077" lon="5.43249">
        <ele>469.26</ele>
        <time>2022-11-18T09:20:25Z</time>
      </trkpt>
      <trkpt lat="45.86076" lon="5.43249">
        <ele>466.86</ele>
        <time>2022-11-18T09:20:26Z</time>
      </trkpt>
      <trkpt lat="45.86075" lon="5.43249">
        <ele>464.45</ele>
        <time>2022-11-18T09:20:46Z</time>
      </trkpt>
      <trkpt lat="45.86073" lon="5.43247">
        <ele>464.45</ele>
        <time>2022-11-18T09:21:22Z</time>
      </trkpt>
      <trkpt lat="45.86074" lon="5.43248">
        <ele>464.45</ele>
        <time>2022-11-18T09:21:51Z</time>
      </trkpt>
      <trkpt lat="45.86078" lon="5.4325">
        <ele>464.45</ele>
        <time>2022-11-18T09:22:17Z</time>
      </trkpt>
      <trkpt lat="45.86082" lon="5.43229">
        <ele>464.45</ele>
        <time>2022-11-18T09:22:35Z</time>
      </trkpt>
      <trkpt lat="45.86087" lon="5.4321">
        <ele>464.45</ele>
        <time>2022-11-18T09:22:52Z</time>
      </trkpt>
      <trkpt lat="45.86088" lon="5.43188">
        <ele>464.45</ele>
        <time>2022-11-18T09:23:10Z</time>
      </trkpt>
      <trkpt lat="45.86086" lon="5.43179">
        <ele>464.45</ele>
        <time>2022-11-18T09:23:19Z</time>
      </trkpt>
      <trkpt lat="45.86088" lon="5.43158">
        <ele>464.45</ele>
        <time>2022-11-18T09:23:35Z</time>
      </trkpt>
      <trkpt lat="45.86095" lon="5.43144">
        <ele>464.45</ele>
        <time>2022-11-18T09:23:52Z</time>
      </trkpt>
      <trkpt lat="45.86102" lon="5.43124">
        <ele>464.45</ele>
        <time>2022-11-18T09:24:13Z</time>
      </trkpt>
      <trkpt lat="45.86107" lon="5.43109">
        <ele>473.59</ele>
        <time>2022-11-18T09:24:30Z</time>
      </trkpt>
      <trkpt lat="45.86107" lon="5.43108">
        <ele>473.59</ele>
        <time>2022-11-18T09:24:31Z</time>
      </trkpt>
      <trkpt lat="45.86112" lon="5.43092">
        <ele>474.07</ele>
        <time>2022-11-18T09:24:52Z</time>
      </trkpt>
      <trkpt lat="45.86116" lon="5.43074">
        <ele>475.51</ele>
        <time>2022-11-18T09:25:16Z</time>
      </trkpt>
      <trkpt lat="45.86115" lon="5.43047">
        <ele>475.99</ele>
        <time>2022-11-18T09:25:39Z</time>
      </trkpt>
      <trkpt lat="45.86118" lon="5.43024">
        <ele>476.95</ele>
        <time>2022-11-18T09:25:57Z</time>
      </trkpt>
      <trkpt lat="45.8612" lon="5.43005">
        <ele>478.39</ele>
        <time>2022-11-18T09:26:16Z</time>
      </trkpt>
      <trkpt lat="45.86126" lon="5.42986">
        <ele>480.32</ele>
        <time>2022-11-18T09:26:36Z</time>
      </trkpt>
      <trkpt lat="45.86132" lon="5.4296">
        <ele>483.2</ele>
        <time>2022-11-18T09:26:56Z</time>
      </trkpt>
      <trkpt lat="45.86137" lon="5.42943">
        <ele>485.12</ele>
        <time>2022-11-18T09:27:14Z</time>
      </trkpt>
      <trkpt lat="45.86142" lon="5.42923">
        <ele>487.53</ele>
        <time>2022-11-18T09:27:32Z</time>
      </trkpt>
      <trkpt lat="45.86151" lon="5.42903">
        <ele>489.93</ele>
        <time>2022-11-18T09:27:50Z</time>
      </trkpt>
      <trkpt lat="45.86164" lon="5.42897">
        <ele>491.85</ele>
        <time>2022-11-18T09:28:08Z</time>
      </trkpt>
      <trkpt lat="45.86169" lon="5.42913">
        <ele>495.22</ele>
        <time>2022-11-18T09:28:29Z</time>
      </trkpt>
      <trkpt lat="45.86163" lon="5.42922">
        <ele>496.66</ele>
        <time>2022-11-18T09:28:39Z</time>
      </trkpt>
      <trkpt lat="45.86157" lon="5.42936">
        <ele>498.1</ele>
        <time>2022-11-18T09:28:55Z</time>
      </trkpt>
      <trkpt lat="45.86163" lon="5.42958">
        <ele>500.98</ele>
        <time>2022-11-18T09:29:16Z</time>
      </trkpt>
      <trkpt lat="45.86167" lon="5.42981">
        <ele>503.39</ele>
        <time>2022-11-18T09:29:35Z</time>
      </trkpt>
      <trkpt lat="45.86177" lon="5.42995">
        <ele>506.75</ele>
        <time>2022-11-18T09:29:56Z</time>
      </trkpt>
      <trkpt lat="45.86192" lon="5.42986">
        <ele>508.19</ele>
        <time>2022-11-18T09:30:13Z</time>
      </trkpt>
      <trkpt lat="45.86208" lon="5.42988">
        <ele>506.75</ele>
        <time>2022-11-18T09:30:31Z</time>
      </trkpt>
      <trkpt lat="45.86225" lon="5.42996">
        <ele>504.83</ele>
        <time>2022-11-18T09:30:50Z</time>
      </trkpt>
      <trkpt lat="45.86243" lon="5.43002">
        <ele>503.39</ele>
        <time>2022-11-18T09:31:08Z</time>
      </trkpt>
      <trkpt lat="45.86258" lon="5.4301">
        <ele>501.95</ele>
        <time>2022-11-18T09:31:25Z</time>
      </trkpt>
      <trkpt lat="45.86278" lon="5.43023">
        <ele>501.46</ele>
        <time>2022-11-18T09:31:45Z</time>
      </trkpt>
      <trkpt lat="45.86297" lon="5.43038">
        <ele>500.98</ele>
        <time>2022-11-18T09:32:04Z</time>
      </trkpt>
      <trkpt lat="45.86309" lon="5.43061">
        <ele>502.43</ele>
        <time>2022-11-18T09:32:24Z</time>
      </trkpt>
      <trkpt lat="45.86325" lon="5.43089">
        <ele>500.02</ele>
        <time>2022-11-18T09:32:47Z</time>
      </trkpt>
      <trkpt lat="45.86336" lon="5.43108">
        <ele>498.1</ele>
        <time>2022-11-18T09:33:04Z</time>
      </trkpt>
      <trkpt lat="45.86337" lon="5.43112">
        <ele>497.62</ele>
        <time>2022-11-18T09:33:31Z</time>
      </trkpt>
      <trkpt lat="45.86338" lon="5.4311">
        <ele>497.62</ele>
        <time>2022-11-18T09:33:53Z</time>
      </trkpt>
      <trkpt lat="45.86338" lon="5.43109">
        <ele>497.14</ele>
        <time>2022-11-18T09:34:21Z</time>
      </trkpt>
      <trkpt lat="45.8634" lon="5.43111">
        <ele>497.14</ele>
        <time>2022-11-18T09:36:14Z</time>
      </trkpt>
      <trkpt lat="45.86339" lon="5.43111">
        <ele>497.14</ele>
        <time>2022-11-18T09:36:48Z</time>
      </trkpt>
      <trkpt lat="45.86338" lon="5.43112">
        <ele>497.14</ele>
        <time>2022-11-18T09:38:03Z</time>
      </trkpt>
      <trkpt lat="45.8634" lon="5.43111">
        <ele>497.14</ele>
        <time>2022-11-18T09:38:54Z</time>
      </trkpt>
      <trkpt lat="45.86341" lon="5.43109">
        <ele>497.14</ele>
        <time>2022-11-18T09:39:18Z</time>
      </trkpt>
      <trkpt lat="45.86346" lon="5.43112">
        <ele>497.14</ele>
        <time>2022-11-18T09:39:40Z</time>
      </trkpt>
      <trkpt lat="45.86354" lon="5.431">
        <ele>497.14</ele>
        <time>2022-11-18T09:39:55Z</time>
      </trkpt>
      <trkpt lat="45.8636" lon="5.43095">
        <ele>494.26</ele>
        <time>2022-11-18T09:40:03Z</time>
      </trkpt>
      <trkpt lat="45.86373" lon="5.43083">
        <ele>491.37</ele>
        <time>2022-11-18T09:40:21Z</time>
      </trkpt>
      <trkpt lat="45.86388" lon="5.43088">
        <ele>488.97</ele>
        <time>2022-11-18T09:40:38Z</time>
      </trkpt>
      <trkpt lat="45.8639" lon="5.4309">
        <ele>488.97</ele>
        <time>2022-11-18T09:40:40Z</time>
      </trkpt>
      <trkpt lat="45.86394" lon="5.43093">
        <ele>488.49</ele>
        <time>2022-11-18T09:40:43Z</time>
      </trkpt>
      <trkpt lat="45.86395" lon="5.43094">
        <ele>488.49</ele>
        <time>2022-11-18T09:40:44Z</time>
      </trkpt>
      <trkpt lat="45.86404" lon="5.431">
        <ele>488.01</ele>
        <time>2022-11-18T09:40:52Z</time>
      </trkpt>
      <trkpt lat="45.86423" lon="5.43101">
        <ele>487.53</ele>
        <time>2022-11-18T09:41:09Z</time>
      </trkpt>
      <trkpt lat="45.86431" lon="5.43097">
        <ele>488.01</ele>
        <time>2022-11-18T09:41:17Z</time>
      </trkpt>
      <trkpt lat="45.86434" lon="5.43096">
        <ele>488.01</ele>
        <time>2022-11-18T09:41:20Z</time>
      </trkpt>
      <trkpt lat="45.86436" lon="5.43095">
        <ele>488.01</ele>
        <time>2022-11-18T09:41:21Z</time>
      </trkpt>
      <trkpt lat="45.86437" lon="5.43095">
        <ele>488.01</ele>
        <time>2022-11-18T09:41:22Z</time>
      </trkpt>
      <trkpt lat="45.86438" lon="5.43095">
        <ele>488.01</ele>
        <time>2022-11-18T09:41:23Z</time>
      </trkpt>
      <trkpt lat="45.86453" lon="5.43085">
        <ele>488.49</ele>
        <time>2022-11-18T09:41:38Z</time>
      </trkpt>
      <trkpt lat="45.86468" lon="5.43079">
        <ele>489.93</ele>
        <time>2022-11-18T09:41:53Z</time>
      </trkpt>
      <trkpt lat="45.86479" lon="5.43078">
        <ele>491.37</ele>
        <time>2022-11-18T09:42:04Z</time>
      </trkpt>
      <trkpt lat="45.86491" lon="5.43079">
        <ele>493.77</ele>
        <time>2022-11-18T09:42:19Z</time>
      </trkpt>
      <trkpt lat="45.86503" lon="5.43079">
        <ele>496.66</ele>
        <time>2022-11-18T09:42:36Z</time>
      </trkpt>
      <trkpt lat="45.86519" lon="5.43082">
        <ele>499.54</ele>
        <time>2022-11-18T09:42:55Z</time>
      </trkpt>
      <trkpt lat="45.86532" lon="5.43086">
        <ele>502.43</ele>
        <time>2022-11-18T09:43:14Z</time>
      </trkpt>
      <trkpt lat="45.86545" lon="5.4309">
        <ele>504.83</ele>
        <time>2022-11-18T09:43:31Z</time>
      </trkpt>
      <trkpt lat="45.86561" lon="5.43096">
        <ele>507.23</ele>
        <time>2022-11-18T09:43:50Z</time>
      </trkpt>
      <trkpt lat="45.86574" lon="5.43103">
        <ele>509.64</ele>
        <time>2022-11-18T09:44:06Z</time>
      </trkpt>
      <trkpt lat="45.86587" lon="5.43098">
        <ele>512.04</ele>
        <time>2022-11-18T09:44:23Z</time>
      </trkpt>
      <trkpt lat="45.86594" lon="5.43092">
        <ele>512.04</ele>
        <time>2022-11-18T09:44:30Z</time>
      </trkpt>
      <trkpt lat="45.86605" lon="5.43076">
        <ele>513</ele>
        <time>2022-11-18T09:44:45Z</time>
      </trkpt>
      <trkpt lat="45.8662" lon="5.43063">
        <ele>513.48</ele>
        <time>2022-11-18T09:44:59Z</time>
      </trkpt>
      <trkpt lat="45.86636" lon="5.43036">
        <ele>513.48</ele>
        <time>2022-11-18T09:45:19Z</time>
      </trkpt>
      <trkpt lat="45.86649" lon="5.43017">
        <ele>513.96</ele>
        <time>2022-11-18T09:45:35Z</time>
      </trkpt>
      <trkpt lat="45.86657" lon="5.43011">
        <ele>514.44</ele>
        <time>2022-11-18T09:45:43Z</time>
      </trkpt>
      <trkpt lat="45.8667" lon="5.43004">
        <ele>515.4</ele>
        <time>2022-11-18T09:45:55Z</time>
      </trkpt>
      <trkpt lat="45.86678" lon="5.42999">
        <ele>515.88</ele>
        <time>2022-11-18T09:46:02Z</time>
      </trkpt>
      <trkpt lat="45.86691" lon="5.42986">
        <ele>516.85</ele>
        <time>2022-11-18T09:46:16Z</time>
      </trkpt>
      <trkpt lat="45.86698" lon="5.42976">
        <ele>517.33</ele>
        <time>2022-11-18T09:46:24Z</time>
      </trkpt>
      <trkpt lat="45.86702" lon="5.42971">
        <ele>517.81</ele>
        <time>2022-11-18T09:46:28Z</time>
      </trkpt>
      <trkpt lat="45.86713" lon="5.4295">
        <ele>518.77</ele>
        <time>2022-11-18T09:46:44Z</time>
      </trkpt>
      <trkpt lat="45.86722" lon="5.42934">
        <ele>519.73</ele>
        <time>2022-11-18T09:46:58Z</time>
      </trkpt>
      <trkpt lat="45.86732" lon="5.42918">
        <ele>521.17</ele>
        <time>2022-11-18T09:47:11Z</time>
      </trkpt>
      <trkpt lat="45.8674" lon="5.42907">
        <ele>522.61</ele>
        <time>2022-11-18T09:47:22Z</time>
      </trkpt>
      <trkpt lat="45.86742" lon="5.42905">
        <ele>523.09</ele>
        <time>2022-11-18T09:47:24Z</time>
      </trkpt>
      <trkpt lat="45.86752" lon="5.42893">
        <ele>525.02</ele>
        <time>2022-11-18T09:47:39Z</time>
      </trkpt>
      <trkpt lat="45.86759" lon="5.42888">
        <ele>526.94</ele>
        <time>2022-11-18T09:47:53Z</time>
      </trkpt>
      <trkpt lat="45.86759" lon="5.42891">
        <ele>527.9</ele>
        <time>2022-11-18T09:48:12Z</time>
      </trkpt>
      <trkpt lat="45.86763" lon="5.42876">
        <ele>527.42</ele>
        <time>2022-11-18T09:48:29Z</time>
      </trkpt>
      <trkpt lat="45.86764" lon="5.42872">
        <ele>527.42</ele>
        <time>2022-11-18T09:48:32Z</time>
      </trkpt>
      <trkpt lat="45.86766" lon="5.42863">
        <ele>527.42</ele>
        <time>2022-11-18T09:48:39Z</time>
      </trkpt>
      <trkpt lat="45.86774" lon="5.42846">
        <ele>527.42</ele>
        <time>2022-11-18T09:48:53Z</time>
      </trkpt>
      <trkpt lat="45.86784" lon="5.42821">
        <ele>526.46</ele>
        <time>2022-11-18T09:49:12Z</time>
      </trkpt>
      <trkpt lat="45.86784" lon="5.42808">
        <ele>525.98</ele>
        <time>2022-11-18T09:49:20Z</time>
      </trkpt>
      <trkpt lat="45.86784" lon="5.42806">
        <ele>525.98</ele>
        <time>2022-11-18T09:49:21Z</time>
      </trkpt>
      <trkpt lat="45.86787" lon="5.42791">
        <ele>525.5</ele>
        <time>2022-11-18T09:49:32Z</time>
      </trkpt>
      <trkpt lat="45.86787" lon="5.42789">
        <ele>525.5</ele>
        <time>2022-11-18T09:49:33Z</time>
      </trkpt>
      <trkpt lat="45.8679" lon="5.42766">
        <ele>524.54</ele>
        <time>2022-11-18T09:49:48Z</time>
      </trkpt>
      <trkpt lat="45.86791" lon="5.42764">
        <ele>524.54</ele>
        <time>2022-11-18T09:49:49Z</time>
      </trkpt>
      <trkpt lat="45.86792" lon="5.42749">
        <ele>523.58</ele>
        <time>2022-11-18T09:49:59Z</time>
      </trkpt>
      <trkpt lat="45.86791" lon="5.42748">
        <ele>523.58</ele>
        <time>2022-11-18T09:50:00Z</time>
      </trkpt>
      <trkpt lat="45.86789" lon="5.42739">
        <ele>523.58</ele>
        <time>2022-11-18T09:50:07Z</time>
      </trkpt>
      <trkpt lat="45.86788" lon="5.42724">
        <ele>523.58</ele>
        <time>2022-11-18T09:50:18Z</time>
      </trkpt>
      <trkpt lat="45.86788" lon="5.42701">
        <ele>524.54</ele>
        <time>2022-11-18T09:50:41Z</time>
      </trkpt>
      <trkpt lat="45.86782" lon="5.42677">
        <ele>523.58</ele>
        <time>2022-11-18T09:50:58Z</time>
      </trkpt>
      <trkpt lat="45.86777" lon="5.42669">
        <ele>522.13</ele>
        <time>2022-11-18T09:51:14Z</time>
      </trkpt>
      <trkpt lat="45.86777" lon="5.42668">
        <ele>522.61</ele>
        <time>2022-11-18T09:51:40Z</time>
      </trkpt>
      <trkpt lat="45.86779" lon="5.42668">
        <ele>522.61</ele>
        <time>2022-11-18T09:51:56Z</time>
      </trkpt>
      <trkpt lat="45.8678" lon="5.42667">
        <ele>522.61</ele>
        <time>2022-11-18T09:51:57Z</time>
      </trkpt>
      <trkpt lat="45.86779" lon="5.42666">
        <ele>522.61</ele>
        <time>2022-11-18T09:51:58Z</time>
      </trkpt>
      <trkpt lat="45.86779" lon="5.42654">
        <ele>522.13</ele>
        <time>2022-11-18T09:52:10Z</time>
      </trkpt>
      <trkpt lat="45.86779" lon="5.42652">
        <ele>522.13</ele>
        <time>2022-11-18T09:52:11Z</time>
      </trkpt>
      <trkpt lat="45.86779" lon="5.42649">
        <ele>522.13</ele>
        <time>2022-11-18T09:52:13Z</time>
      </trkpt>
      <trkpt lat="45.8678" lon="5.42647">
        <ele>522.13</ele>
        <time>2022-11-18T09:52:15Z</time>
      </trkpt>
      <trkpt lat="45.86779" lon="5.42632">
        <ele>521.65</ele>
        <time>2022-11-18T09:52:30Z</time>
      </trkpt>
      <trkpt lat="45.86779" lon="5.42601">
        <ele>521.17</ele>
        <time>2022-11-18T09:52:49Z</time>
      </trkpt>
      <trkpt lat="45.86784" lon="5.42584">
        <ele>521.17</ele>
        <time>2022-11-18T09:53:06Z</time>
      </trkpt>
      <trkpt lat="45.86785" lon="5.4257">
        <ele>521.65</ele>
        <time>2022-11-18T09:53:24Z</time>
      </trkpt>
      <trkpt lat="45.86787" lon="5.42569">
        <ele>521.65</ele>
        <time>2022-11-18T09:53:49Z</time>
      </trkpt>
      <trkpt lat="45.86784" lon="5.4257">
        <ele>522.61</ele>
        <time>2022-11-18T09:54:08Z</time>
      </trkpt>
      <trkpt lat="45.86781" lon="5.42568">
        <ele>521.17</ele>
        <time>2022-11-18T09:54:34Z</time>
      </trkpt>
      <trkpt lat="45.86781" lon="5.42569">
        <ele>521.17</ele>
        <time>2022-11-18T09:55:23Z</time>
      </trkpt>
      <trkpt lat="45.86779" lon="5.42568">
        <ele>521.17</ele>
        <time>2022-11-18T09:55:45Z</time>
      </trkpt>
      <trkpt lat="45.8678" lon="5.4257">
        <ele>521.17</ele>
        <time>2022-11-18T09:56:09Z</time>
      </trkpt>
      <trkpt lat="45.86782" lon="5.42571">
        <ele>521.17</ele>
        <time>2022-11-18T09:56:29Z</time>
      </trkpt>
      <trkpt lat="45.86783" lon="5.4257">
        <ele>521.17</ele>
        <time>2022-11-18T09:56:58Z</time>
      </trkpt>
      <trkpt lat="45.86784" lon="5.42571">
        <ele>521.17</ele>
        <time>2022-11-18T09:57:18Z</time>
      </trkpt>
      <trkpt lat="45.86782" lon="5.42583">
        <ele>521.17</ele>
        <time>2022-11-18T09:57:31Z</time>
      </trkpt>
      <trkpt lat="45.8678" lon="5.42587">
        <ele>521.65</ele>
        <time>2022-11-18T09:57:35Z</time>
      </trkpt>
      <trkpt lat="45.86779" lon="5.42589">
        <ele>522.13</ele>
        <time>2022-11-18T09:57:36Z</time>
      </trkpt>
      <trkpt lat="45.86775" lon="5.42614">
        <ele>522.61</ele>
        <time>2022-11-18T09:57:53Z</time>
      </trkpt>
      <trkpt lat="45.86773" lon="5.42639">
        <ele>523.58</ele>
        <time>2022-11-18T09:58:07Z</time>
      </trkpt>
      <trkpt lat="45.86773" lon="5.42641">
        <ele>523.58</ele>
        <time>2022-11-18T09:58:08Z</time>
      </trkpt>
      <trkpt lat="45.86775" lon="5.42648">
        <ele>523.58</ele>
        <time>2022-11-18T09:58:13Z</time>
      </trkpt>
      <trkpt lat="45.86775" lon="5.42652">
        <ele>523.58</ele>
        <time>2022-11-18T09:58:16Z</time>
      </trkpt>
      <trkpt lat="45.86777" lon="5.42669">
        <ele>524.06</ele>
        <time>2022-11-18T09:58:26Z</time>
      </trkpt>
      <trkpt lat="45.86781" lon="5.4269">
        <ele>525.02</ele>
        <time>2022-11-18T09:58:41Z</time>
      </trkpt>
      <trkpt lat="45.86783" lon="5.42699">
        <ele>525.98</ele>
        <time>2022-11-18T09:58:48Z</time>
      </trkpt>
      <trkpt lat="45.86786" lon="5.42727">
        <ele>526.46</ele>
        <time>2022-11-18T09:59:05Z</time>
      </trkpt>
      <trkpt lat="45.86791" lon="5.42754">
        <ele>525.5</ele>
        <time>2022-11-18T09:59:21Z</time>
      </trkpt>
      <trkpt lat="45.86791" lon="5.42756">
        <ele>525.5</ele>
        <time>2022-11-18T09:59:22Z</time>
      </trkpt>
      <trkpt lat="45.86783" lon="5.42785">
        <ele>526.94</ele>
        <time>2022-11-18T09:59:40Z</time>
      </trkpt>
      <trkpt lat="45.86781" lon="5.42802">
        <ele>527.42</ele>
        <time>2022-11-18T09:59:51Z</time>
      </trkpt>
      <trkpt lat="45.86779" lon="5.42814">
        <ele>527.9</ele>
        <time>2022-11-18T09:59:58Z</time>
      </trkpt>
      <trkpt lat="45.86779" lon="5.42817">
        <ele>527.9</ele>
        <time>2022-11-18T09:59:59Z</time>
      </trkpt>
      <trkpt lat="45.86772" lon="5.42839">
        <ele>528.86</ele>
        <time>2022-11-18T10:00:13Z</time>
      </trkpt>
      <trkpt lat="45.86772" lon="5.42841">
        <ele>529.34</ele>
        <time>2022-11-18T10:00:14Z</time>
      </trkpt>
      <trkpt lat="45.8677" lon="5.42847">
        <ele>529.34</ele>
        <time>2022-11-18T10:00:18Z</time>
      </trkpt>
      <trkpt lat="45.8677" lon="5.42849">
        <ele>529.82</ele>
        <time>2022-11-18T10:00:19Z</time>
      </trkpt>
      <trkpt lat="45.86769" lon="5.42851">
        <ele>529.82</ele>
        <time>2022-11-18T10:00:20Z</time>
      </trkpt>
      <trkpt lat="45.86768" lon="5.42853">
        <ele>529.82</ele>
        <time>2022-11-18T10:00:21Z</time>
      </trkpt>
      <trkpt lat="45.86768" lon="5.42855">
        <ele>529.82</ele>
        <time>2022-11-18T10:00:22Z</time>
      </trkpt>
      <trkpt lat="45.86767" lon="5.42856">
        <ele>529.82</ele>
        <time>2022-11-18T10:00:23Z</time>
      </trkpt>
      <trkpt lat="45.86758" lon="5.42885">
        <ele>529.82</ele>
        <time>2022-11-18T10:00:39Z</time>
      </trkpt>
      <trkpt lat="45.86756" lon="5.42911">
        <ele>531.27</ele>
        <time>2022-11-18T10:00:55Z</time>
      </trkpt>
      <trkpt lat="45.86758" lon="5.42927">
        <ele>532.23</ele>
        <time>2022-11-18T10:01:06Z</time>
      </trkpt>
      <trkpt lat="45.86759" lon="5.42951">
        <ele>533.67</ele>
        <time>2022-11-18T10:01:19Z</time>
      </trkpt>
      <trkpt lat="45.8676" lon="5.42978">
        <ele>535.59</ele>
        <time>2022-11-18T10:01:37Z</time>
      </trkpt>
      <trkpt lat="45.86759" lon="5.42986">
        <ele>536.55</ele>
        <time>2022-11-18T10:01:42Z</time>
      </trkpt>
      <trkpt lat="45.86758" lon="5.42988">
        <ele>536.55</ele>
        <time>2022-11-18T10:01:43Z</time>
      </trkpt>
      <trkpt lat="45.86753" lon="5.43014">
        <ele>537.99</ele>
        <time>2022-11-18T10:01:59Z</time>
      </trkpt>
      <trkpt lat="45.86747" lon="5.43034">
        <ele>539.92</ele>
        <time>2022-11-18T10:02:14Z</time>
      </trkpt>
      <trkpt lat="45.86738" lon="5.43056">
        <ele>540.88</ele>
        <time>2022-11-18T10:02:31Z</time>
      </trkpt>
      <trkpt lat="45.86737" lon="5.43058">
        <ele>540.88</ele>
        <time>2022-11-18T10:02:32Z</time>
      </trkpt>
      <trkpt lat="45.86737" lon="5.4306">
        <ele>540.88</ele>
        <time>2022-11-18T10:02:33Z</time>
      </trkpt>
      <trkpt lat="45.86735" lon="5.43066">
        <ele>540.88</ele>
        <time>2022-11-18T10:02:37Z</time>
      </trkpt>
      <trkpt lat="45.86725" lon="5.43089">
        <ele>541.36</ele>
        <time>2022-11-18T10:02:51Z</time>
      </trkpt>
      <trkpt lat="45.86714" lon="5.4311">
        <ele>541.84</ele>
        <time>2022-11-18T10:03:07Z</time>
      </trkpt>
      <trkpt lat="45.86703" lon="5.43127">
        <ele>542.8</ele>
        <time>2022-11-18T10:03:22Z</time>
      </trkpt>
      <trkpt lat="45.86701" lon="5.43131">
        <ele>542.8</ele>
        <time>2022-11-18T10:03:25Z</time>
      </trkpt>
      <trkpt lat="45.86699" lon="5.43134">
        <ele>542.8</ele>
        <time>2022-11-18T10:03:28Z</time>
      </trkpt>
      <trkpt lat="45.86685" lon="5.43155">
        <ele>543.76</ele>
        <time>2022-11-18T10:03:44Z</time>
      </trkpt>
      <trkpt lat="45.86671" lon="5.43178">
        <ele>544.72</ele>
        <time>2022-11-18T10:04:02Z</time>
      </trkpt>
      <trkpt lat="45.86665" lon="5.43199">
        <ele>546.17</ele>
        <time>2022-11-18T10:04:17Z</time>
      </trkpt>
      <trkpt lat="45.86661" lon="5.43225">
        <ele>546.17</ele>
        <time>2022-11-18T10:04:38Z</time>
      </trkpt>
      <trkpt lat="45.8666" lon="5.43236">
        <ele>546.17</ele>
        <time>2022-11-18T10:04:47Z</time>
      </trkpt>
      <trkpt lat="45.86656" lon="5.43262">
        <ele>545.69</ele>
        <time>2022-11-18T10:05:03Z</time>
      </trkpt>
      <trkpt lat="45.86654" lon="5.43289">
        <ele>545.69</ele>
        <time>2022-11-18T10:05:19Z</time>
      </trkpt>
      <trkpt lat="45.86653" lon="5.43315">
        <ele>545.69</ele>
        <time>2022-11-18T10:05:36Z</time>
      </trkpt>
      <trkpt lat="45.86658" lon="5.43344">
        <ele>545.2</ele>
        <time>2022-11-18T10:05:55Z</time>
      </trkpt>
      <trkpt lat="45.86663" lon="5.43378">
        <ele>545.2</ele>
        <time>2022-11-18T10:06:16Z</time>
      </trkpt>
      <trkpt lat="45.8667" lon="5.43405">
        <ele>545.2</ele>
        <time>2022-11-18T10:06:34Z</time>
      </trkpt>
      <trkpt lat="45.86676" lon="5.43429">
        <ele>545.2</ele>
        <time>2022-11-18T10:06:49Z</time>
      </trkpt>
      <trkpt lat="45.86682" lon="5.4345">
        <ele>545.69</ele>
        <time>2022-11-18T10:07:03Z</time>
      </trkpt>
      <trkpt lat="45.86684" lon="5.43458">
        <ele>546.17</ele>
        <time>2022-11-18T10:07:09Z</time>
      </trkpt>
      <trkpt lat="45.86685" lon="5.43483">
        <ele>547.61</ele>
        <time>2022-11-18T10:07:24Z</time>
      </trkpt>
      <trkpt lat="45.8669" lon="5.43506">
        <ele>549.05</ele>
        <time>2022-11-18T10:07:43Z</time>
      </trkpt>
      <trkpt lat="45.867" lon="5.43521">
        <ele>551.93</ele>
        <time>2022-11-18T10:08:04Z</time>
      </trkpt>
      <trkpt lat="45.86716" lon="5.43532">
        <ele>554.34</ele>
        <time>2022-11-18T10:08:25Z</time>
      </trkpt>
      <trkpt lat="45.86736" lon="5.43544">
        <ele>554.82</ele>
        <time>2022-11-18T10:08:43Z</time>
      </trkpt>
      <trkpt lat="45.86758" lon="5.43558">
        <ele>555.3</ele>
        <time>2022-11-18T10:09:04Z</time>
      </trkpt>
      <trkpt lat="45.86771" lon="5.43564">
        <ele>556.26</ele>
        <time>2022-11-18T10:09:17Z</time>
      </trkpt>
      <trkpt lat="45.86787" lon="5.43567">
        <ele>558.66</ele>
        <time>2022-11-18T10:09:37Z</time>
      </trkpt>
      <trkpt lat="45.868" lon="5.43569">
        <ele>560.59</ele>
        <time>2022-11-18T10:09:54Z</time>
      </trkpt>
      <trkpt lat="45.86823" lon="5.43581">
        <ele>561.55</ele>
        <time>2022-11-18T10:10:11Z</time>
      </trkpt>
      <trkpt lat="45.86834" lon="5.43595">
        <ele>561.55</ele>
        <time>2022-11-18T10:10:27Z</time>
      </trkpt>
      <trkpt lat="45.86849" lon="5.43612">
        <ele>562.51</ele>
        <time>2022-11-18T10:10:48Z</time>
      </trkpt>
      <trkpt lat="45.86839" lon="5.43622">
        <ele>564.43</ele>
        <time>2022-11-18T10:11:06Z</time>
      </trkpt>
      <trkpt lat="45.86833" lon="5.43627">
        <ele>566.83</ele>
        <time>2022-11-18T10:11:25Z</time>
      </trkpt>
      <trkpt lat="45.86832" lon="5.43631">
        <ele>567.8</ele>
        <time>2022-11-18T10:11:54Z</time>
      </trkpt>
      <trkpt lat="45.86829" lon="5.43633">
        <ele>568.28</ele>
        <time>2022-11-18T10:12:21Z</time>
      </trkpt>
      <trkpt lat="45.86828" lon="5.43635">
        <ele>568.28</ele>
        <time>2022-11-18T10:12:51Z</time>
      </trkpt>
      <trkpt lat="45.86827" lon="5.43638">
        <ele>568.28</ele>
        <time>2022-11-18T10:13:16Z</time>
      </trkpt>
      <trkpt lat="45.86826" lon="5.4364">
        <ele>574.53</ele>
        <time>2022-11-18T10:13:36Z</time>
      </trkpt>
      <trkpt lat="45.86826" lon="5.43645">
        <ele>568.76</ele>
        <time>2022-11-18T10:14:00Z</time>
      </trkpt>
      <trkpt lat="45.86825" lon="5.43642">
        <ele>568.76</ele>
        <time>2022-11-18T10:14:26Z</time>
      </trkpt>
      <trkpt lat="45.86826" lon="5.43641">
        <ele>568.76</ele>
        <time>2022-11-18T10:14:51Z</time>
      </trkpt>
      <trkpt lat="45.86827" lon="5.43637">
        <ele>568.76</ele>
        <time>2022-11-18T10:15:18Z</time>
      </trkpt>
      <trkpt lat="45.86826" lon="5.43639">
        <ele>568.76</ele>
        <time>2022-11-18T10:15:47Z</time>
      </trkpt>
      <trkpt lat="45.86829" lon="5.43638">
        <ele>568.76</ele>
        <time>2022-11-18T10:16:14Z</time>
      </trkpt>
      <trkpt lat="45.86829" lon="5.43635">
        <ele>568.76</ele>
        <time>2022-11-18T10:16:39Z</time>
      </trkpt>
      <trkpt lat="45.86819" lon="5.43636">
        <ele>568.76</ele>
        <time>2022-11-18T10:16:54Z</time>
      </trkpt>
      <trkpt lat="45.86807" lon="5.4365">
        <ele>568.76</ele>
        <time>2022-11-18T10:17:13Z</time>
      </trkpt>
      <trkpt lat="45.86801" lon="5.43666">
        <ele>568.76</ele>
        <time>2022-11-18T10:17:28Z</time>
      </trkpt>
      <trkpt lat="45.86799" lon="5.43677">
        <ele>574.53</ele>
        <time>2022-11-18T10:17:40Z</time>
      </trkpt>
      <trkpt lat="45.86799" lon="5.43678">
        <ele>574.53</ele>
        <time>2022-11-18T10:17:41Z</time>
      </trkpt>
      <trkpt lat="45.8679" lon="5.43701">
        <ele>575.49</ele>
        <time>2022-11-18T10:17:59Z</time>
      </trkpt>
      <trkpt lat="45.86786" lon="5.43718">
        <ele>577.41</ele>
        <time>2022-11-18T10:18:17Z</time>
      </trkpt>
      <trkpt lat="45.86777" lon="5.43744">
        <ele>580.29</ele>
        <time>2022-11-18T10:18:39Z</time>
      </trkpt>
      <trkpt lat="45.86773" lon="5.43769">
        <ele>582.7</ele>
        <time>2022-11-18T10:18:58Z</time>
      </trkpt>
      <trkpt lat="45.86764" lon="5.43788">
        <ele>584.62</ele>
        <time>2022-11-18T10:19:17Z</time>
      </trkpt>
      <trkpt lat="45.86761" lon="5.43817">
        <ele>587.02</ele>
        <time>2022-11-18T10:19:38Z</time>
      </trkpt>
      <trkpt lat="45.86758" lon="5.43841">
        <ele>588.46</ele>
        <time>2022-11-18T10:19:55Z</time>
      </trkpt>
      <trkpt lat="45.8675" lon="5.43862">
        <ele>590.39</ele>
        <time>2022-11-18T10:20:12Z</time>
      </trkpt>
      <trkpt lat="45.86739" lon="5.43879">
        <ele>590.87</ele>
        <time>2022-11-18T10:20:27Z</time>
      </trkpt>
      <trkpt lat="45.86724" lon="5.43897">
        <ele>592.79</ele>
        <time>2022-11-18T10:20:47Z</time>
      </trkpt>
      <trkpt lat="45.86716" lon="5.43916">
        <ele>595.19</ele>
        <time>2022-11-18T10:21:07Z</time>
      </trkpt>
      <trkpt lat="45.86713" lon="5.43937">
        <ele>597.6</ele>
        <time>2022-11-18T10:21:26Z</time>
      </trkpt>
      <trkpt lat="45.8671" lon="5.43954">
        <ele>600</ele>
        <time>2022-11-18T10:21:43Z</time>
      </trkpt>
      <trkpt lat="45.86708" lon="5.43971">
        <ele>601.92</ele>
        <time>2022-11-18T10:22:01Z</time>
      </trkpt>
      <trkpt lat="45.86711" lon="5.43991">
        <ele>604.33</ele>
        <time>2022-11-18T10:22:19Z</time>
      </trkpt>
      <trkpt lat="45.86715" lon="5.44014">
        <ele>606.73</ele>
        <time>2022-11-18T10:22:38Z</time>
      </trkpt>
      <trkpt lat="45.8671" lon="5.44027">
        <ele>608.65</ele>
        <time>2022-11-18T10:22:56Z</time>
      </trkpt>
      <trkpt lat="45.86696" lon="5.44042">
        <ele>610.57</ele>
        <time>2022-11-18T10:23:14Z</time>
      </trkpt>
      <trkpt lat="45.86686" lon="5.4405">
        <ele>612.5</ele>
        <time>2022-11-18T10:23:31Z</time>
      </trkpt>
      <trkpt lat="45.86678" lon="5.44059">
        <ele>614.9</ele>
        <time>2022-11-18T10:23:50Z</time>
      </trkpt>
      <trkpt lat="45.8667" lon="5.44063">
        <ele>616.82</ele>
        <time>2022-11-18T10:24:08Z</time>
      </trkpt>
      <trkpt lat="45.86657" lon="5.4407">
        <ele>618.75</ele>
        <time>2022-11-18T10:24:28Z</time>
      </trkpt>
      <trkpt lat="45.86645" lon="5.44075">
        <ele>621.15</ele>
        <time>2022-11-18T10:24:47Z</time>
      </trkpt>
      <trkpt lat="45.86641" lon="5.44075">
        <ele>621.63</ele>
        <time>2022-11-18T10:24:51Z</time>
      </trkpt>
      <trkpt lat="45.8663" lon="5.44076">
        <ele>624.03</ele>
        <time>2022-11-18T10:25:10Z</time>
      </trkpt>
      <trkpt lat="45.86623" lon="5.44082">
        <ele>626.44</ele>
        <time>2022-11-18T10:25:31Z</time>
      </trkpt>
      <trkpt lat="45.86608" lon="5.44083">
        <ele>628.84</ele>
        <time>2022-11-18T10:25:48Z</time>
      </trkpt>
      <trkpt lat="45.86594" lon="5.44084">
        <ele>630.28</ele>
        <time>2022-11-18T10:26:06Z</time>
      </trkpt>
      <trkpt lat="45.86581" lon="5.44084">
        <ele>632.2</ele>
        <time>2022-11-18T10:26:23Z</time>
      </trkpt>
      <trkpt lat="45.86564" lon="5.44083">
        <ele>634.61</ele>
        <time>2022-11-18T10:26:44Z</time>
      </trkpt>
      <trkpt lat="45.86552" lon="5.44088">
        <ele>637.01</ele>
        <time>2022-11-18T10:27:06Z</time>
      </trkpt>
      <trkpt lat="45.8654" lon="5.44095">
        <ele>639.41</ele>
        <time>2022-11-18T10:27:25Z</time>
      </trkpt>
      <trkpt lat="45.8653" lon="5.441">
        <ele>641.82</ele>
        <time>2022-11-18T10:27:43Z</time>
      </trkpt>
      <trkpt lat="45.86518" lon="5.44108">
        <ele>643.74</ele>
        <time>2022-11-18T10:28:02Z</time>
      </trkpt>
      <trkpt lat="45.86509" lon="5.44113">
        <ele>646.14</ele>
        <time>2022-11-18T10:28:20Z</time>
      </trkpt>
      <trkpt lat="45.86497" lon="5.44116">
        <ele>648.55</ele>
        <time>2022-11-18T10:28:40Z</time>
      </trkpt>
      <trkpt lat="45.86485" lon="5.4412">
        <ele>650.95</ele>
        <time>2022-11-18T10:28:58Z</time>
      </trkpt>
      <trkpt lat="45.86474" lon="5.4413">
        <ele>653.83</ele>
        <time>2022-11-18T10:29:19Z</time>
      </trkpt>
      <trkpt lat="45.86459" lon="5.44132">
        <ele>655.76</ele>
        <time>2022-11-18T10:29:36Z</time>
      </trkpt>
      <trkpt lat="45.86441" lon="5.44138">
        <ele>658.16</ele>
        <time>2022-11-18T10:30:00Z</time>
      </trkpt>
      <trkpt lat="45.86428" lon="5.44145">
        <ele>660.56</ele>
        <time>2022-11-18T10:30:21Z</time>
      </trkpt>
      <trkpt lat="45.86415" lon="5.44154">
        <ele>662.97</ele>
        <time>2022-11-18T10:30:39Z</time>
      </trkpt>
      <trkpt lat="45.86403" lon="5.44155">
        <ele>665.37</ele>
        <time>2022-11-18T10:31:00Z</time>
      </trkpt>
      <trkpt lat="45.86393" lon="5.44159">
        <ele>667.77</ele>
        <time>2022-11-18T10:31:21Z</time>
      </trkpt>
      <trkpt lat="45.86389" lon="5.44165">
        <ele>669.22</ele>
        <time>2022-11-18T10:31:44Z</time>
      </trkpt>
      <trkpt lat="45.86389" lon="5.44166">
        <ele>669.7</ele>
        <time>2022-11-18T10:32:11Z</time>
      </trkpt>
      <trkpt lat="45.86388" lon="5.44164">
        <ele>668.73</ele>
        <time>2022-11-18T10:32:35Z</time>
      </trkpt>
      <trkpt lat="45.86389" lon="5.44163">
        <ele>668.73</ele>
        <time>2022-11-18T10:32:57Z</time>
      </trkpt>
      <trkpt lat="45.86392" lon="5.44163">
        <ele>668.73</ele>
        <time>2022-11-18T10:33:24Z</time>
      </trkpt>
      <trkpt lat="45.86392" lon="5.44164">
        <ele>669.7</ele>
        <time>2022-11-18T10:33:49Z</time>
      </trkpt>
      <trkpt lat="45.86391" lon="5.44163">
        <ele>669.22</ele>
        <time>2022-11-18T10:34:17Z</time>
      </trkpt>
      <trkpt lat="45.86393" lon="5.44163">
        <ele>669.22</ele>
        <time>2022-11-18T10:34:41Z</time>
      </trkpt>
      <trkpt lat="45.86392" lon="5.44163">
        <ele>667.77</ele>
        <time>2022-11-18T10:35:10Z</time>
      </trkpt>
      <trkpt lat="45.8639" lon="5.44165">
        <ele>668.73</ele>
        <time>2022-11-18T10:35:46Z</time>
      </trkpt>
      <trkpt lat="45.86389" lon="5.44165">
        <ele>668.25</ele>
        <time>2022-11-18T10:36:13Z</time>
      </trkpt>
      <trkpt lat="45.86389" lon="5.44164">
        <ele>667.77</ele>
        <time>2022-11-18T10:36:37Z</time>
      </trkpt>
      <trkpt lat="45.86388" lon="5.44163">
        <ele>667.77</ele>
        <time>2022-11-18T10:37:03Z</time>
      </trkpt>
      <trkpt lat="45.86391" lon="5.44167">
        <ele>667.77</ele>
        <time>2022-11-18T10:37:27Z</time>
      </trkpt>
      <trkpt lat="45.86405" lon="5.44175">
        <ele>667.77</ele>
        <time>2022-11-18T10:37:47Z</time>
      </trkpt>
      <trkpt lat="45.86413" lon="5.44182">
        <ele>670.66</ele>
        <time>2022-11-18T10:38:01Z</time>
      </trkpt>
      <trkpt lat="45.86415" lon="5.44202">
        <ele>672.58</ele>
        <time>2022-11-18T10:38:23Z</time>
      </trkpt>
      <trkpt lat="45.86415" lon="5.44217">
        <ele>673.54</ele>
        <time>2022-11-18T10:38:32Z</time>
      </trkpt>
      <trkpt lat="45.86409" lon="5.44237">
        <ele>675.94</ele>
        <time>2022-11-18T10:38:54Z</time>
      </trkpt>
      <trkpt lat="45.86399" lon="5.44266">
        <ele>677.87</ele>
        <time>2022-11-18T10:39:16Z</time>
      </trkpt>
      <trkpt lat="45.86395" lon="5.44284">
        <ele>679.31</ele>
        <time>2022-11-18T10:39:34Z</time>
      </trkpt>
      <trkpt lat="45.86393" lon="5.44305">
        <ele>681.23</ele>
        <time>2022-11-18T10:39:50Z</time>
      </trkpt>
      <trkpt lat="45.86393" lon="5.4432">
        <ele>682.67</ele>
        <time>2022-11-18T10:40:11Z</time>
      </trkpt>
      <trkpt lat="45.86394" lon="5.44349">
        <ele>685.08</ele>
        <time>2022-11-18T10:40:34Z</time>
      </trkpt>
      <trkpt lat="45.86397" lon="5.44366">
        <ele>687</ele>
        <time>2022-11-18T10:40:55Z</time>
      </trkpt>
      <trkpt lat="45.86399" lon="5.44382">
        <ele>688.92</ele>
        <time>2022-11-18T10:41:16Z</time>
      </trkpt>
      <trkpt lat="45.86396" lon="5.44385">
        <ele>688.44</ele>
        <time>2022-11-18T10:41:40Z</time>
      </trkpt>
      <trkpt lat="45.86396" lon="5.44387">
        <ele>688.44</ele>
        <time>2022-11-18T10:41:59Z</time>
      </trkpt>
      <trkpt lat="45.86392" lon="5.44388">
        <ele>687.96</ele>
        <time>2022-11-18T10:42:20Z</time>
      </trkpt>
      <trkpt lat="45.86389" lon="5.44388">
        <ele>687.96</ele>
        <time>2022-11-18T10:42:46Z</time>
      </trkpt>
      <trkpt lat="45.86386" lon="5.44387">
        <ele>687.96</ele>
        <time>2022-11-18T10:42:49Z</time>
      </trkpt>
      <trkpt lat="45.86384" lon="5.44387">
        <ele>687.96</ele>
        <time>2022-11-18T10:42:50Z</time>
      </trkpt>
      <trkpt lat="45.86379" lon="5.44386">
        <ele>687.48</ele>
        <time>2022-11-18T10:42:55Z</time>
      </trkpt>
      <trkpt lat="45.86377" lon="5.44386">
        <ele>687</ele>
        <time>2022-11-18T10:42:57Z</time>
      </trkpt>
      <trkpt lat="45.86362" lon="5.44399">
        <ele>686.52</ele>
        <time>2022-11-18T10:43:14Z</time>
      </trkpt>
      <trkpt lat="45.86359" lon="5.44402">
        <ele>686.52</ele>
        <time>2022-11-18T10:43:17Z</time>
      </trkpt>
      <trkpt lat="45.86354" lon="5.44409">
        <ele>686.52</ele>
        <time>2022-11-18T10:43:24Z</time>
      </trkpt>
      <trkpt lat="45.86348" lon="5.44428">
        <ele>687.48</ele>
        <time>2022-11-18T10:43:38Z</time>
      </trkpt>
      <trkpt lat="45.86345" lon="5.44449">
        <ele>688.92</ele>
        <time>2022-11-18T10:43:52Z</time>
      </trkpt>
      <trkpt lat="45.86341" lon="5.44481">
        <ele>688.92</ele>
        <time>2022-11-18T10:44:11Z</time>
      </trkpt>
      <trkpt lat="45.86342" lon="5.44504">
        <ele>688.92</ele>
        <time>2022-11-18T10:44:26Z</time>
      </trkpt>
      <trkpt lat="45.86342" lon="5.44505">
        <ele>688.44</ele>
        <time>2022-11-18T10:44:27Z</time>
      </trkpt>
      <trkpt lat="45.86342" lon="5.44512">
        <ele>688.44</ele>
        <time>2022-11-18T10:44:31Z</time>
      </trkpt>
      <trkpt lat="45.86343" lon="5.44519">
        <ele>687.96</ele>
        <time>2022-11-18T10:44:35Z</time>
      </trkpt>
      <trkpt lat="45.86342" lon="5.44549">
        <ele>686.52</ele>
        <time>2022-11-18T10:44:53Z</time>
      </trkpt>
      <trkpt lat="45.86338" lon="5.44578">
        <ele>686.04</ele>
        <time>2022-11-18T10:45:11Z</time>
      </trkpt>
      <trkpt lat="45.86336" lon="5.446">
        <ele>686.04</ele>
        <time>2022-11-18T10:45:25Z</time>
      </trkpt>
      <trkpt lat="45.86333" lon="5.44623">
        <ele>686.04</ele>
        <time>2022-11-18T10:45:39Z</time>
      </trkpt>
      <trkpt lat="45.86328" lon="5.44648">
        <ele>685.56</ele>
        <time>2022-11-18T10:45:55Z</time>
      </trkpt>
      <trkpt lat="45.86327" lon="5.4467">
        <ele>686.04</ele>
        <time>2022-11-18T10:46:10Z</time>
      </trkpt>
      <trkpt lat="45.86324" lon="5.44691">
        <ele>686.04</ele>
        <time>2022-11-18T10:46:25Z</time>
      </trkpt>
      <trkpt lat="45.86321" lon="5.44715">
        <ele>686.04</ele>
        <time>2022-11-18T10:46:41Z</time>
      </trkpt>
      <trkpt lat="45.86321" lon="5.44739">
        <ele>686.04</ele>
        <time>2022-11-18T10:46:57Z</time>
      </trkpt>
      <trkpt lat="45.8632" lon="5.44756">
        <ele>686.52</ele>
        <time>2022-11-18T10:47:09Z</time>
      </trkpt>
      <trkpt lat="45.86323" lon="5.44776">
        <ele>687.96</ele>
        <time>2022-11-18T10:47:26Z</time>
      </trkpt>
      <trkpt lat="45.86325" lon="5.44794">
        <ele>689.4</ele>
        <time>2022-11-18T10:47:42Z</time>
      </trkpt>
      <trkpt lat="45.86326" lon="5.44813">
        <ele>690.84</ele>
        <time>2022-11-18T10:48:02Z</time>
      </trkpt>
      <trkpt lat="45.86329" lon="5.44841">
        <ele>691.81</ele>
        <time>2022-11-18T10:48:21Z</time>
      </trkpt>
      <trkpt lat="45.86332" lon="5.4486">
        <ele>693.73</ele>
        <time>2022-11-18T10:48:38Z</time>
      </trkpt>
      <trkpt lat="45.86331" lon="5.44877">
        <ele>693.73</ele>
        <time>2022-11-18T10:48:57Z</time>
      </trkpt>
      <trkpt lat="45.86326" lon="5.44884">
        <ele>693.25</ele>
        <time>2022-11-18T10:49:22Z</time>
      </trkpt>
      <trkpt lat="45.86325" lon="5.44887">
        <ele>693.25</ele>
        <time>2022-11-18T10:49:47Z</time>
      </trkpt>
      <trkpt lat="45.86322" lon="5.44895">
        <ele>693.25</ele>
        <time>2022-11-18T10:50:10Z</time>
      </trkpt>
      <trkpt lat="45.86313" lon="5.44895">
        <ele>690.36</ele>
        <time>2022-11-18T10:50:27Z</time>
      </trkpt>
      <trkpt lat="45.86302" lon="5.44892">
        <ele>687</ele>
        <time>2022-11-18T10:50:41Z</time>
      </trkpt>
      <trkpt lat="45.86294" lon="5.44889">
        <ele>683.63</ele>
        <time>2022-11-18T10:51:02Z</time>
      </trkpt>
      <trkpt lat="45.86284" lon="5.4489">
        <ele>680.75</ele>
        <time>2022-11-18T10:51:21Z</time>
      </trkpt>
      <trkpt lat="45.86274" lon="5.44887">
        <ele>677.87</ele>
        <time>2022-11-18T10:51:41Z</time>
      </trkpt>
      <trkpt lat="45.86262" lon="5.4488">
        <ele>674.5</ele>
        <time>2022-11-18T10:52:00Z</time>
      </trkpt>
      <trkpt lat="45.86255" lon="5.44874">
        <ele>671.62</ele>
        <time>2022-11-18T10:52:16Z</time>
      </trkpt>
      <trkpt lat="45.86246" lon="5.44868">
        <ele>668.25</ele>
        <time>2022-11-18T10:52:33Z</time>
      </trkpt>
      <trkpt lat="45.86236" lon="5.44857">
        <ele>665.37</ele>
        <time>2022-11-18T10:52:48Z</time>
      </trkpt>
      <trkpt lat="45.86231" lon="5.4485">
        <ele>662.49</ele>
        <time>2022-11-18T10:53:00Z</time>
      </trkpt>
      <trkpt lat="45.86218" lon="5.4484">
        <ele>659.6</ele>
        <time>2022-11-18T10:53:14Z</time>
      </trkpt>
      <trkpt lat="45.86206" lon="5.44831">
        <ele>656.24</ele>
        <time>2022-11-18T10:53:31Z</time>
      </trkpt>
      <trkpt lat="45.86191" lon="5.4482">
        <ele>653.35</ele>
        <time>2022-11-18T10:53:48Z</time>
      </trkpt>
      <trkpt lat="45.8618" lon="5.4481">
        <ele>649.99</ele>
        <time>2022-11-18T10:54:06Z</time>
      </trkpt>
      <trkpt lat="45.86172" lon="5.44804">
        <ele>648.55</ele>
        <time>2022-11-18T10:54:15Z</time>
      </trkpt>
      <trkpt lat="45.86169" lon="5.44802">
        <ele>646.62</ele>
        <time>2022-11-18T10:54:44Z</time>
      </trkpt>
      <trkpt lat="45.86169" lon="5.44807">
        <ele>646.62</ele>
        <time>2022-11-18T10:55:18Z</time>
      </trkpt>
      <trkpt lat="45.86167" lon="5.44805">
        <ele>647.59</ele>
        <time>2022-11-18T10:55:46Z</time>
      </trkpt>
      <trkpt lat="45.86162" lon="5.448">
        <ele>647.59</ele>
        <time>2022-11-18T10:56:05Z</time>
      </trkpt>
      <trkpt lat="45.86146" lon="5.44797">
        <ele>645.18</ele>
        <time>2022-11-18T10:56:22Z</time>
      </trkpt>
      <trkpt lat="45.86134" lon="5.44798">
        <ele>642.3</ele>
        <time>2022-11-18T10:56:38Z</time>
      </trkpt>
      <trkpt lat="45.86131" lon="5.44793">
        <ele>639.41</ele>
        <time>2022-11-18T10:56:57Z</time>
      </trkpt>
      <trkpt lat="45.86125" lon="5.44788">
        <ele>637.49</ele>
        <time>2022-11-18T10:57:07Z</time>
      </trkpt>
      <trkpt lat="45.86119" lon="5.4478">
        <ele>634.13</ele>
        <time>2022-11-18T10:57:26Z</time>
      </trkpt>
      <trkpt lat="45.8611" lon="5.44768">
        <ele>630.76</ele>
        <time>2022-11-18T10:57:44Z</time>
      </trkpt>
      <trkpt lat="45.86098" lon="5.44766">
        <ele>627.88</ele>
        <time>2022-11-18T10:58:02Z</time>
      </trkpt>
      <trkpt lat="45.86085" lon="5.44763">
        <ele>624.99</ele>
        <time>2022-11-18T10:58:17Z</time>
      </trkpt>
      <trkpt lat="45.86075" lon="5.44766">
        <ele>621.63</ele>
        <time>2022-11-18T10:58:35Z</time>
      </trkpt>
      <trkpt lat="45.86064" lon="5.44777">
        <ele>618.26</ele>
        <time>2022-11-18T10:58:48Z</time>
      </trkpt>
      <trkpt lat="45.8605" lon="5.44787">
        <ele>615.38</ele>
        <time>2022-11-18T10:59:04Z</time>
      </trkpt>
      <trkpt lat="45.86036" lon="5.44791">
        <ele>612.5</ele>
        <time>2022-11-18T10:59:22Z</time>
      </trkpt>
      <trkpt lat="45.86021" lon="5.44799">
        <ele>609.61</ele>
        <time>2022-11-18T10:59:40Z</time>
      </trkpt>
      <trkpt lat="45.86005" lon="5.44795">
        <ele>606.73</ele>
        <time>2022-11-18T11:00:01Z</time>
      </trkpt>
      <trkpt lat="45.85992" lon="5.44786">
        <ele>603.36</ele>
        <time>2022-11-18T11:00:22Z</time>
      </trkpt>
      <trkpt lat="45.85983" lon="5.44782">
        <ele>600</ele>
        <time>2022-11-18T11:00:38Z</time>
      </trkpt>
      <trkpt lat="45.85977" lon="5.44774">
        <ele>597.12</ele>
        <time>2022-11-18T11:00:56Z</time>
      </trkpt>
      <trkpt lat="45.85971" lon="5.44773">
        <ele>595.67</ele>
        <time>2022-11-18T11:01:21Z</time>
      </trkpt>
      <trkpt lat="45.85967" lon="5.44772">
        <ele>594.23</ele>
        <time>2022-11-18T11:01:42Z</time>
      </trkpt>
      <trkpt lat="45.85958" lon="5.44769">
        <ele>595.67</ele>
        <time>2022-11-18T11:01:58Z</time>
      </trkpt>
      <trkpt lat="45.85953" lon="5.44766">
        <ele>596.15</ele>
        <time>2022-11-18T11:02:04Z</time>
      </trkpt>
      <trkpt lat="45.8595" lon="5.44765">
        <ele>597.12</ele>
        <time>2022-11-18T11:02:19Z</time>
      </trkpt>
      <trkpt lat="45.85949" lon="5.44765">
        <ele>596.64</ele>
        <time>2022-11-18T11:02:41Z</time>
      </trkpt>
      <trkpt lat="45.85948" lon="5.44764">
        <ele>596.64</ele>
        <time>2022-11-18T11:03:15Z</time>
      </trkpt>
      <trkpt lat="45.85947" lon="5.44763">
        <ele>596.64</ele>
        <time>2022-11-18T11:03:46Z</time>
      </trkpt>
      <trkpt lat="45.8595" lon="5.44758">
        <ele>596.64</ele>
        <time>2022-11-18T11:04:14Z</time>
      </trkpt>
      <trkpt lat="45.85954" lon="5.44755">
        <ele>596.64</ele>
        <time>2022-11-18T11:04:40Z</time>
      </trkpt>
      <trkpt lat="45.85953" lon="5.44756">
        <ele>596.64</ele>
        <time>2022-11-18T11:05:06Z</time>
      </trkpt>
      <trkpt lat="45.85954" lon="5.44755">
        <ele>596.64</ele>
        <time>2022-11-18T11:05:50Z</time>
      </trkpt>
      <trkpt lat="45.85954" lon="5.44756">
        <ele>596.64</ele>
        <time>2022-11-18T11:06:51Z</time>
      </trkpt>
      <trkpt lat="45.85953" lon="5.44756">
        <ele>596.64</ele>
        <time>2022-11-18T11:07:48Z</time>
      </trkpt>
      <trkpt lat="45.85953" lon="5.44757">
        <ele>596.64</ele>
        <time>2022-11-18T11:08:20Z</time>
      </trkpt>
      <trkpt lat="45.85952" lon="5.44756">
        <ele>596.64</ele>
        <time>2022-11-18T11:09:12Z</time>
      </trkpt>
      <trkpt lat="45.85951" lon="5.44756">
        <ele>596.64</ele>
        <time>2022-11-18T11:09:58Z</time>
      </trkpt>
      <trkpt lat="45.85952" lon="5.44756">
        <ele>596.64</ele>
        <time>2022-11-18T11:13:38Z</time>
      </trkpt>
      <trkpt lat="45.85951" lon="5.44757">
        <ele>596.64</ele>
        <time>2022-11-18T11:15:13Z</time>
      </trkpt>
      <trkpt lat="45.85951" lon="5.44756">
        <ele>596.64</ele>
        <time>2022-11-18T11:16:39Z</time>
      </trkpt>
      <trkpt lat="45.85951" lon="5.44757">
        <ele>596.64</ele>
        <time>2022-11-18T11:18:08Z</time>
      </trkpt>
      <trkpt lat="45.8595" lon="5.44756">
        <ele>596.64</ele>
        <time>2022-11-18T11:21:09Z</time>
      </trkpt>
      <trkpt lat="45.85949" lon="5.44757">
        <ele>596.64</ele>
        <time>2022-11-18T11:22:40Z</time>
      </trkpt>
      <trkpt lat="45.85951" lon="5.44757">
        <ele>596.64</ele>
        <time>2022-11-18T11:24:22Z</time>
      </trkpt>
      <trkpt lat="45.8595" lon="5.44758">
        <ele>596.64</ele>
        <time>2022-11-18T11:26:08Z</time>
      </trkpt>
      <trkpt lat="45.8595" lon="5.44757">
        <ele>596.64</ele>
        <time>2022-11-18T11:27:46Z</time>
      </trkpt>
      <trkpt lat="45.85951" lon="5.44757">
        <ele>596.64</ele>
        <time>2022-11-18T11:29:05Z</time>
      </trkpt>
      <trkpt lat="45.85952" lon="5.44757">
        <ele>596.64</ele>
        <time>2022-11-18T11:29:35Z</time>
      </trkpt>
      <trkpt lat="45.85951" lon="5.44759">
        <ele>596.64</ele>
        <time>2022-11-18T11:30:32Z</time>
      </trkpt>
      <trkpt lat="45.85952" lon="5.44758">
        <ele>596.64</ele>
        <time>2022-11-18T11:31:33Z</time>
      </trkpt>
      <trkpt lat="45.85951" lon="5.44759">
        <ele>596.64</ele>
        <time>2022-11-18T11:32:14Z</time>
      </trkpt>
      <trkpt lat="45.8595" lon="5.44758">
        <ele>596.64</ele>
        <time>2022-11-18T11:33:11Z</time>
      </trkpt>
      <trkpt lat="45.85949" lon="5.44758">
        <ele>596.64</ele>
        <time>2022-11-18T11:35:10Z</time>
      </trkpt>
      <trkpt lat="45.85949" lon="5.44757">
        <ele>596.64</ele>
        <time>2022-11-18T11:36:28Z</time>
      </trkpt>
      <trkpt lat="45.8595" lon="5.44757">
        <ele>596.64</ele>
        <time>2022-11-18T11:37:43Z</time>
      </trkpt>
      <trkpt lat="45.8595" lon="5.44759">
        <ele>596.64</ele>
        <time>2022-11-18T11:38:40Z</time>
      </trkpt>
      <trkpt lat="45.8595" lon="5.44758">
        <ele>596.64</ele>
        <time>2022-11-18T11:39:19Z</time>
      </trkpt>
      <trkpt lat="45.85951" lon="5.44756">
        <ele>596.64</ele>
        <time>2022-11-18T11:39:50Z</time>
      </trkpt>
      <trkpt lat="45.85951" lon="5.44757">
        <ele>596.64</ele>
        <time>2022-11-18T11:40:31Z</time>
      </trkpt>
      <trkpt lat="45.85952" lon="5.44756">
        <ele>596.64</ele>
        <time>2022-11-18T11:42:15Z</time>
      </trkpt>
      <trkpt lat="45.8595" lon="5.44758">
        <ele>596.64</ele>
        <time>2022-11-18T11:43:51Z</time>
      </trkpt>
      <trkpt lat="45.85951" lon="5.44759">
        <ele>596.64</ele>
        <time>2022-11-18T11:44:22Z</time>
      </trkpt>
      <trkpt lat="45.8595" lon="5.44757">
        <ele>596.64</ele>
        <time>2022-11-18T11:44:59Z</time>
      </trkpt>
      <trkpt lat="45.8595" lon="5.44756">
        <ele>596.64</ele>
        <time>2022-11-18T11:45:27Z</time>
      </trkpt>
      <trkpt lat="45.8595" lon="5.44755">
        <ele>596.64</ele>
        <time>2022-11-18T11:45:56Z</time>
      </trkpt>
      <trkpt lat="45.8595" lon="5.44757">
        <ele>596.64</ele>
        <time>2022-11-18T11:46:22Z</time>
      </trkpt>
      <trkpt lat="45.85949" lon="5.44757">
        <ele>596.64</ele>
        <time>2022-11-18T11:47:12Z</time>
      </trkpt>
      <trkpt lat="45.8595" lon="5.44757">
        <ele>596.64</ele>
        <time>2022-11-18T11:48:18Z</time>
      </trkpt>
      <trkpt lat="45.85951" lon="5.44757">
        <ele>596.64</ele>
        <time>2022-11-18T11:49:07Z</time>
      </trkpt>
      <trkpt lat="45.8595" lon="5.44755">
        <ele>596.64</ele>
        <time>2022-11-18T11:50:08Z</time>
      </trkpt>
      <trkpt lat="45.85949" lon="5.44756">
        <ele>596.64</ele>
        <time>2022-11-18T11:50:36Z</time>
      </trkpt>
      <trkpt lat="45.8595" lon="5.44756">
        <ele>596.64</ele>
        <time>2022-11-18T11:51:10Z</time>
      </trkpt>
      <trkpt lat="45.85949" lon="5.44755">
        <ele>596.64</ele>
        <time>2022-11-18T11:52:13Z</time>
      </trkpt>
      <trkpt lat="45.85949" lon="5.44756">
        <ele>596.64</ele>
        <time>2022-11-18T11:52:42Z</time>
      </trkpt>
      <trkpt lat="45.85949" lon="5.44757">
        <ele>596.64</ele>
        <time>2022-11-18T11:53:45Z</time>
      </trkpt>
      <trkpt lat="45.85948" lon="5.44757">
        <ele>596.64</ele>
        <time>2022-11-18T11:54:07Z</time>
      </trkpt>
      <trkpt lat="45.85949" lon="5.44756">
        <ele>596.64</ele>
        <time>2022-11-18T11:54:37Z</time>
      </trkpt>
      <trkpt lat="45.85949" lon="5.44757">
        <ele>596.64</ele>
        <time>2022-11-18T11:55:03Z</time>
      </trkpt>
      <trkpt lat="45.85949" lon="5.44758">
        <ele>596.64</ele>
        <time>2022-11-18T11:55:27Z</time>
      </trkpt>
      <trkpt lat="45.8595" lon="5.44758">
        <ele>596.64</ele>
        <time>2022-11-18T11:55:50Z</time>
      </trkpt>
      <trkpt lat="45.85949" lon="5.44755">
        <ele>596.64</ele>
        <time>2022-11-18T11:56:15Z</time>
      </trkpt>
      <trkpt lat="45.8595" lon="5.44757">
        <ele>596.64</ele>
        <time>2022-11-18T11:56:39Z</time>
      </trkpt>
      <trkpt lat="45.85954" lon="5.44763">
        <ele>596.64</ele>
        <time>2022-11-18T11:57:01Z</time>
      </trkpt>
      <trkpt lat="45.85961" lon="5.44766">
        <ele>596.64</ele>
        <time>2022-11-18T11:57:21Z</time>
      </trkpt>
      <trkpt lat="45.85967" lon="5.44768">
        <ele>596.64</ele>
        <time>2022-11-18T11:57:29Z</time>
      </trkpt>
      <trkpt lat="45.85972" lon="5.44775">
        <ele>590.87</ele>
        <time>2022-11-18T11:57:49Z</time>
      </trkpt>
      <trkpt lat="45.85964" lon="5.44793">
        <ele>588.95</ele>
        <time>2022-11-18T11:58:13Z</time>
      </trkpt>
      <trkpt lat="45.8596" lon="5.44801">
        <ele>585.58</ele>
        <time>2022-11-18T11:58:29Z</time>
      </trkpt>
      <trkpt lat="45.85959" lon="5.44811">
        <ele>582.7</ele>
        <time>2022-11-18T11:58:48Z</time>
      </trkpt>
      <trkpt lat="45.85959" lon="5.44816">
        <ele>581.25</ele>
        <time>2022-11-18T11:58:54Z</time>
      </trkpt>
      <trkpt lat="45.85962" lon="5.44827">
        <ele>579.81</ele>
        <time>2022-11-18T11:59:01Z</time>
      </trkpt>
      <trkpt lat="45.85958" lon="5.44839">
        <ele>576.45</ele>
        <time>2022-11-18T11:59:17Z</time>
      </trkpt>
      <trkpt lat="45.85953" lon="5.44849">
        <ele>574.04</ele>
        <time>2022-11-18T11:59:38Z</time>
      </trkpt>
      <trkpt lat="45.85954" lon="5.44858">
        <ele>571.16</ele>
        <time>2022-11-18T11:59:56Z</time>
      </trkpt>
      <trkpt lat="45.85957" lon="5.44865">
        <ele>568.28</ele>
        <time>2022-11-18T12:00:15Z</time>
      </trkpt>
      <trkpt lat="45.85966" lon="5.44882">
        <ele>564.91</ele>
        <time>2022-11-18T12:00:35Z</time>
      </trkpt>
      <trkpt lat="45.85967" lon="5.44884">
        <ele>563.95</ele>
        <time>2022-11-18T12:00:40Z</time>
      </trkpt>
      <trkpt lat="45.85969" lon="5.44888">
        <ele>562.99</ele>
        <time>2022-11-18T12:00:44Z</time>
      </trkpt>
      <trkpt lat="45.85977" lon="5.449">
        <ele>560.11</ele>
        <time>2022-11-18T12:01:03Z</time>
      </trkpt>
      <trkpt lat="45.85982" lon="5.44918">
        <ele>557.22</ele>
        <time>2022-11-18T12:01:20Z</time>
      </trkpt>
      <trkpt lat="45.85972" lon="5.44917">
        <ele>553.86</ele>
        <time>2022-11-18T12:01:39Z</time>
      </trkpt>
      <trkpt lat="45.85958" lon="5.44917">
        <ele>550.97</ele>
        <time>2022-11-18T12:01:56Z</time>
      </trkpt>
      <trkpt lat="45.85946" lon="5.44912">
        <ele>547.61</ele>
        <time>2022-11-18T12:02:13Z</time>
      </trkpt>
      <trkpt lat="45.85935" lon="5.44909">
        <ele>544.72</ele>
        <time>2022-11-18T12:02:26Z</time>
      </trkpt>
      <trkpt lat="45.85923" lon="5.44905">
        <ele>541.84</ele>
        <time>2022-11-18T12:02:46Z</time>
      </trkpt>
      <trkpt lat="45.85911" lon="5.44892">
        <ele>538.48</ele>
        <time>2022-11-18T12:03:03Z</time>
      </trkpt>
      <trkpt lat="45.85903" lon="5.44873">
        <ele>535.59</ele>
        <time>2022-11-18T12:03:21Z</time>
      </trkpt>
      <trkpt lat="45.85896" lon="5.44848">
        <ele>532.71</ele>
        <time>2022-11-18T12:03:42Z</time>
      </trkpt>
      <trkpt lat="45.85894" lon="5.4483">
        <ele>530.79</ele>
        <time>2022-11-18T12:04:01Z</time>
      </trkpt>
      <trkpt lat="45.85893" lon="5.44803">
        <ele>527.9</ele>
        <time>2022-11-18T12:04:21Z</time>
      </trkpt>
      <trkpt lat="45.85893" lon="5.44781">
        <ele>525.98</ele>
        <time>2022-11-18T12:04:42Z</time>
      </trkpt>
      <trkpt lat="45.85894" lon="5.4476">
        <ele>523.58</ele>
        <time>2022-11-18T12:05:02Z</time>
      </trkpt>
      <trkpt lat="45.85888" lon="5.44738">
        <ele>521.17</ele>
        <time>2022-11-18T12:05:20Z</time>
      </trkpt>
      <trkpt lat="45.85885" lon="5.44714">
        <ele>518.29</ele>
        <time>2022-11-18T12:05:39Z</time>
      </trkpt>
      <trkpt lat="45.85886" lon="5.44691">
        <ele>515.4</ele>
        <time>2022-11-18T12:05:59Z</time>
      </trkpt>
      <trkpt lat="45.85889" lon="5.44668">
        <ele>512.04</ele>
        <time>2022-11-18T12:06:14Z</time>
      </trkpt>
      <trkpt lat="45.85891" lon="5.44645">
        <ele>509.16</ele>
        <time>2022-11-18T12:06:32Z</time>
      </trkpt>
      <trkpt lat="45.85892" lon="5.44625">
        <ele>505.79</ele>
        <time>2022-11-18T12:06:50Z</time>
      </trkpt>
      <trkpt lat="45.85898" lon="5.44599">
        <ele>502.91</ele>
        <time>2022-11-18T12:07:09Z</time>
      </trkpt>
      <trkpt lat="45.85904" lon="5.44578">
        <ele>500.02</ele>
        <time>2022-11-18T12:07:27Z</time>
      </trkpt>
      <trkpt lat="45.85906" lon="5.44556">
        <ele>496.66</ele>
        <time>2022-11-18T12:07:43Z</time>
      </trkpt>
      <trkpt lat="45.85907" lon="5.44539">
        <ele>493.77</ele>
        <time>2022-11-18T12:07:57Z</time>
      </trkpt>
      <trkpt lat="45.8591" lon="5.44521">
        <ele>490.41</ele>
        <time>2022-11-18T12:08:13Z</time>
      </trkpt>
      <trkpt lat="45.85911" lon="5.44505">
        <ele>487.53</ele>
        <time>2022-11-18T12:08:27Z</time>
      </trkpt>
      <trkpt lat="45.85914" lon="5.44491">
        <ele>484.64</ele>
        <time>2022-11-18T12:08:44Z</time>
      </trkpt>
      <trkpt lat="45.85916" lon="5.44473">
        <ele>481.76</ele>
        <time>2022-11-18T12:09:04Z</time>
      </trkpt>
      <trkpt lat="45.85912" lon="5.44451">
        <ele>478.39</ele>
        <time>2022-11-18T12:09:23Z</time>
      </trkpt>
      <trkpt lat="45.8591" lon="5.44437">
        <ele>475.51</ele>
        <time>2022-11-18T12:09:41Z</time>
      </trkpt>
      <trkpt lat="45.85899" lon="5.4442">
        <ele>472.63</ele>
        <time>2022-11-18T12:10:01Z</time>
      </trkpt>
      <trkpt lat="45.85889" lon="5.44415">
        <ele>469.74</ele>
        <time>2022-11-18T12:10:20Z</time>
      </trkpt>
      <trkpt lat="45.8588" lon="5.44414">
        <ele>467.34</ele>
        <time>2022-11-18T12:10:39Z</time>
      </trkpt>
      <trkpt lat="45.85865" lon="5.44404">
        <ele>463.97</ele>
        <time>2022-11-18T12:10:59Z</time>
      </trkpt>
      <trkpt lat="45.85852" lon="5.44396">
        <ele>461.09</ele>
        <time>2022-11-18T12:11:22Z</time>
      </trkpt>
      <trkpt lat="45.8585" lon="5.44401">
        <ele>460.13</ele>
        <time>2022-11-18T12:11:43Z</time>
      </trkpt>
      <trkpt lat="45.85848" lon="5.44408">
        <ele>460.61</ele>
        <time>2022-11-18T12:12:09Z</time>
      </trkpt>
      <trkpt lat="45.85847" lon="5.44409">
        <ele>460.61</ele>
        <time>2022-11-18T12:12:28Z</time>
      </trkpt>
      <trkpt lat="45.85846" lon="5.44408">
        <ele>460.61</ele>
        <time>2022-11-18T12:12:54Z</time>
      </trkpt>
      <trkpt lat="45.85845" lon="5.44414">
        <ele>460.61</ele>
        <time>2022-11-18T12:13:20Z</time>
      </trkpt>
      <trkpt lat="45.85844" lon="5.44416">
        <ele>460.61</ele>
        <time>2022-11-18T12:13:45Z</time>
      </trkpt>
      <trkpt lat="45.85848" lon="5.44408">
        <ele>460.61</ele>
        <time>2022-11-18T12:14:09Z</time>
      </trkpt>
      <trkpt lat="45.85849" lon="5.44407">
        <ele>460.61</ele>
        <time>2022-11-18T12:14:54Z</time>
      </trkpt>
      <trkpt lat="45.85847" lon="5.44398">
        <ele>460.61</ele>
        <time>2022-11-18T12:15:13Z</time>
      </trkpt>
      <trkpt lat="45.85838" lon="5.44386">
        <ele>460.61</ele>
        <time>2022-11-18T12:15:31Z</time>
      </trkpt>
      <trkpt lat="45.85823" lon="5.44365">
        <ele>460.61</ele>
        <time>2022-11-18T12:15:54Z</time>
      </trkpt>
      <trkpt lat="45.85817" lon="5.44355">
        <ele>456.28</ele>
        <time>2022-11-18T12:16:03Z</time>
      </trkpt>
      <trkpt lat="45.85811" lon="5.44346">
        <ele>453.4</ele>
        <time>2022-11-18T12:16:15Z</time>
      </trkpt>
      <trkpt lat="45.85802" lon="5.44332">
        <ele>451.48</ele>
        <time>2022-11-18T12:16:31Z</time>
      </trkpt>
      <trkpt lat="45.85791" lon="5.44322">
        <ele>449.07</ele>
        <time>2022-11-18T12:16:47Z</time>
      </trkpt>
      <trkpt lat="45.8578" lon="5.4431">
        <ele>446.19</ele>
        <time>2022-11-18T12:17:06Z</time>
      </trkpt>
      <trkpt lat="45.85767" lon="5.44297">
        <ele>442.82</ele>
        <time>2022-11-18T12:17:22Z</time>
      </trkpt>
      <trkpt lat="45.85761" lon="5.4428">
        <ele>439.94</ele>
        <time>2022-11-18T12:17:39Z</time>
      </trkpt>
      <trkpt lat="45.85753" lon="5.44261">
        <ele>437.54</ele>
        <time>2022-11-18T12:17:56Z</time>
      </trkpt>
      <trkpt lat="45.85751" lon="5.44257">
        <ele>437.06</ele>
        <time>2022-11-18T12:17:59Z</time>
      </trkpt>
      <trkpt lat="45.85746" lon="5.44243">
        <ele>435.61</ele>
        <time>2022-11-18T12:18:09Z</time>
      </trkpt>
      <trkpt lat="45.85739" lon="5.44224">
        <ele>432.73</ele>
        <time>2022-11-18T12:18:26Z</time>
      </trkpt>
      <trkpt lat="45.85734" lon="5.44209">
        <ele>430.33</ele>
        <time>2022-11-18T12:18:41Z</time>
      </trkpt>
      <trkpt lat="45.85726" lon="5.44191">
        <ele>427.44</ele>
        <time>2022-11-18T12:18:59Z</time>
      </trkpt>
      <trkpt lat="45.85721" lon="5.44178">
        <ele>425.52</ele>
        <time>2022-11-18T12:19:15Z</time>
      </trkpt>
      <trkpt lat="45.85721" lon="5.44177">
        <ele>425.52</ele>
        <time>2022-11-18T12:20:06Z</time>
      </trkpt>
      <trkpt lat="45.8572" lon="5.44175">
        <ele>425.04</ele>
        <time>2022-11-18T12:20:48Z</time>
      </trkpt>
      <trkpt lat="45.85721" lon="5.44176">
        <ele>425.04</ele>
        <time>2022-11-18T12:21:13Z</time>
      </trkpt>
      <trkpt lat="45.85722" lon="5.44176">
        <ele>425.04</ele>
        <time>2022-11-18T12:21:42Z</time>
      </trkpt>
      <trkpt lat="45.85722" lon="5.44177">
        <ele>425.04</ele>
        <time>2022-11-18T12:22:28Z</time>
      </trkpt>
      <trkpt lat="45.85722" lon="5.44178">
        <ele>425.04</ele>
        <time>2022-11-18T12:22:56Z</time>
      </trkpt>
      <trkpt lat="45.85722" lon="5.44189">
        <ele>425.04</ele>
        <time>2022-11-18T12:23:16Z</time>
      </trkpt>
      <trkpt lat="45.85728" lon="5.44204">
        <ele>425.04</ele>
        <time>2022-11-18T12:23:33Z</time>
      </trkpt>
      <trkpt lat="45.85732" lon="5.44221">
        <ele>425.04</ele>
        <time>2022-11-18T12:23:50Z</time>
      </trkpt>
      <trkpt lat="45.85737" lon="5.44239">
        <ele>425.04</ele>
        <time>2022-11-18T12:24:09Z</time>
      </trkpt>
      <trkpt lat="45.85742" lon="5.44248">
        <ele>429.85</ele>
        <time>2022-11-18T12:24:18Z</time>
      </trkpt>
      <trkpt lat="45.85742" lon="5.4425">
        <ele>429.85</ele>
        <time>2022-11-18T12:24:19Z</time>
      </trkpt>
      <trkpt lat="45.85743" lon="5.44266">
        <ele>430.33</ele>
        <time>2022-11-18T12:24:37Z</time>
      </trkpt>
      <trkpt lat="45.85743" lon="5.44272">
        <ele>430.33</ele>
        <time>2022-11-18T12:24:40Z</time>
      </trkpt>
      <trkpt lat="45.85742" lon="5.44294">
        <ele>429.85</ele>
        <time>2022-11-18T12:24:56Z</time>
      </trkpt>
      <trkpt lat="45.85742" lon="5.44321">
        <ele>428.4</ele>
        <time>2022-11-18T12:25:13Z</time>
      </trkpt>
      <trkpt lat="45.8574" lon="5.4435">
        <ele>428.4</ele>
        <time>2022-11-18T12:25:31Z</time>
      </trkpt>
      <trkpt lat="45.85736" lon="5.44374">
        <ele>428.4</ele>
        <time>2022-11-18T12:25:47Z</time>
      </trkpt>
      <trkpt lat="45.85735" lon="5.44398">
        <ele>428.4</ele>
        <time>2022-11-18T12:26:01Z</time>
      </trkpt>
      <trkpt lat="45.85735" lon="5.44419">
        <ele>426.96</ele>
        <time>2022-11-18T12:26:17Z</time>
      </trkpt>
      <trkpt lat="45.85734" lon="5.44447">
        <ele>426.48</ele>
        <time>2022-11-18T12:26:34Z</time>
      </trkpt>
      <trkpt lat="45.85734" lon="5.44475">
        <ele>426.48</ele>
        <time>2022-11-18T12:26:52Z</time>
      </trkpt>
      <trkpt lat="45.85738" lon="5.44499">
        <ele>426.96</ele>
        <time>2022-11-18T12:27:08Z</time>
      </trkpt>
      <trkpt lat="45.85741" lon="5.44521">
        <ele>427.44</ele>
        <time>2022-11-18T12:27:26Z</time>
      </trkpt>
      <trkpt lat="45.85739" lon="5.44527">
        <ele>428.4</ele>
        <time>2022-11-18T12:27:48Z</time>
      </trkpt>
      <trkpt lat="45.85737" lon="5.44534">
        <ele>427.92</ele>
        <time>2022-11-18T12:28:16Z</time>
      </trkpt>
      <trkpt lat="45.85736" lon="5.44542">
        <ele>427.92</ele>
        <time>2022-11-18T12:28:48Z</time>
      </trkpt>
      <trkpt lat="45.8574" lon="5.44547">
        <ele>427.92</ele>
        <time>2022-11-18T12:29:07Z</time>
      </trkpt>
      <trkpt lat="45.85737" lon="5.44563">
        <ele>430.81</ele>
        <time>2022-11-18T12:29:29Z</time>
      </trkpt>
      <trkpt lat="45.85732" lon="5.44578">
        <ele>432.25</ele>
        <time>2022-11-18T12:29:47Z</time>
      </trkpt>
      <trkpt lat="45.8572" lon="5.4458">
        <ele>430.33</ele>
        <time>2022-11-18T12:30:09Z</time>
      </trkpt>
      <trkpt lat="45.85709" lon="5.44591">
        <ele>431.29</ele>
        <time>2022-11-18T12:30:24Z</time>
      </trkpt>
      <trkpt lat="45.85696" lon="5.44608">
        <ele>431.29</ele>
        <time>2022-11-18T12:30:44Z</time>
      </trkpt>
      <trkpt lat="45.85681" lon="5.44621">
        <ele>431.29</ele>
        <time>2022-11-18T12:31:00Z</time>
      </trkpt>
      <trkpt lat="45.85674" lon="5.44642">
        <ele>431.29</ele>
        <time>2022-11-18T12:31:19Z</time>
      </trkpt>
      <trkpt lat="45.85669" lon="5.4467">
        <ele>431.29</ele>
        <time>2022-11-18T12:31:37Z</time>
      </trkpt>
      <trkpt lat="45.85661" lon="5.44698">
        <ele>431.29</ele>
        <time>2022-11-18T12:31:55Z</time>
      </trkpt>
      <trkpt lat="45.85649" lon="5.44715">
        <ele>430.81</ele>
        <time>2022-11-18T12:32:10Z</time>
      </trkpt>
      <trkpt lat="45.85647" lon="5.44715">
        <ele>430.81</ele>
        <time>2022-11-18T12:32:33Z</time>
      </trkpt>
      <trkpt lat="45.85648" lon="5.44716">
        <ele>430.33</ele>
        <time>2022-11-18T12:32:55Z</time>
      </trkpt>
      <trkpt lat="45.85653" lon="5.44708">
        <ele>430.33</ele>
        <time>2022-11-18T12:33:19Z</time>
      </trkpt>
      <trkpt lat="45.85662" lon="5.44692">
        <ele>430.33</ele>
        <time>2022-11-18T12:33:35Z</time>
      </trkpt>
      <trkpt lat="45.85668" lon="5.44679">
        <ele>430.33</ele>
        <time>2022-11-18T12:33:53Z</time>
      </trkpt>
      <trkpt lat="45.85674" lon="5.44688">
        <ele>430.33</ele>
        <time>2022-11-18T12:34:11Z</time>
      </trkpt>
      <trkpt lat="45.85674" lon="5.44689">
        <ele>436.58</ele>
        <time>2022-11-18T12:34:13Z</time>
      </trkpt>
      <trkpt lat="45.85675" lon="5.44695">
        <ele>437.06</ele>
        <time>2022-11-18T12:34:21Z</time>
      </trkpt>
      <trkpt lat="45.85677" lon="5.44706">
        <ele>440.42</ele>
        <time>2022-11-18T12:34:40Z</time>
      </trkpt>
      <trkpt lat="45.85678" lon="5.44722">
        <ele>442.82</ele>
        <time>2022-11-18T12:35:01Z</time>
      </trkpt>
      <trkpt lat="45.8568" lon="5.44737">
        <ele>445.71</ele>
        <time>2022-11-18T12:35:19Z</time>
      </trkpt>
      <trkpt lat="45.85685" lon="5.44747">
        <ele>448.11</ele>
        <time>2022-11-18T12:35:37Z</time>
      </trkpt>
      <trkpt lat="45.85683" lon="5.44763">
        <ele>449.55</ele>
        <time>2022-11-18T12:35:58Z</time>
      </trkpt>
      <trkpt lat="45.85684" lon="5.44775">
        <ele>452.44</ele>
        <time>2022-11-18T12:36:18Z</time>
      </trkpt>
      <trkpt lat="45.85686" lon="5.44786">
        <ele>455.32</ele>
        <time>2022-11-18T12:36:39Z</time>
      </trkpt>
      <trkpt lat="45.85689" lon="5.44788">
        <ele>456.76</ele>
        <time>2022-11-18T12:37:02Z</time>
      </trkpt>
      <trkpt lat="45.85689" lon="5.44797">
        <ele>459.17</ele>
        <time>2022-11-18T12:37:22Z</time>
      </trkpt>
      <trkpt lat="45.85692" lon="5.44804">
        <ele>457.24</ele>
        <time>2022-11-18T12:37:43Z</time>
      </trkpt>
      <trkpt lat="45.85695" lon="5.44824">
        <ele>454.36</ele>
        <time>2022-11-18T12:37:59Z</time>
      </trkpt>
      <trkpt lat="45.857" lon="5.4483">
        <ele>453.88</ele>
        <time>2022-11-18T12:38:18Z</time>
      </trkpt>
      <trkpt lat="45.85705" lon="5.44831">
        <ele>454.36</ele>
        <time>2022-11-18T12:38:40Z</time>
      </trkpt>
      <trkpt lat="45.85708" lon="5.44838">
        <ele>454.36</ele>
        <time>2022-11-18T12:39:07Z</time>
      </trkpt>
      <trkpt lat="45.85709" lon="5.44839">
        <ele>453.88</ele>
        <time>2022-11-18T12:39:30Z</time>
      </trkpt>
      <trkpt lat="45.85711" lon="5.44839">
        <ele>453.88</ele>
        <time>2022-11-18T12:39:51Z</time>
      </trkpt>
      <trkpt lat="45.85714" lon="5.44836">
        <ele>453.88</ele>
        <time>2022-11-18T12:40:16Z</time>
      </trkpt>
      <trkpt lat="45.85717" lon="5.44838">
        <ele>453.88</ele>
        <time>2022-11-18T12:40:42Z</time>
      </trkpt>
      <trkpt lat="45.85714" lon="5.44835">
        <ele>453.88</ele>
        <time>2022-11-18T12:40:59Z</time>
      </trkpt>
      <trkpt lat="45.85708" lon="5.44831">
        <ele>453.88</ele>
        <time>2022-11-18T12:41:27Z</time>
      </trkpt>
      <trkpt lat="45.85707" lon="5.44829">
        <ele>453.88</ele>
        <time>2022-11-18T12:41:50Z</time>
      </trkpt>
      <trkpt lat="45.85706" lon="5.44828">
        <ele>453.88</ele>
        <time>2022-11-18T12:42:16Z</time>
      </trkpt>
      <trkpt lat="45.85707" lon="5.44835">
        <ele>453.88</ele>
        <time>2022-11-18T12:42:37Z</time>
      </trkpt>
      <trkpt lat="45.857" lon="5.44849">
        <ele>453.88</ele>
        <time>2022-11-18T12:42:55Z</time>
      </trkpt>
      <trkpt lat="45.85684" lon="5.44851">
        <ele>453.88</ele>
        <time>2022-11-18T12:43:16Z</time>
      </trkpt>
      <trkpt lat="45.85673" lon="5.44851">
        <ele>453.88</ele>
        <time>2022-11-18T12:43:39Z</time>
      </trkpt>
      <trkpt lat="45.8567" lon="5.44854">
        <ele>453.88</ele>
        <time>2022-11-18T12:44:02Z</time>
      </trkpt>
      <trkpt lat="45.85663" lon="5.44862">
        <ele>453.88</ele>
        <time>2022-11-18T12:44:22Z</time>
      </trkpt>
      <trkpt lat="45.85662" lon="5.44862">
        <ele>449.55</ele>
        <time>2022-11-18T12:44:23Z</time>
      </trkpt>
      <trkpt lat="45.85656" lon="5.44863">
        <ele>446.19</ele>
        <time>2022-11-18T12:44:35Z</time>
      </trkpt>
      <trkpt lat="45.85655" lon="5.44849">
        <ele>443.79</ele>
        <time>2022-11-18T12:44:55Z</time>
      </trkpt>
      <trkpt lat="45.85652" lon="5.44837">
        <ele>440.42</ele>
        <time>2022-11-18T12:45:27Z</time>
      </trkpt>
      <trkpt lat="45.85651" lon="5.44836">
        <ele>440.42</ele>
        <time>2022-11-18T12:45:31Z</time>
      </trkpt>
      <trkpt lat="45.85649" lon="5.44826">
        <ele>439.46</ele>
        <time>2022-11-18T12:45:51Z</time>
      </trkpt>
      <trkpt lat="45.85645" lon="5.44816">
        <ele>438.98</ele>
        <time>2022-11-18T12:46:13Z</time>
      </trkpt>
      <trkpt lat="45.85649" lon="5.4481">
        <ele>438.02</ele>
        <time>2022-11-18T12:46:36Z</time>
      </trkpt>
      <trkpt lat="45.85651" lon="5.44811">
        <ele>438.02</ele>
        <time>2022-11-18T12:46:54Z</time>
      </trkpt>
      <trkpt lat="45.8565" lon="5.44808">
        <ele>438.02</ele>
        <time>2022-11-18T12:47:17Z</time>
      </trkpt>
      <trkpt lat="45.85649" lon="5.44803">
        <ele>438.02</ele>
        <time>2022-11-18T12:47:44Z</time>
      </trkpt>
      <trkpt lat="45.85648" lon="5.44798">
        <ele>438.5</ele>
        <time>2022-11-18T12:48:09Z</time>
      </trkpt>
      <trkpt lat="45.85647" lon="5.44798">
        <ele>438.98</ele>
        <time>2022-11-18T12:48:37Z</time>
      </trkpt>
      <trkpt lat="45.85645" lon="5.44797">
        <ele>438.98</ele>
        <time>2022-11-18T12:49:05Z</time>
      </trkpt>
      <trkpt lat="45.85647" lon="5.44803">
        <ele>438.98</ele>
        <time>2022-11-18T12:49:26Z</time>
      </trkpt>
      <trkpt lat="45.85649" lon="5.44802">
        <ele>438.98</ele>
        <time>2022-11-18T12:49:47Z</time>
      </trkpt>
      <trkpt lat="45.85652" lon="5.44806">
        <ele>438.98</ele>
        <time>2022-11-18T12:50:12Z</time>
      </trkpt>
      <trkpt lat="45.85649" lon="5.44806">
        <ele>438.98</ele>
        <time>2022-11-18T12:50:43Z</time>
      </trkpt>
      <trkpt lat="45.85653" lon="5.44807">
        <ele>438.98</ele>
        <time>2022-11-18T12:51:10Z</time>
      </trkpt>
      <trkpt lat="45.85652" lon="5.44806">
        <ele>438.98</ele>
        <time>2022-11-18T12:51:34Z</time>
      </trkpt>
      <trkpt lat="45.85654" lon="5.44804">
        <ele>438.98</ele>
        <time>2022-11-18T12:52:01Z</time>
      </trkpt>
      <trkpt lat="45.85653" lon="5.44801">
        <ele>438.98</ele>
        <time>2022-11-18T12:52:24Z</time>
      </trkpt>
      <trkpt lat="45.85651" lon="5.44796">
        <ele>438.98</ele>
        <time>2022-11-18T12:52:51Z</time>
      </trkpt>
      <trkpt lat="45.85653" lon="5.44797">
        <ele>438.98</ele>
        <time>2022-11-18T12:53:15Z</time>
      </trkpt>
      <trkpt lat="45.85651" lon="5.44798">
        <ele>438.98</ele>
        <time>2022-11-18T12:53:43Z</time>
      </trkpt>
      <trkpt lat="45.85652" lon="5.448">
        <ele>438.98</ele>
        <time>2022-11-18T12:54:08Z</time>
      </trkpt>
      <trkpt lat="45.85646" lon="5.44782">
        <ele>438.98</ele>
        <time>2022-11-18T12:54:31Z</time>
      </trkpt>
      <trkpt lat="45.85649" lon="5.44764">
        <ele>438.98</ele>
        <time>2022-11-18T12:54:50Z</time>
      </trkpt>
      <trkpt lat="45.85645" lon="5.4474">
        <ele>438.98</ele>
        <time>2022-11-18T12:55:14Z</time>
      </trkpt>
      <trkpt lat="45.85644" lon="5.44715">
        <ele>438.98</ele>
        <time>2022-11-18T12:55:32Z</time>
      </trkpt>
      <trkpt lat="45.85644" lon="5.44714">
        <ele>432.25</ele>
        <time>2022-11-18T12:55:34Z</time>
      </trkpt>
      <trkpt lat="45.85644" lon="5.44712">
        <ele>431.77</ele>
        <time>2022-11-18T12:55:35Z</time>
      </trkpt>
      <trkpt lat="45.85648" lon="5.44694">
        <ele>428.89</ele>
        <time>2022-11-18T12:55:54Z</time>
      </trkpt>
      <trkpt lat="45.85652" lon="5.4468">
        <ele>426</ele>
        <time>2022-11-18T12:56:10Z</time>
      </trkpt>
      <trkpt lat="45.85647" lon="5.44666">
        <ele>422.64</ele>
        <time>2022-11-18T12:56:25Z</time>
      </trkpt>
      <trkpt lat="45.85645" lon="5.44651">
        <ele>419.75</ele>
        <time>2022-11-18T12:56:42Z</time>
      </trkpt>
      <trkpt lat="45.85635" lon="5.44637">
        <ele>416.39</ele>
        <time>2022-11-18T12:56:56Z</time>
      </trkpt>
      <trkpt lat="45.85626" lon="5.44631">
        <ele>413.5</ele>
        <time>2022-11-18T12:57:11Z</time>
      </trkpt>
      <trkpt lat="45.85617" lon="5.44625">
        <ele>410.62</ele>
        <time>2022-11-18T12:57:21Z</time>
      </trkpt>
      <trkpt lat="45.85608" lon="5.44623">
        <ele>407.26</ele>
        <time>2022-11-18T12:57:34Z</time>
      </trkpt>
      <trkpt lat="45.85603" lon="5.4462">
        <ele>404.37</ele>
        <time>2022-11-18T12:57:54Z</time>
      </trkpt>
      <trkpt lat="45.85597" lon="5.44615">
        <ele>403.41</ele>
        <time>2022-11-18T12:58:14Z</time>
      </trkpt>
      <trkpt lat="45.85593" lon="5.44604">
        <ele>401.01</ele>
        <time>2022-11-18T12:58:33Z</time>
      </trkpt>
      <trkpt lat="45.85594" lon="5.44614">
        <ele>402.45</ele>
        <time>2022-11-18T12:58:56Z</time>
      </trkpt>
      <trkpt lat="45.85596" lon="5.44614">
        <ele>404.37</ele>
        <time>2022-11-18T12:59:19Z</time>
      </trkpt>
      <trkpt lat="45.85593" lon="5.44618">
        <ele>404.37</ele>
        <time>2022-11-18T12:59:46Z</time>
      </trkpt>
      <trkpt lat="45.85589" lon="5.44621">
        <ele>404.37</ele>
        <time>2022-11-18T13:00:15Z</time>
      </trkpt>
      <trkpt lat="45.85583" lon="5.4463">
        <ele>401.49</ele>
        <time>2022-11-18T13:00:33Z</time>
      </trkpt>
      <trkpt lat="45.85583" lon="5.44634">
        <ele>401.01</ele>
        <time>2022-11-18T13:00:57Z</time>
      </trkpt>
      <trkpt lat="45.85583" lon="5.44637">
        <ele>401.49</ele>
        <time>2022-11-18T13:01:25Z</time>
      </trkpt>
      <trkpt lat="45.85584" lon="5.44637">
        <ele>402.93</ele>
        <time>2022-11-18T13:01:41Z</time>
      </trkpt>
      <trkpt lat="45.85586" lon="5.44633">
        <ele>401.97</ele>
        <time>2022-11-18T13:02:07Z</time>
      </trkpt>
      <trkpt lat="45.85587" lon="5.44622">
        <ele>401.97</ele>
        <time>2022-11-18T13:02:33Z</time>
      </trkpt>
      <trkpt lat="45.85586" lon="5.44625">
        <ele>401.97</ele>
        <time>2022-11-18T13:02:53Z</time>
      </trkpt>
      <trkpt lat="45.85586" lon="5.4463">
        <ele>401.97</ele>
        <time>2022-11-18T13:03:21Z</time>
      </trkpt>
      <trkpt lat="45.85584" lon="5.44629">
        <ele>401.97</ele>
        <time>2022-11-18T13:03:46Z</time>
      </trkpt>
      <trkpt lat="45.85587" lon="5.44631">
        <ele>401.97</ele>
        <time>2022-11-18T13:04:09Z</time>
      </trkpt>
      <trkpt lat="45.85588" lon="5.44621">
        <ele>401.97</ele>
        <time>2022-11-18T13:04:31Z</time>
      </trkpt>
      <trkpt lat="45.85588" lon="5.44613">
        <ele>399.08</ele>
        <time>2022-11-18T13:04:44Z</time>
      </trkpt>
      <trkpt lat="45.85587" lon="5.44602">
        <ele>398.12</ele>
        <time>2022-11-18T13:05:04Z</time>
      </trkpt>
      <trkpt lat="45.85588" lon="5.44593">
        <ele>397.64</ele>
        <time>2022-11-18T13:05:28Z</time>
      </trkpt>
      <trkpt lat="45.85588" lon="5.44583">
        <ele>398.12</ele>
        <time>2022-11-18T13:05:54Z</time>
      </trkpt>
      <trkpt lat="45.85587" lon="5.44581">
        <ele>397.16</ele>
        <time>2022-11-18T13:06:17Z</time>
      </trkpt>
      <trkpt lat="45.85584" lon="5.44579">
        <ele>396.68</ele>
        <time>2022-11-18T13:06:41Z</time>
      </trkpt>
      <trkpt lat="45.85582" lon="5.44579">
        <ele>397.16</ele>
        <time>2022-11-18T13:07:10Z</time>
      </trkpt>
      <trkpt lat="45.85574" lon="5.44583">
        <ele>397.16</ele>
        <time>2022-11-18T13:07:33Z</time>
      </trkpt>
      <trkpt lat="45.85574" lon="5.4458">
        <ele>397.16</ele>
        <time>2022-11-18T13:07:52Z</time>
      </trkpt>
      <trkpt lat="45.8557" lon="5.44575">
        <ele>397.16</ele>
        <time>2022-11-18T13:08:13Z</time>
      </trkpt>
      <trkpt lat="45.85575" lon="5.44565">
        <ele>397.16</ele>
        <time>2022-11-18T13:09:02Z</time>
      </trkpt>
      <trkpt lat="45.85579" lon="5.44541">
        <ele>397.16</ele>
        <time>2022-11-18T13:09:24Z</time>
      </trkpt>
      <trkpt lat="45.85582" lon="5.44539">
        <ele>397.16</ele>
        <time>2022-11-18T13:09:45Z</time>
      </trkpt>
      <trkpt lat="45.85583" lon="5.44537">
        <ele>394.28</ele>
        <time>2022-11-18T13:10:11Z</time>
      </trkpt>
      <trkpt lat="45.85582" lon="5.44528">
        <ele>392.36</ele>
        <time>2022-11-18T13:10:34Z</time>
      </trkpt>
      <trkpt lat="45.8558" lon="5.44523">
        <ele>391.87</ele>
        <time>2022-11-18T13:10:56Z</time>
      </trkpt>
      <trkpt lat="45.85579" lon="5.44525">
        <ele>391.87</ele>
        <time>2022-11-18T13:11:25Z</time>
      </trkpt>
      <trkpt lat="45.85577" lon="5.44529">
        <ele>391.87</ele>
        <time>2022-11-18T13:11:54Z</time>
      </trkpt>
      <trkpt lat="45.85578" lon="5.4453">
        <ele>391.87</ele>
        <time>2022-11-18T13:12:21Z</time>
      </trkpt>
      <trkpt lat="45.85577" lon="5.44529">
        <ele>391.87</ele>
        <time>2022-11-18T13:12:47Z</time>
      </trkpt>
      <trkpt lat="45.8557" lon="5.44526">
        <ele>391.87</ele>
        <time>2022-11-18T13:13:09Z</time>
      </trkpt>
      <trkpt lat="45.85569" lon="5.44527">
        <ele>391.87</ele>
        <time>2022-11-18T13:13:33Z</time>
      </trkpt>
      <trkpt lat="45.85569" lon="5.44528">
        <ele>391.87</ele>
        <time>2022-11-18T13:14:01Z</time>
      </trkpt>
      <trkpt lat="45.85569" lon="5.44524">
        <ele>391.87</ele>
        <time>2022-11-18T13:14:24Z</time>
      </trkpt>
      <trkpt lat="45.85568" lon="5.44518">
        <ele>391.87</ele>
        <time>2022-11-18T13:14:49Z</time>
      </trkpt>
      <trkpt lat="45.85566" lon="5.4452">
        <ele>391.87</ele>
        <time>2022-11-18T13:15:13Z</time>
      </trkpt>
      <trkpt lat="45.85551" lon="5.44523">
        <ele>391.87</ele>
        <time>2022-11-18T13:15:33Z</time>
      </trkpt>
      <trkpt lat="45.85535" lon="5.44531">
        <ele>390.91</ele>
        <time>2022-11-18T13:15:50Z</time>
      </trkpt>
      <trkpt lat="45.85521" lon="5.44543">
        <ele>392.36</ele>
        <time>2022-11-18T13:16:10Z</time>
      </trkpt>
      <trkpt lat="45.85506" lon="5.44556">
        <ele>393.32</ele>
        <time>2022-11-18T13:16:32Z</time>
      </trkpt>
      <trkpt lat="45.85503" lon="5.44554">
        <ele>393.32</ele>
        <time>2022-11-18T13:17:00Z</time>
      </trkpt>
      <trkpt lat="45.85497" lon="5.44558">
        <ele>392.84</ele>
        <time>2022-11-18T13:17:21Z</time>
      </trkpt>
      <trkpt lat="45.85496" lon="5.44555">
        <ele>393.8</ele>
        <time>2022-11-18T13:17:43Z</time>
      </trkpt>
      <trkpt lat="45.855" lon="5.44554">
        <ele>393.8</ele>
        <time>2022-11-18T13:18:07Z</time>
      </trkpt>
      <trkpt lat="45.85499" lon="5.44541">
        <ele>393.8</ele>
        <time>2022-11-18T13:18:29Z</time>
      </trkpt>
      <trkpt lat="45.855" lon="5.44523">
        <ele>393.8</ele>
        <time>2022-11-18T13:18:47Z</time>
      </trkpt>
      <trkpt lat="45.855" lon="5.4452">
        <ele>394.28</ele>
        <time>2022-11-18T13:18:53Z</time>
      </trkpt>
      <trkpt lat="45.85508" lon="5.44504">
        <ele>394.28</ele>
        <time>2022-11-18T13:19:12Z</time>
      </trkpt>
      <trkpt lat="45.85521" lon="5.44492">
        <ele>394.28</ele>
        <time>2022-11-18T13:19:27Z</time>
      </trkpt>
      <trkpt lat="45.85532" lon="5.44485">
        <ele>396.68</ele>
        <time>2022-11-18T13:19:45Z</time>
      </trkpt>
      <trkpt lat="45.85538" lon="5.44473">
        <ele>399.08</ele>
        <time>2022-11-18T13:20:02Z</time>
      </trkpt>
      <trkpt lat="45.8554" lon="5.44473">
        <ele>399.57</ele>
        <time>2022-11-18T13:20:28Z</time>
      </trkpt>
      <trkpt lat="45.85538" lon="5.44473">
        <ele>399.57</ele>
        <time>2022-11-18T13:20:53Z</time>
      </trkpt>
      <trkpt lat="45.85544" lon="5.44458">
        <ele>400.53</ele>
        <time>2022-11-18T13:21:11Z</time>
      </trkpt>
      <trkpt lat="45.85541" lon="5.44446">
        <ele>401.97</ele>
        <time>2022-11-18T13:21:28Z</time>
      </trkpt>
      <trkpt lat="45.85539" lon="5.44428">
        <ele>404.85</ele>
        <time>2022-11-18T13:21:47Z</time>
      </trkpt>
      <trkpt lat="45.85541" lon="5.44405">
        <ele>407.74</ele>
        <time>2022-11-18T13:22:07Z</time>
      </trkpt>
      <trkpt lat="45.85541" lon="5.44388">
        <ele>410.62</ele>
        <time>2022-11-18T13:22:28Z</time>
      </trkpt>
      <trkpt lat="45.85543" lon="5.44369">
        <ele>413.5</ele>
        <time>2022-11-18T13:22:47Z</time>
      </trkpt>
      <trkpt lat="45.85548" lon="5.44348">
        <ele>416.39</ele>
        <time>2022-11-18T13:23:08Z</time>
      </trkpt>
      <trkpt lat="45.85556" lon="5.44334">
        <ele>418.31</ele>
        <time>2022-11-18T13:23:26Z</time>
      </trkpt>
      <trkpt lat="45.85559" lon="5.44328">
        <ele>418.79</ele>
        <time>2022-11-18T13:23:31Z</time>
      </trkpt>
      <trkpt lat="45.85566" lon="5.44307">
        <ele>420.71</ele>
        <time>2022-11-18T13:23:48Z</time>
      </trkpt>
      <trkpt lat="45.85566" lon="5.44286">
        <ele>421.68</ele>
        <time>2022-11-18T13:24:06Z</time>
      </trkpt>
      <trkpt lat="45.85562" lon="5.44266">
        <ele>421.19</ele>
        <time>2022-11-18T13:24:22Z</time>
      </trkpt>
      <trkpt lat="45.85556" lon="5.44246">
        <ele>419.75</ele>
        <time>2022-11-18T13:24:41Z</time>
      </trkpt>
      <trkpt lat="45.85547" lon="5.44235">
        <ele>417.83</ele>
        <time>2022-11-18T13:24:56Z</time>
      </trkpt>
      <trkpt lat="45.85529" lon="5.44223">
        <ele>415.43</ele>
        <time>2022-11-18T13:25:15Z</time>
      </trkpt>
      <trkpt lat="45.85519" lon="5.44203">
        <ele>414.95</ele>
        <time>2022-11-18T13:25:32Z</time>
      </trkpt>
      <trkpt lat="45.85517" lon="5.4419">
        <ele>414.95</ele>
        <time>2022-11-18T13:25:39Z</time>
      </trkpt>
      <trkpt lat="45.85521" lon="5.4417">
        <ele>415.43</ele>
        <time>2022-11-18T13:25:54Z</time>
      </trkpt>
      <trkpt lat="45.85522" lon="5.44148">
        <ele>414.95</ele>
        <time>2022-11-18T13:26:11Z</time>
      </trkpt>
      <trkpt lat="45.85529" lon="5.44124">
        <ele>415.43</ele>
        <time>2022-11-18T13:26:27Z</time>
      </trkpt>
      <trkpt lat="45.85534" lon="5.44098">
        <ele>415.91</ele>
        <time>2022-11-18T13:26:45Z</time>
      </trkpt>
      <trkpt lat="45.85534" lon="5.44082">
        <ele>417.83</ele>
        <time>2022-11-18T13:27:02Z</time>
      </trkpt>
      <trkpt lat="45.85539" lon="5.44062">
        <ele>418.31</ele>
        <time>2022-11-18T13:27:20Z</time>
      </trkpt>
      <trkpt lat="45.8554" lon="5.44045">
        <ele>416.87</ele>
        <time>2022-11-18T13:27:40Z</time>
      </trkpt>
      <trkpt lat="45.85538" lon="5.44027">
        <ele>415.43</ele>
        <time>2022-11-18T13:28:00Z</time>
      </trkpt>
      <trkpt lat="45.8554" lon="5.44007">
        <ele>414.47</ele>
        <time>2022-11-18T13:28:15Z</time>
      </trkpt>
      <trkpt lat="45.85541" lon="5.43973">
        <ele>412.54</ele>
        <time>2022-11-18T13:28:39Z</time>
      </trkpt>
      <trkpt lat="45.85543" lon="5.43949">
        <ele>411.1</ele>
        <time>2022-11-18T13:28:57Z</time>
      </trkpt>
      <trkpt lat="45.8555" lon="5.43922">
        <ele>409.66</ele>
        <time>2022-11-18T13:29:15Z</time>
      </trkpt>
      <trkpt lat="45.85555" lon="5.43902">
        <ele>408.7</ele>
        <time>2022-11-18T13:29:29Z</time>
      </trkpt>
      <trkpt lat="45.85555" lon="5.43897">
        <ele>408.7</ele>
        <time>2022-11-18T13:29:32Z</time>
      </trkpt>
      <trkpt lat="45.85554" lon="5.43883">
        <ele>407.74</ele>
        <time>2022-11-18T13:29:42Z</time>
      </trkpt>
      <trkpt lat="45.85553" lon="5.43881">
        <ele>407.74</ele>
        <time>2022-11-18T13:29:43Z</time>
      </trkpt>
      <trkpt lat="45.85553" lon="5.43878">
        <ele>407.26</ele>
        <time>2022-11-18T13:29:45Z</time>
      </trkpt>
      <trkpt lat="45.85553" lon="5.43853">
        <ele>406.29</ele>
        <time>2022-11-18T13:30:02Z</time>
      </trkpt>
      <trkpt lat="45.85553" lon="5.4385">
        <ele>406.29</ele>
        <time>2022-11-18T13:30:03Z</time>
      </trkpt>
      <trkpt lat="45.85551" lon="5.43831">
        <ele>405.33</ele>
        <time>2022-11-18T13:30:15Z</time>
      </trkpt>
      <trkpt lat="45.85552" lon="5.43824">
        <ele>404.85</ele>
        <time>2022-11-18T13:30:19Z</time>
      </trkpt>
      <trkpt lat="45.85552" lon="5.4382">
        <ele>404.37</ele>
        <time>2022-11-18T13:30:21Z</time>
      </trkpt>
      <trkpt lat="45.85552" lon="5.43817">
        <ele>404.37</ele>
        <time>2022-11-18T13:30:22Z</time>
      </trkpt>
      <trkpt lat="45.85552" lon="5.43815">
        <ele>404.37</ele>
        <time>2022-11-18T13:30:23Z</time>
      </trkpt>
      <trkpt lat="45.85552" lon="5.43812">
        <ele>404.37</ele>
        <time>2022-11-18T13:30:24Z</time>
      </trkpt>
      <trkpt lat="45.85551" lon="5.43798">
        <ele>403.41</ele>
        <time>2022-11-18T13:30:36Z</time>
      </trkpt>
      <trkpt lat="45.85549" lon="5.43778">
        <ele>402.45</ele>
        <time>2022-11-18T13:30:48Z</time>
      </trkpt>
      <trkpt lat="45.85548" lon="5.43774">
        <ele>401.97</ele>
        <time>2022-11-18T13:30:50Z</time>
      </trkpt>
      <trkpt lat="45.85547" lon="5.43773">
        <ele>401.97</ele>
        <time>2022-11-18T13:30:51Z</time>
      </trkpt>
      <trkpt lat="45.85545" lon="5.43766">
        <ele>401.97</ele>
        <time>2022-11-18T13:30:55Z</time>
      </trkpt>
      <trkpt lat="45.85545" lon="5.43764">
        <ele>401.97</ele>
        <time>2022-11-18T13:30:56Z</time>
      </trkpt>
      <trkpt lat="45.85544" lon="5.43762">
        <ele>401.97</ele>
        <time>2022-11-18T13:30:57Z</time>
      </trkpt>
      <trkpt lat="45.85544" lon="5.4376">
        <ele>401.49</ele>
        <time>2022-11-18T13:30:58Z</time>
      </trkpt>
      <trkpt lat="45.85543" lon="5.43758">
        <ele>401.49</ele>
        <time>2022-11-18T13:30:59Z</time>
      </trkpt>
      <trkpt lat="45.85536" lon="5.4374">
        <ele>400.53</ele>
        <time>2022-11-18T13:31:12Z</time>
      </trkpt>
      <trkpt lat="45.85527" lon="5.4373">
        <ele>399.57</ele>
        <time>2022-11-18T13:31:23Z</time>
      </trkpt>
      <trkpt lat="45.85525" lon="5.43728">
        <ele>399.08</ele>
        <time>2022-11-18T13:31:25Z</time>
      </trkpt>
      <trkpt lat="45.85522" lon="5.43724">
        <ele>398.6</ele>
        <time>2022-11-18T13:31:29Z</time>
      </trkpt>
      <trkpt lat="45.85511" lon="5.43713">
        <ele>397.64</ele>
        <time>2022-11-18T13:31:41Z</time>
      </trkpt>
      <trkpt lat="45.85497" lon="5.43706">
        <ele>396.2</ele>
        <time>2022-11-18T13:31:55Z</time>
      </trkpt>
      <trkpt lat="45.85484" lon="5.43693">
        <ele>394.76</ele>
        <time>2022-11-18T13:32:09Z</time>
      </trkpt>
      <trkpt lat="45.85463" lon="5.43692">
        <ele>392.36</ele>
        <time>2022-11-18T13:32:30Z</time>
      </trkpt>
      <trkpt lat="45.85462" lon="5.43692">
        <ele>392.36</ele>
        <time>2022-11-18T13:32:31Z</time>
      </trkpt>
      <trkpt lat="45.85449" lon="5.43698">
        <ele>390.91</ele>
        <time>2022-11-18T13:32:44Z</time>
      </trkpt>
      <trkpt lat="45.8543" lon="5.43704">
        <ele>388.99</ele>
        <time>2022-11-18T13:33:03Z</time>
      </trkpt>
      <trkpt lat="45.85412" lon="5.43706">
        <ele>386.59</ele>
        <time>2022-11-18T13:33:22Z</time>
      </trkpt>
      <trkpt lat="45.85391" lon="5.43711">
        <ele>384.18</ele>
        <time>2022-11-18T13:33:40Z</time>
      </trkpt>
      <trkpt lat="45.85371" lon="5.43715">
        <ele>382.26</ele>
        <time>2022-11-18T13:33:58Z</time>
      </trkpt>
      <trkpt lat="45.85357" lon="5.43719">
        <ele>380.82</ele>
        <time>2022-11-18T13:34:10Z</time>
      </trkpt>
      <trkpt lat="45.85345" lon="5.43722">
        <ele>379.86</ele>
        <time>2022-11-18T13:34:22Z</time>
      </trkpt>
      <trkpt lat="45.85334" lon="5.43728">
        <ele>378.9</ele>
        <time>2022-11-18T13:34:31Z</time>
      </trkpt>
      <trkpt lat="45.8532" lon="5.43733">
        <ele>377.45</ele>
        <time>2022-11-18T13:34:43Z</time>
      </trkpt>
      <trkpt lat="45.85318" lon="5.43734">
        <ele>376.97</ele>
        <time>2022-11-18T13:34:45Z</time>
      </trkpt>
      <trkpt lat="45.85311" lon="5.43736">
        <ele>376.49</ele>
        <time>2022-11-18T13:34:51Z</time>
      </trkpt>
      <trkpt lat="45.85309" lon="5.43737">
        <ele>376.01</ele>
        <time>2022-11-18T13:34:52Z</time>
      </trkpt>
      <trkpt lat="45.8529" lon="5.43742">
        <ele>374.09</ele>
        <time>2022-11-18T13:35:08Z</time>
      </trkpt>
      <trkpt lat="45.85276" lon="5.4375">
        <ele>373.13</ele>
        <time>2022-11-18T13:35:20Z</time>
      </trkpt>
      <trkpt lat="45.85275" lon="5.43751">
        <ele>372.65</ele>
        <time>2022-11-18T13:35:21Z</time>
      </trkpt>
      <trkpt lat="45.85274" lon="5.43752">
        <ele>372.65</ele>
        <time>2022-11-18T13:35:22Z</time>
      </trkpt>
      <trkpt lat="45.85259" lon="5.43759">
        <ele>371.69</ele>
        <time>2022-11-18T13:35:34Z</time>
      </trkpt>
      <trkpt lat="45.85246" lon="5.43761">
        <ele>370.24</ele>
        <time>2022-11-18T13:35:46Z</time>
      </trkpt>
      <trkpt lat="45.85233" lon="5.43768">
        <ele>368.8</ele>
        <time>2022-11-18T13:35:58Z</time>
      </trkpt>
      <trkpt lat="45.85232" lon="5.43768">
        <ele>368.8</ele>
        <time>2022-11-18T13:35:59Z</time>
      </trkpt>
      <trkpt lat="45.85217" lon="5.43769">
        <ele>367.36</ele>
        <time>2022-11-18T13:36:12Z</time>
      </trkpt>
      <trkpt lat="45.85201" lon="5.43769">
        <ele>365.92</ele>
        <time>2022-11-18T13:36:27Z</time>
      </trkpt>
      <trkpt lat="45.85186" lon="5.43771">
        <ele>364.48</ele>
        <time>2022-11-18T13:36:42Z</time>
      </trkpt>
      <trkpt lat="45.85171" lon="5.43769">
        <ele>363.04</ele>
        <time>2022-11-18T13:36:58Z</time>
      </trkpt>
      <trkpt lat="45.85159" lon="5.43776">
        <ele>361.59</ele>
        <time>2022-11-18T13:37:07Z</time>
      </trkpt>
      <trkpt lat="45.85158" lon="5.43778">
        <ele>361.59</ele>
        <time>2022-11-18T13:37:08Z</time>
      </trkpt>
      <trkpt lat="45.85151" lon="5.43782">
        <ele>361.11</ele>
        <time>2022-11-18T13:37:13Z</time>
      </trkpt>
      <trkpt lat="45.8515" lon="5.43783">
        <ele>361.11</ele>
        <time>2022-11-18T13:37:14Z</time>
      </trkpt>
      <trkpt lat="45.85148" lon="5.43784">
        <ele>360.63</ele>
        <time>2022-11-18T13:37:16Z</time>
      </trkpt>
      <trkpt lat="45.85147" lon="5.43787">
        <ele>360.63</ele>
        <time>2022-11-18T13:37:18Z</time>
      </trkpt>
      <trkpt lat="45.85135" lon="5.43798">
        <ele>359.19</ele>
        <time>2022-11-18T13:37:30Z</time>
      </trkpt>
      <trkpt lat="45.8512" lon="5.43809">
        <ele>357.75</ele>
        <time>2022-11-18T13:37:43Z</time>
      </trkpt>
      <trkpt lat="45.85102" lon="5.43814">
        <ele>355.83</ele>
        <time>2022-11-18T13:37:56Z</time>
      </trkpt>
      <trkpt lat="45.85101" lon="5.43813">
        <ele>355.83</ele>
        <time>2022-11-18T13:37:57Z</time>
      </trkpt>
      <trkpt lat="45.85091" lon="5.43814">
        <ele>355.34</ele>
        <time>2022-11-18T13:38:06Z</time>
      </trkpt>
      <trkpt lat="45.85089" lon="5.43814">
        <ele>354.86</ele>
        <time>2022-11-18T13:38:08Z</time>
      </trkpt>
      <trkpt lat="45.85074" lon="5.43817">
        <ele>353.42</ele>
        <time>2022-11-18T13:38:21Z</time>
      </trkpt>
      <trkpt lat="45.85064" lon="5.43821">
        <ele>352.46</ele>
        <time>2022-11-18T13:38:30Z</time>
      </trkpt>
      <trkpt lat="45.85063" lon="5.43821">
        <ele>352.46</ele>
        <time>2022-11-18T13:38:31Z</time>
      </trkpt>
      <trkpt lat="45.85061" lon="5.43821">
        <ele>352.46</ele>
        <time>2022-11-18T13:38:32Z</time>
      </trkpt>
      <trkpt lat="45.85058" lon="5.43822">
        <ele>351.98</ele>
        <time>2022-11-18T13:38:35Z</time>
      </trkpt>
      <trkpt lat="45.85043" lon="5.43821">
        <ele>351.02</ele>
        <time>2022-11-18T13:38:47Z</time>
      </trkpt>
      <trkpt lat="45.85029" lon="5.43823">
        <ele>349.58</ele>
        <time>2022-11-18T13:39:00Z</time>
      </trkpt>
      <trkpt lat="45.85023" lon="5.43822">
        <ele>348.13</ele>
        <time>2022-11-18T13:39:17Z</time>
      </trkpt>
      <trkpt lat="45.85021" lon="5.43821">
        <ele>347.65</ele>
        <time>2022-11-18T13:39:35Z</time>
      </trkpt>
      <trkpt lat="45.8502" lon="5.43825">
        <ele>347.17</ele>
        <time>2022-11-18T13:39:55Z</time>
      </trkpt>
      <trkpt lat="45.85021" lon="5.43825">
        <ele>339</ele>
        <time>2022-11-18T13:40:10Z</time>
      </trkpt>
      <trkpt lat="45.85014" lon="5.43837">
        <ele>347.17</ele>
        <time>2022-11-18T13:40:39Z</time>
      </trkpt>
      <trkpt lat="45.85008" lon="5.43845">
        <ele>347.17</ele>
        <time>2022-11-18T13:40:48Z</time>
      </trkpt>
      <trkpt lat="45.84998" lon="5.43856">
        <ele>348.13</ele>
        <time>2022-11-18T13:41:04Z</time>
      </trkpt>
      <trkpt lat="45.84983" lon="5.4387">
        <ele>349.1</ele>
        <time>2022-11-18T13:41:22Z</time>
      </trkpt>
      <trkpt lat="45.84971" lon="5.43882">
        <ele>350.54</ele>
        <time>2022-11-18T13:41:39Z</time>
      </trkpt>
      <trkpt lat="45.84956" lon="5.43894">
        <ele>351.5</ele>
        <time>2022-11-18T13:41:54Z</time>
      </trkpt>
      <trkpt lat="45.84944" lon="5.439">
        <ele>352.94</ele>
        <time>2022-11-18T13:42:08Z</time>
      </trkpt>
      <trkpt lat="45.8493" lon="5.43913">
        <ele>353.9</ele>
        <time>2022-11-18T13:42:26Z</time>
      </trkpt>
      <trkpt lat="45.84919" lon="5.43917">
        <ele>355.34</ele>
        <time>2022-11-18T13:42:41Z</time>
      </trkpt>
      <trkpt lat="45.84903" lon="5.43926">
        <ele>356.79</ele>
        <time>2022-11-18T13:42:57Z</time>
      </trkpt>
      <trkpt lat="45.849" lon="5.43928">
        <ele>356.79</ele>
        <time>2022-11-18T13:43:00Z</time>
      </trkpt>
      <trkpt lat="45.84891" lon="5.43942">
        <ele>357.27</ele>
        <time>2022-11-18T13:43:13Z</time>
      </trkpt>
      <trkpt lat="45.84883" lon="5.43949">
        <ele>358.23</ele>
        <time>2022-11-18T13:43:24Z</time>
      </trkpt>
      <trkpt lat="45.84875" lon="5.43959">
        <ele>359.19</ele>
        <time>2022-11-18T13:43:33Z</time>
      </trkpt>
      <trkpt lat="45.84866" lon="5.43973">
        <ele>359.67</ele>
        <time>2022-11-18T13:43:46Z</time>
      </trkpt>
      <trkpt lat="45.84853" lon="5.4399">
        <ele>360.63</ele>
        <time>2022-11-18T13:44:01Z</time>
      </trkpt>
      <trkpt lat="45.84845" lon="5.44">
        <ele>361.59</ele>
        <time>2022-11-18T13:44:12Z</time>
      </trkpt>
      <trkpt lat="45.84842" lon="5.44005">
        <ele>361.59</ele>
        <time>2022-11-18T13:44:15Z</time>
      </trkpt>
      <trkpt lat="45.84832" lon="5.44014">
        <ele>361.11</ele>
        <time>2022-11-18T13:44:25Z</time>
      </trkpt>
      <trkpt lat="45.84823" lon="5.4402">
        <ele>361.11</ele>
        <time>2022-11-18T13:44:33Z</time>
      </trkpt>
      <trkpt lat="45.84822" lon="5.44021">
        <ele>361.11</ele>
        <time>2022-11-18T13:44:34Z</time>
      </trkpt>
      <trkpt lat="45.84812" lon="5.44028">
        <ele>360.63</ele>
        <time>2022-11-18T13:44:45Z</time>
      </trkpt>
      <trkpt lat="45.84801" lon="5.44031">
        <ele>359.67</ele>
        <time>2022-11-18T13:44:57Z</time>
      </trkpt>
      <trkpt lat="45.84792" lon="5.44044">
        <ele>359.19</ele>
        <time>2022-11-18T13:45:09Z</time>
      </trkpt>
      <trkpt lat="45.84787" lon="5.44054">
        <ele>359.19</ele>
        <time>2022-11-18T13:45:26Z</time>
      </trkpt>
      <trkpt lat="45.84786" lon="5.44057">
        <ele>358.71</ele>
        <time>2022-11-18T13:45:53Z</time>
      </trkpt>
      <trkpt lat="45.84783" lon="5.4406">
        <ele>358.23</ele>
        <time>2022-11-18T13:46:19Z</time>
      </trkpt>
      <trkpt lat="45.84782" lon="5.44061">
        <ele>353.42</ele>
        <time>2022-11-18T13:46:23Z</time>
      </trkpt>
      <trkpt lat="45.84779" lon="5.44063">
        <ele>357.75</ele>
        <time>2022-11-18T13:46:48Z</time>
      </trkpt>
      <trkpt lat="45.84778" lon="5.44063">
        <ele>357.75</ele>
        <time>2022-11-18T13:46:49Z</time>
      </trkpt>
      <trkpt lat="45.84775" lon="5.44067">
        <ele>357.75</ele>
        <time>2022-11-18T13:46:52Z</time>
      </trkpt>
      <trkpt lat="45.84763" lon="5.44078">
        <ele>357.75</ele>
        <time>2022-11-18T13:47:06Z</time>
      </trkpt>
      <trkpt lat="45.84759" lon="5.44082">
        <ele>357.75</ele>
        <time>2022-11-18T13:47:11Z</time>
      </trkpt>
      <trkpt lat="45.84757" lon="5.44083">
        <ele>357.75</ele>
        <time>2022-11-18T13:47:13Z</time>
      </trkpt>
      <trkpt lat="45.84756" lon="5.44083">
        <ele>357.75</ele>
        <time>2022-11-18T13:47:14Z</time>
      </trkpt>
      <trkpt lat="45.8474" lon="5.44088">
        <ele>358.23</ele>
        <time>2022-11-18T13:47:28Z</time>
      </trkpt>
      <trkpt lat="45.84725" lon="5.44098">
        <ele>358.71</ele>
        <time>2022-11-18T13:47:43Z</time>
      </trkpt>
      <trkpt lat="45.84714" lon="5.44108">
        <ele>359.19</ele>
        <time>2022-11-18T13:47:55Z</time>
      </trkpt>
      <trkpt lat="45.84706" lon="5.44114">
        <ele>359.67</ele>
        <time>2022-11-18T13:48:05Z</time>
      </trkpt>
      <trkpt lat="45.84694" lon="5.44122">
        <ele>360.15</ele>
        <time>2022-11-18T13:48:18Z</time>
      </trkpt>
      <trkpt lat="45.84684" lon="5.44125">
        <ele>360.63</ele>
        <time>2022-11-18T13:48:27Z</time>
      </trkpt>
      <trkpt lat="45.84682" lon="5.44125">
        <ele>361.11</ele>
        <time>2022-11-18T13:48:28Z</time>
      </trkpt>
      <trkpt lat="45.84664" lon="5.44126">
        <ele>362.55</ele>
        <time>2022-11-18T13:48:44Z</time>
      </trkpt>
      <trkpt lat="45.8465" lon="5.44134">
        <ele>363.52</ele>
        <time>2022-11-18T13:48:58Z</time>
      </trkpt>
      <trkpt lat="45.84637" lon="5.44144">
        <ele>364</ele>
        <time>2022-11-18T13:49:12Z</time>
      </trkpt>
      <trkpt lat="45.84635" lon="5.44145">
        <ele>364</ele>
        <time>2022-11-18T13:49:13Z</time>
      </trkpt>
      <trkpt lat="45.84634" lon="5.44146">
        <ele>364</ele>
        <time>2022-11-18T13:49:14Z</time>
      </trkpt>
      <trkpt lat="45.84629" lon="5.44151">
        <ele>364.48</ele>
        <time>2022-11-18T13:49:20Z</time>
      </trkpt>
      <trkpt lat="45.84616" lon="5.44161">
        <ele>364.96</ele>
        <time>2022-11-18T13:49:33Z</time>
      </trkpt>
      <trkpt lat="45.84605" lon="5.44168">
        <ele>365.44</ele>
        <time>2022-11-18T13:49:45Z</time>
      </trkpt>
      <trkpt lat="45.846" lon="5.44172">
        <ele>365.92</ele>
        <time>2022-11-18T13:49:50Z</time>
      </trkpt>
      <trkpt lat="45.84588" lon="5.44181">
        <ele>366.4</ele>
        <time>2022-11-18T13:50:03Z</time>
      </trkpt>
      <trkpt lat="45.84577" lon="5.44186">
        <ele>366.88</ele>
        <time>2022-11-18T13:50:12Z</time>
      </trkpt>
      <trkpt lat="45.84561" lon="5.44199">
        <ele>366.4</ele>
        <time>2022-11-18T13:50:27Z</time>
      </trkpt>
      <trkpt lat="45.84547" lon="5.4421">
        <ele>366.4</ele>
        <time>2022-11-18T13:50:40Z</time>
      </trkpt>
      <trkpt lat="45.84545" lon="5.44213">
        <ele>366.4</ele>
        <time>2022-11-18T13:50:42Z</time>
      </trkpt>
      <trkpt lat="45.84543" lon="5.44214">
        <ele>366.4</ele>
        <time>2022-11-18T13:50:43Z</time>
      </trkpt>
      <trkpt lat="45.84533" lon="5.44229">
        <ele>366.88</ele>
        <time>2022-11-18T13:50:56Z</time>
      </trkpt>
      <trkpt lat="45.84524" lon="5.44238">
        <ele>367.84</ele>
        <time>2022-11-18T13:51:10Z</time>
      </trkpt>
      <trkpt lat="45.84521" lon="5.44241">
        <ele>368.32</ele>
        <time>2022-11-18T13:51:24Z</time>
      </trkpt>
      <trkpt lat="45.84514" lon="5.44245">
        <ele>368.8</ele>
        <time>2022-11-18T13:51:45Z</time>
      </trkpt>
      <trkpt lat="45.84507" lon="5.44252">
        <ele>368.8</ele>
        <time>2022-11-18T13:52:03Z</time>
      </trkpt>
      <trkpt lat="45.84495" lon="5.44256">
        <ele>369.76</ele>
        <time>2022-11-18T13:52:19Z</time>
      </trkpt>
      <trkpt lat="45.84493" lon="5.44258">
        <ele>369.76</ele>
        <time>2022-11-18T13:52:21Z</time>
      </trkpt>
      <trkpt lat="45.84482" lon="5.44265">
        <ele>370.24</ele>
        <time>2022-11-18T13:52:36Z</time>
      </trkpt>
      <trkpt lat="45.84469" lon="5.44271">
        <ele>370.73</ele>
        <time>2022-11-18T13:52:52Z</time>
      </trkpt>
      <trkpt lat="45.84452" lon="5.44277">
        <ele>370.73</ele>
        <time>2022-11-18T13:53:11Z</time>
      </trkpt>
      <trkpt lat="45.8444" lon="5.4428">
        <ele>370.24</ele>
        <time>2022-11-18T13:53:25Z</time>
      </trkpt>
      <trkpt lat="45.84429" lon="5.44286">
        <ele>369.76</ele>
        <time>2022-11-18T13:53:42Z</time>
      </trkpt>
      <trkpt lat="45.84428" lon="5.44286">
        <ele>369.76</ele>
        <time>2022-11-18T13:53:43Z</time>
      </trkpt>
      <trkpt lat="45.84426" lon="5.44286">
        <ele>369.76</ele>
        <time>2022-11-18T13:53:44Z</time>
      </trkpt>
      <trkpt lat="45.84415" lon="5.44293">
        <ele>369.76</ele>
        <time>2022-11-18T13:53:56Z</time>
      </trkpt>
      <trkpt lat="45.84402" lon="5.44299">
        <ele>370.24</ele>
        <time>2022-11-18T13:54:07Z</time>
      </trkpt>
      <trkpt lat="45.84399" lon="5.44302">
        <ele>370.24</ele>
        <time>2022-11-18T13:54:11Z</time>
      </trkpt>
      <trkpt lat="45.84395" lon="5.44304">
        <ele>370.24</ele>
        <time>2022-11-18T13:54:14Z</time>
      </trkpt>
      <trkpt lat="45.84379" lon="5.4431">
        <ele>370.24</ele>
        <time>2022-11-18T13:54:29Z</time>
      </trkpt>
      <trkpt lat="45.84369" lon="5.44315">
        <ele>369.76</ele>
        <time>2022-11-18T13:54:38Z</time>
      </trkpt>
      <trkpt lat="45.84364" lon="5.44314">
        <ele>369.28</ele>
        <time>2022-11-18T13:54:42Z</time>
      </trkpt>
      <trkpt lat="45.84361" lon="5.44316">
        <ele>369.28</ele>
        <time>2022-11-18T13:54:45Z</time>
      </trkpt>
      <trkpt lat="45.84347" lon="5.44323">
        <ele>367.84</ele>
        <time>2022-11-18T13:54:58Z</time>
      </trkpt>
      <trkpt lat="45.8434" lon="5.44326">
        <ele>367.36</ele>
        <time>2022-11-18T13:55:05Z</time>
      </trkpt>
      <trkpt lat="45.84332" lon="5.44328">
        <ele>367.36</ele>
        <time>2022-11-18T13:55:12Z</time>
      </trkpt>
      <trkpt lat="45.84327" lon="5.44328">
        <ele>366.88</ele>
        <time>2022-11-18T13:55:16Z</time>
      </trkpt>
      <trkpt lat="45.8432" lon="5.44331">
        <ele>366.88</ele>
        <time>2022-11-18T13:55:21Z</time>
      </trkpt>
      <trkpt lat="45.84308" lon="5.44329">
        <ele>365.92</ele>
        <time>2022-11-18T13:55:35Z</time>
      </trkpt>
      <trkpt lat="45.84303" lon="5.44328">
        <ele>365.44</ele>
        <time>2022-11-18T13:55:53Z</time>
      </trkpt>
      <trkpt lat="45.84302" lon="5.44332">
        <ele>365.44</ele>
        <time>2022-11-18T13:56:18Z</time>
      </trkpt>
      <trkpt lat="45.84304" lon="5.44335">
        <ele>365.44</ele>
        <time>2022-11-18T13:56:40Z</time>
      </trkpt>
      <trkpt lat="45.84299" lon="5.44337">
        <ele>364.96</ele>
        <time>2022-11-18T13:57:01Z</time>
      </trkpt>
      <trkpt lat="45.8429" lon="5.44335">
        <ele>364.96</ele>
        <time>2022-11-18T13:57:25Z</time>
      </trkpt>
      <trkpt lat="45.84285" lon="5.44331">
        <ele>364.48</ele>
        <time>2022-11-18T13:57:30Z</time>
      </trkpt>
      <trkpt lat="45.8427" lon="5.44323">
        <ele>364</ele>
        <time>2022-11-18T13:57:45Z</time>
      </trkpt>
      <trkpt lat="45.84255" lon="5.44318">
        <ele>363.52</ele>
        <time>2022-11-18T13:57:59Z</time>
      </trkpt>
      <trkpt lat="45.84253" lon="5.44318">
        <ele>363.04</ele>
        <time>2022-11-18T13:58:01Z</time>
      </trkpt>
      <trkpt lat="45.84236" lon="5.44311">
        <ele>363.04</ele>
        <time>2022-11-18T13:58:15Z</time>
      </trkpt>
      <trkpt lat="45.84227" lon="5.44309">
        <ele>362.55</ele>
        <time>2022-11-18T13:58:24Z</time>
      </trkpt>
      <trkpt lat="45.84214" lon="5.44302">
        <ele>362.07</ele>
        <time>2022-11-18T13:58:39Z</time>
      </trkpt>
      <trkpt lat="45.84212" lon="5.44302">
        <ele>362.07</ele>
        <time>2022-11-18T13:58:58Z</time>
      </trkpt>
      <trkpt lat="45.84212" lon="5.44303">
        <ele>361.59</ele>
        <time>2022-11-18T13:59:24Z</time>
      </trkpt>
      <trkpt lat="45.84216" lon="5.44298">
        <ele>361.59</ele>
        <time>2022-11-18T13:59:55Z</time>
      </trkpt>
      <trkpt lat="45.84217" lon="5.44296">
        <ele>361.59</ele>
        <time>2022-11-18T14:00:01Z</time>
      </trkpt>
      <trkpt lat="45.8422" lon="5.44288">
        <ele>360.63</ele>
        <time>2022-11-18T14:00:16Z</time>
      </trkpt>
      <trkpt lat="45.84221" lon="5.44287">
        <ele>360.63</ele>
        <time>2022-11-18T14:00:33Z</time>
      </trkpt>
      <trkpt lat="45.84223" lon="5.44286">
        <ele>360.63</ele>
        <time>2022-11-18T14:00:57Z</time>
      </trkpt>
      <trkpt lat="45.84226" lon="5.44287">
        <ele>361.11</ele>
        <time>2022-11-18T14:01:18Z</time>
      </trkpt>
      <trkpt lat="45.84225" lon="5.44288">
        <ele>361.11</ele>
        <time>2022-11-18T14:01:28Z</time>
      </trkpt>
      <trkpt lat="45.84224" lon="5.44289">
        <ele>361.11</ele>
        <time>2022-11-18T14:01:48Z</time>
      </trkpt>
      <trkpt lat="45.84221" lon="5.4429">
        <ele>361.11</ele>
        <time>2022-11-18T14:02:12Z</time>
      </trkpt>
      <trkpt lat="45.8422" lon="5.44292">
        <ele>361.59</ele>
        <time>2022-11-18T14:02:35Z</time>
      </trkpt>
      <trkpt lat="45.84225" lon="5.44289">
        <ele>356.31</ele>
        <time>2022-11-18T14:02:49Z</time>
      </trkpt>
      <trkpt lat="45.84227" lon="5.44288">
        <ele>360.63</ele>
        <time>2022-11-18T14:02:53Z</time>
      </trkpt>
      <trkpt lat="45.84231" lon="5.44282">
        <ele>361.11</ele>
        <time>2022-11-18T14:02:58Z</time>
      </trkpt>
      <trkpt lat="45.84244" lon="5.4427">
        <ele>359.19</ele>
        <time>2022-11-18T14:03:16Z</time>
      </trkpt>
      <trkpt lat="45.84263" lon="5.44265">
        <ele>357.27</ele>
        <time>2022-11-18T14:03:34Z</time>
      </trkpt>
      <trkpt lat="45.84278" lon="5.44264">
        <ele>354.38</ele>
        <time>2022-11-18T14:03:51Z</time>
      </trkpt>
      <trkpt lat="45.84297" lon="5.44267">
        <ele>351.02</ele>
        <time>2022-11-18T14:04:09Z</time>
      </trkpt>
      <trkpt lat="45.84311" lon="5.44264">
        <ele>348.13</ele>
        <time>2022-11-18T14:04:25Z</time>
      </trkpt>
      <trkpt lat="45.84332" lon="5.4426">
        <ele>345.73</ele>
        <time>2022-11-18T14:04:41Z</time>
      </trkpt>
      <trkpt lat="45.84356" lon="5.44255">
        <ele>344.29</ele>
        <time>2022-11-18T14:04:59Z</time>
      </trkpt>
      <trkpt lat="45.84374" lon="5.44251">
        <ele>344.29</ele>
        <time>2022-11-18T14:05:13Z</time>
      </trkpt>
      <trkpt lat="45.8438" lon="5.4425">
        <ele>343.81</ele>
        <time>2022-11-18T14:05:31Z</time>
      </trkpt>
      <trkpt lat="45.84389" lon="5.44238">
        <ele>340.92</ele>
        <time>2022-11-18T14:05:48Z</time>
      </trkpt>
      <trkpt lat="45.84393" lon="5.44227">
        <ele>337.56</ele>
        <time>2022-11-18T14:06:03Z</time>
      </trkpt>
      <trkpt lat="45.84397" lon="5.44209">
        <ele>334.68</ele>
        <time>2022-11-18T14:06:20Z</time>
      </trkpt>
      <trkpt lat="45.84404" lon="5.44193">
        <ele>332.75</ele>
        <time>2022-11-18T14:06:32Z</time>
      </trkpt>
      <trkpt lat="45.84418" lon="5.44174">
        <ele>331.79</ele>
        <time>2022-11-18T14:06:51Z</time>
      </trkpt>
      <trkpt lat="45.84432" lon="5.44166">
        <ele>331.79</ele>
        <time>2022-11-18T14:07:04Z</time>
      </trkpt>
      <trkpt lat="45.84445" lon="5.44159">
        <ele>331.79</ele>
        <time>2022-11-18T14:07:17Z</time>
      </trkpt>
      <trkpt lat="45.84462" lon="5.44143">
        <ele>328.91</ele>
        <time>2022-11-18T14:07:38Z</time>
      </trkpt>
      <trkpt lat="45.8447" lon="5.44127">
        <ele>326.99</ele>
        <time>2022-11-18T14:07:50Z</time>
      </trkpt>
      <trkpt lat="45.84479" lon="5.44107">
        <ele>324.58</ele>
        <time>2022-11-18T14:08:05Z</time>
      </trkpt>
      <trkpt lat="45.84492" lon="5.4409">
        <ele>323.62</ele>
        <time>2022-11-18T14:08:20Z</time>
      </trkpt>
      <trkpt lat="45.84514" lon="5.44078">
        <ele>323.62</ele>
        <time>2022-11-18T14:08:42Z</time>
      </trkpt>
      <trkpt lat="45.84523" lon="5.44072">
        <ele>324.1</ele>
        <time>2022-11-18T14:08:50Z</time>
      </trkpt>
      <trkpt lat="45.84538" lon="5.44047">
        <ele>321.7</ele>
        <time>2022-11-18T14:09:12Z</time>
      </trkpt>
      <trkpt lat="45.84544" lon="5.44029">
        <ele>318.33</ele>
        <time>2022-11-18T14:09:26Z</time>
      </trkpt>
      <trkpt lat="45.84543" lon="5.4401">
        <ele>314.97</ele>
        <time>2022-11-18T14:09:39Z</time>
      </trkpt>
      <trkpt lat="45.84547" lon="5.43995">
        <ele>312.09</ele>
        <time>2022-11-18T14:09:53Z</time>
      </trkpt>
      <trkpt lat="45.84557" lon="5.43979">
        <ele>309.2</ele>
        <time>2022-11-18T14:10:09Z</time>
      </trkpt>
      <trkpt lat="45.84566" lon="5.43968">
        <ele>306.8</ele>
        <time>2022-11-18T14:10:22Z</time>
      </trkpt>
      <trkpt lat="45.84569" lon="5.43963">
        <ele>306.32</ele>
        <time>2022-11-18T14:10:26Z</time>
      </trkpt>
      <trkpt lat="45.8457" lon="5.43958">
        <ele>304.88</ele>
        <time>2022-11-18T14:10:42Z</time>
      </trkpt>
      <trkpt lat="45.84569" lon="5.43957">
        <ele>304.88</ele>
        <time>2022-11-18T14:11:08Z</time>
      </trkpt>
      <trkpt lat="45.84577" lon="5.43952">
        <ele>304.88</ele>
        <time>2022-11-18T14:11:34Z</time>
      </trkpt>
      <trkpt lat="45.8458" lon="5.4395">
        <ele>304.88</ele>
        <time>2022-11-18T14:11:53Z</time>
      </trkpt>
      <trkpt lat="45.8459" lon="5.43943">
        <ele>304.39</ele>
        <time>2022-11-18T14:12:04Z</time>
      </trkpt>
      <trkpt lat="45.8459" lon="5.43941">
        <ele>304.39</ele>
        <time>2022-11-18T14:12:05Z</time>
      </trkpt>
      <trkpt lat="45.84598" lon="5.4393">
        <ele>301.03</ele>
        <time>2022-11-18T14:12:18Z</time>
      </trkpt>
      <trkpt lat="45.84602" lon="5.43922">
        <ele>297.67</ele>
        <time>2022-11-18T14:12:31Z</time>
      </trkpt>
      <trkpt lat="45.84604" lon="5.4391">
        <ele>294.78</ele>
        <time>2022-11-18T14:12:49Z</time>
      </trkpt>
      <trkpt lat="45.84608" lon="5.43893">
        <ele>291.42</ele>
        <time>2022-11-18T14:13:07Z</time>
      </trkpt>
      <trkpt lat="45.84612" lon="5.43878">
        <ele>288.53</ele>
        <time>2022-11-18T14:13:23Z</time>
      </trkpt>
      <trkpt lat="45.84616" lon="5.43865">
        <ele>285.17</ele>
        <time>2022-11-18T14:13:36Z</time>
      </trkpt>
      <trkpt lat="45.84618" lon="5.43858">
        <ele>283.73</ele>
        <time>2022-11-18T14:13:43Z</time>
      </trkpt>
      <trkpt lat="45.8462" lon="5.43854">
        <ele>281.32</ele>
        <time>2022-11-18T14:13:59Z</time>
      </trkpt>
      <trkpt lat="45.84621" lon="5.43848">
        <ele>281.32</ele>
        <time>2022-11-18T14:14:09Z</time>
      </trkpt>
      <trkpt lat="45.84626" lon="5.43829">
        <ele>278.92</ele>
        <time>2022-11-18T14:14:25Z</time>
      </trkpt>
      <trkpt lat="45.8463" lon="5.43813">
        <ele>276.04</ele>
        <time>2022-11-18T14:14:40Z</time>
      </trkpt>
      <trkpt lat="45.84631" lon="5.4381">
        <ele>275.56</ele>
        <time>2022-11-18T14:14:43Z</time>
      </trkpt>
      <trkpt lat="45.84641" lon="5.43799">
        <ele>273.15</ele>
        <time>2022-11-18T14:14:56Z</time>
      </trkpt>
      <trkpt lat="45.84646" lon="5.43779">
        <ele>269.79</ele>
        <time>2022-11-18T14:15:12Z</time>
      </trkpt>
      <trkpt lat="45.84647" lon="5.4376">
        <ele>266.42</ele>
        <time>2022-11-18T14:15:26Z</time>
      </trkpt>
      <trkpt lat="45.84646" lon="5.43742">
        <ele>263.54</ele>
        <time>2022-11-18T14:15:41Z</time>
      </trkpt>
      <trkpt lat="45.84647" lon="5.43732">
        <ele>261.14</ele>
        <time>2022-11-18T14:15:52Z</time>
      </trkpt>
      <trkpt lat="45.84648" lon="5.43731">
        <ele>261.14</ele>
        <time>2022-11-18T14:15:53Z</time>
      </trkpt>
      <trkpt lat="45.84658" lon="5.43724">
        <ele>258.25</ele>
        <time>2022-11-18T14:16:13Z</time>
      </trkpt>
      <trkpt lat="45.84663" lon="5.43709">
        <ele>254.89</ele>
        <time>2022-11-18T14:16:30Z</time>
      </trkpt>
      <trkpt lat="45.84663" lon="5.43705">
        <ele>254.89</ele>
        <time>2022-11-18T14:16:32Z</time>
      </trkpt>
      <trkpt lat="45.84663" lon="5.43703">
        <ele>254.41</ele>
        <time>2022-11-18T14:16:33Z</time>
      </trkpt>
      <trkpt lat="45.84664" lon="5.43699">
        <ele>254.41</ele>
        <time>2022-11-18T14:16:35Z</time>
      </trkpt>
      <trkpt lat="45.84664" lon="5.43697">
        <ele>253.44</ele>
        <time>2022-11-18T14:16:36Z</time>
      </trkpt>
      <trkpt lat="45.84668" lon="5.43677">
        <ele>250.56</ele>
        <time>2022-11-18T14:16:50Z</time>
      </trkpt>
      <trkpt lat="45.84669" lon="5.43663">
        <ele>247.68</ele>
        <time>2022-11-18T14:17:08Z</time>
      </trkpt>
      <trkpt lat="45.84674" lon="5.43648">
        <ele>245.27</ele>
        <time>2022-11-18T14:17:23Z</time>
      </trkpt>
      <trkpt lat="45.84686" lon="5.43641">
        <ele>242.87</ele>
        <time>2022-11-18T14:17:38Z</time>
      </trkpt>
      <trkpt lat="45.84691" lon="5.43634">
        <ele>241.43</ele>
        <time>2022-11-18T14:17:44Z</time>
      </trkpt>
      <trkpt lat="45.84694" lon="5.43616">
        <ele>239.51</ele>
        <time>2022-11-18T14:17:58Z</time>
      </trkpt>
      <trkpt lat="45.847" lon="5.43588">
        <ele>239.02</ele>
        <time>2022-11-18T14:18:15Z</time>
      </trkpt>
      <trkpt lat="45.847" lon="5.43585">
        <ele>239.02</ele>
        <time>2022-11-18T14:18:16Z</time>
      </trkpt>
      <trkpt lat="45.84705" lon="5.43566">
        <ele>239.51</ele>
        <time>2022-11-18T14:18:33Z</time>
      </trkpt>
      <trkpt lat="45.84706" lon="5.43563">
        <ele>239.51</ele>
        <time>2022-11-18T14:18:52Z</time>
      </trkpt>
      <trkpt lat="45.84708" lon="5.43551">
        <ele>239.51</ele>
        <time>2022-11-18T14:19:10Z</time>
      </trkpt>
      <trkpt lat="45.84709" lon="5.4355">
        <ele>239.51</ele>
        <time>2022-11-18T14:19:29Z</time>
      </trkpt>
      <trkpt lat="45.84704" lon="5.4355">
        <ele>239.51</ele>
        <time>2022-11-18T14:19:58Z</time>
      </trkpt>
      <trkpt lat="45.84702" lon="5.43536">
        <ele>239.51</ele>
        <time>2022-11-18T14:20:17Z</time>
      </trkpt>
      <trkpt lat="45.84699" lon="5.43527">
        <ele>239.51</ele>
        <time>2022-11-18T14:20:36Z</time>
      </trkpt>
      <trkpt lat="45.84697" lon="5.43526">
        <ele>239.51</ele>
        <time>2022-11-18T14:20:41Z</time>
      </trkpt>
      <trkpt lat="45.84694" lon="5.43516">
        <ele>239.51</ele>
        <time>2022-11-18T14:21:01Z</time>
      </trkpt>
      <trkpt lat="45.84692" lon="5.43511">
        <ele>239.51</ele>
        <time>2022-11-18T14:21:20Z</time>
      </trkpt>
      <trkpt lat="45.84693" lon="5.43501">
        <ele>239.51</ele>
        <time>2022-11-18T14:21:30Z</time>
      </trkpt>
      <trkpt lat="45.84693" lon="5.4348">
        <ele>239.51</ele>
        <time>2022-11-18T14:21:45Z</time>
      </trkpt>
      <trkpt lat="45.84693" lon="5.43478">
        <ele>239.99</ele>
        <time>2022-11-18T14:21:46Z</time>
      </trkpt>
      <trkpt lat="45.84692" lon="5.43459">
        <ele>239.99</ele>
        <time>2022-11-18T14:22:03Z</time>
      </trkpt>
      <trkpt lat="45.84694" lon="5.43456">
        <ele>240.47</ele>
        <time>2022-11-18T14:22:25Z</time>
      </trkpt>
      <trkpt lat="45.84695" lon="5.43449">
        <ele>240.47</ele>
        <time>2022-11-18T14:22:45Z</time>
      </trkpt>
      <trkpt lat="45.84695" lon="5.43447">
        <ele>240.47</ele>
        <time>2022-11-18T14:22:46Z</time>
      </trkpt>
      <trkpt lat="45.84695" lon="5.43445">
        <ele>240.47</ele>
        <time>2022-11-18T14:22:47Z</time>
      </trkpt>
      <trkpt lat="45.84693" lon="5.4344">
        <ele>240.47</ele>
        <time>2022-11-18T14:22:50Z</time>
      </trkpt>
      <trkpt lat="45.84689" lon="5.43422">
        <ele>240.95</ele>
        <time>2022-11-18T14:23:03Z</time>
      </trkpt>
      <trkpt lat="45.8469" lon="5.43419">
        <ele>241.43</ele>
        <time>2022-11-18T14:23:05Z</time>
      </trkpt>
      <trkpt lat="45.84691" lon="5.43411">
        <ele>241.43</ele>
        <time>2022-11-18T14:23:10Z</time>
      </trkpt>
      <trkpt lat="45.84688" lon="5.43391">
        <ele>241.43</ele>
        <time>2022-11-18T14:23:24Z</time>
      </trkpt>
      <trkpt lat="45.8469" lon="5.43383">
        <ele>241.43</ele>
        <time>2022-11-18T14:23:40Z</time>
      </trkpt>
      <trkpt lat="45.84693" lon="5.4338">
        <ele>241.43</ele>
        <time>2022-11-18T14:23:57Z</time>
      </trkpt>
      <trkpt lat="45.84688" lon="5.43374">
        <ele>241.43</ele>
        <time>2022-11-18T14:24:15Z</time>
      </trkpt>
      <trkpt lat="45.84684" lon="5.43366">
        <ele>241.43</ele>
        <time>2022-11-18T14:24:20Z</time>
      </trkpt>
      <trkpt lat="45.84684" lon="5.43365">
        <ele>241.43</ele>
        <time>2022-11-18T14:24:21Z</time>
      </trkpt>
      <trkpt lat="45.84679" lon="5.43347">
        <ele>240.47</ele>
        <time>2022-11-18T14:24:35Z</time>
      </trkpt>
      <trkpt lat="45.84677" lon="5.43341">
        <ele>240.47</ele>
        <time>2022-11-18T14:24:52Z</time>
      </trkpt>
      <trkpt lat="45.84677" lon="5.43334">
        <ele>239.99</ele>
        <time>2022-11-18T14:25:21Z</time>
      </trkpt>
      <trkpt lat="45.84682" lon="5.43331">
        <ele>239.99</ele>
        <time>2022-11-18T14:25:36Z</time>
      </trkpt>
      <trkpt lat="45.84682" lon="5.43329">
        <ele>239.99</ele>
        <time>2022-11-18T14:25:37Z</time>
      </trkpt>
      <trkpt lat="45.84683" lon="5.43328">
        <ele>239.99</ele>
        <time>2022-11-18T14:25:38Z</time>
      </trkpt>
      <trkpt lat="45.84689" lon="5.43311">
        <ele>239.99</ele>
        <time>2022-11-18T14:25:52Z</time>
      </trkpt>
      <trkpt lat="45.84698" lon="5.43292">
        <ele>239.99</ele>
        <time>2022-11-18T14:26:05Z</time>
      </trkpt>
      <trkpt lat="45.84706" lon="5.43266">
        <ele>239.02</ele>
        <time>2022-11-18T14:26:20Z</time>
      </trkpt>
      <trkpt lat="45.84706" lon="5.43265">
        <ele>239.02</ele>
        <time>2022-11-18T14:26:21Z</time>
      </trkpt>
      <trkpt lat="45.84707" lon="5.43263">
        <ele>239.02</ele>
        <time>2022-11-18T14:26:22Z</time>
      </trkpt>
      <trkpt lat="45.84709" lon="5.43255">
        <ele>239.02</ele>
        <time>2022-11-18T14:26:27Z</time>
      </trkpt>
      <trkpt lat="45.84709" lon="5.43254">
        <ele>239.02</ele>
        <time>2022-11-18T14:26:28Z</time>
      </trkpt>
      <trkpt lat="45.8471" lon="5.43252">
        <ele>239.02</ele>
        <time>2022-11-18T14:26:29Z</time>
      </trkpt>
      <trkpt lat="45.84711" lon="5.43251">
        <ele>238.54</ele>
        <time>2022-11-18T14:26:30Z</time>
      </trkpt>
      <trkpt lat="45.84716" lon="5.43231">
        <ele>237.58</ele>
        <time>2022-11-18T14:26:43Z</time>
      </trkpt>
      <trkpt lat="45.84715" lon="5.43213">
        <ele>237.58</ele>
        <time>2022-11-18T14:26:54Z</time>
      </trkpt>
      <trkpt lat="45.84715" lon="5.43199">
        <ele>237.58</ele>
        <time>2022-11-18T14:27:05Z</time>
      </trkpt>
      <trkpt lat="45.84713" lon="5.43189">
        <ele>237.58</ele>
        <time>2022-11-18T14:27:13Z</time>
      </trkpt>
      <trkpt lat="45.84703" lon="5.43187">
        <ele>237.58</ele>
        <time>2022-11-18T14:27:22Z</time>
      </trkpt>
      <trkpt lat="45.84696" lon="5.43181">
        <ele>237.58</ele>
        <time>2022-11-18T14:27:29Z</time>
      </trkpt>
      <trkpt lat="45.84693" lon="5.43179">
        <ele>237.1</ele>
        <time>2022-11-18T14:27:31Z</time>
      </trkpt>
      <trkpt lat="45.84692" lon="5.43178">
        <ele>237.1</ele>
        <time>2022-11-18T14:27:32Z</time>
      </trkpt>
      <trkpt lat="45.84691" lon="5.43177">
        <ele>237.1</ele>
        <time>2022-11-18T14:27:33Z</time>
      </trkpt>
      <trkpt lat="45.8469" lon="5.43177">
        <ele>237.1</ele>
        <time>2022-11-18T14:27:34Z</time>
      </trkpt>
      <trkpt lat="45.84689" lon="5.43175">
        <ele>237.1</ele>
        <time>2022-11-18T14:27:35Z</time>
      </trkpt>
      <trkpt lat="45.84678" lon="5.43166">
        <ele>236.62</ele>
        <time>2022-11-18T14:27:43Z</time>
      </trkpt>
      <trkpt lat="45.84676" lon="5.43164">
        <ele>236.62</ele>
        <time>2022-11-18T14:27:45Z</time>
      </trkpt>
      <trkpt lat="45.84676" lon="5.4315">
        <ele>236.62</ele>
        <time>2022-11-18T14:27:53Z</time>
      </trkpt>
      <trkpt lat="45.84675" lon="5.43149">
        <ele>236.62</ele>
        <time>2022-11-18T14:27:54Z</time>
      </trkpt>
      <trkpt lat="45.84674" lon="5.43127">
        <ele>236.14</ele>
        <time>2022-11-18T14:28:07Z</time>
      </trkpt>
      <trkpt lat="45.84672" lon="5.43115">
        <ele>236.14</ele>
        <time>2022-11-18T14:28:14Z</time>
      </trkpt>
      <trkpt lat="45.84672" lon="5.43113">
        <ele>236.14</ele>
        <time>2022-11-18T14:28:15Z</time>
      </trkpt>
      <trkpt lat="45.8467" lon="5.43106">
        <ele>236.62</ele>
        <time>2022-11-18T14:28:33Z</time>
      </trkpt>
      <trkpt lat="45.84668" lon="5.43099">
        <ele>236.62</ele>
        <time>2022-11-18T14:28:38Z</time>
      </trkpt>
      <trkpt lat="45.84661" lon="5.43082">
        <ele>237.58</ele>
        <time>2022-11-18T14:28:51Z</time>
      </trkpt>
      <trkpt lat="45.84654" lon="5.43066">
        <ele>239.51</ele>
        <time>2022-11-18T14:29:06Z</time>
      </trkpt>
      <trkpt lat="45.84647" lon="5.43048">
        <ele>240.95</ele>
        <time>2022-11-18T14:29:20Z</time>
      </trkpt>
      <trkpt lat="45.84643" lon="5.43034">
        <ele>241.91</ele>
        <time>2022-11-18T14:29:30Z</time>
      </trkpt>
      <trkpt lat="45.84644" lon="5.4303">
        <ele>241.91</ele>
        <time>2022-11-18T14:29:33Z</time>
      </trkpt>
      <trkpt lat="45.84645" lon="5.43029">
        <ele>242.39</ele>
        <time>2022-11-18T14:29:34Z</time>
      </trkpt>
      <trkpt lat="45.84649" lon="5.43023">
        <ele>242.87</ele>
        <time>2022-11-18T14:29:39Z</time>
      </trkpt>
      <trkpt lat="45.84651" lon="5.43023">
        <ele>242.87</ele>
        <time>2022-11-18T14:29:40Z</time>
      </trkpt>
      <trkpt lat="45.84652" lon="5.43022">
        <ele>242.87</ele>
        <time>2022-11-18T14:29:41Z</time>
      </trkpt>
      <trkpt lat="45.84653" lon="5.43021">
        <ele>242.87</ele>
        <time>2022-11-18T14:29:42Z</time>
      </trkpt>
      <trkpt lat="45.84662" lon="5.43011">
        <ele>244.31</ele>
        <time>2022-11-18T14:29:53Z</time>
      </trkpt>
      <trkpt lat="45.84672" lon="5.42995">
        <ele>245.75</ele>
        <time>2022-11-18T14:30:06Z</time>
      </trkpt>
      <trkpt lat="45.84683" lon="5.42987">
        <ele>246.72</ele>
        <time>2022-11-18T14:30:21Z</time>
      </trkpt>
      <trkpt lat="45.84684" lon="5.42986">
        <ele>246.72</ele>
        <time>2022-11-18T14:30:22Z</time>
      </trkpt>
      <trkpt lat="45.84685" lon="5.42985">
        <ele>247.2</ele>
        <time>2022-11-18T14:30:23Z</time>
      </trkpt>
      <trkpt lat="45.84687" lon="5.42984">
        <ele>247.2</ele>
        <time>2022-11-18T14:30:24Z</time>
      </trkpt>
      <trkpt lat="45.84692" lon="5.42978">
        <ele>247.68</ele>
        <time>2022-11-18T14:30:31Z</time>
      </trkpt>
      <trkpt lat="45.84694" lon="5.42977">
        <ele>247.68</ele>
        <time>2022-11-18T14:30:32Z</time>
      </trkpt>
      <trkpt lat="45.84695" lon="5.42976">
        <ele>247.68</ele>
        <time>2022-11-18T14:30:33Z</time>
      </trkpt>
      <trkpt lat="45.84696" lon="5.42975">
        <ele>247.68</ele>
        <time>2022-11-18T14:30:34Z</time>
      </trkpt>
      <trkpt lat="45.84703" lon="5.42968">
        <ele>248.64</ele>
        <time>2022-11-18T14:30:43Z</time>
      </trkpt>
      <trkpt lat="45.84704" lon="5.42968">
        <ele>248.64</ele>
        <time>2022-11-18T14:30:44Z</time>
      </trkpt>
      <trkpt lat="45.84706" lon="5.42965">
        <ele>248.64</ele>
        <time>2022-11-18T14:30:47Z</time>
      </trkpt>
      <trkpt lat="45.84715" lon="5.4295">
        <ele>249.6</ele>
        <time>2022-11-18T14:31:00Z</time>
      </trkpt>
      <trkpt lat="45.84718" lon="5.42941">
        <ele>250.08</ele>
        <time>2022-11-18T14:31:06Z</time>
      </trkpt>
      <trkpt lat="45.84718" lon="5.4294">
        <ele>250.08</ele>
        <time>2022-11-18T14:31:07Z</time>
      </trkpt>
      <trkpt lat="45.84719" lon="5.42939">
        <ele>250.08</ele>
        <time>2022-11-18T14:31:08Z</time>
      </trkpt>
      <trkpt lat="45.84721" lon="5.42935">
        <ele>250.56</ele>
        <time>2022-11-18T14:31:11Z</time>
      </trkpt>
      <trkpt lat="45.84722" lon="5.42934">
        <ele>250.56</ele>
        <time>2022-11-18T14:31:12Z</time>
      </trkpt>
      <trkpt lat="45.84723" lon="5.42933">
        <ele>250.56</ele>
        <time>2022-11-18T14:31:13Z</time>
      </trkpt>
      <trkpt lat="45.84723" lon="5.42932">
        <ele>250.56</ele>
        <time>2022-11-18T14:31:14Z</time>
      </trkpt>
      <trkpt lat="45.84724" lon="5.42931">
        <ele>250.56</ele>
        <time>2022-11-18T14:31:15Z</time>
      </trkpt>
      <trkpt lat="45.8473" lon="5.42923">
        <ele>251.04</ele>
        <time>2022-11-18T14:31:23Z</time>
      </trkpt>
      <trkpt lat="45.84734" lon="5.42919">
        <ele>252</ele>
        <time>2022-11-18T14:31:28Z</time>
      </trkpt>
      <trkpt lat="45.84736" lon="5.42919">
        <ele>252</ele>
        <time>2022-11-18T14:31:29Z</time>
      </trkpt>
      <trkpt lat="45.84737" lon="5.42918">
        <ele>252</ele>
        <time>2022-11-18T14:31:30Z</time>
      </trkpt>
      <trkpt lat="45.84738" lon="5.42918">
        <ele>252</ele>
        <time>2022-11-18T14:31:31Z</time>
      </trkpt>
      <trkpt lat="45.84739" lon="5.42917">
        <ele>252</ele>
        <time>2022-11-18T14:31:32Z</time>
      </trkpt>
      <trkpt lat="45.84747" lon="5.42914">
        <ele>252.96</ele>
        <time>2022-11-18T14:31:43Z</time>
      </trkpt>
      <trkpt lat="45.84749" lon="5.42914">
        <ele>252.96</ele>
        <time>2022-11-18T14:31:44Z</time>
      </trkpt>
      <trkpt lat="45.8475" lon="5.42913">
        <ele>252.96</ele>
        <time>2022-11-18T14:31:45Z</time>
      </trkpt>
      <trkpt lat="45.84751" lon="5.42913">
        <ele>252.96</ele>
        <time>2022-11-18T14:31:46Z</time>
      </trkpt>
      <trkpt lat="45.84753" lon="5.42912">
        <ele>252.96</ele>
        <time>2022-11-18T14:31:48Z</time>
      </trkpt>
      <trkpt lat="45.84754" lon="5.42911">
        <ele>252.96</ele>
        <time>2022-11-18T14:31:49Z</time>
      </trkpt>
      <trkpt lat="45.84755" lon="5.42911">
        <ele>252.96</ele>
        <time>2022-11-18T14:31:50Z</time>
      </trkpt>
      <trkpt lat="45.84756" lon="5.42911">
        <ele>252.96</ele>
        <time>2022-11-18T14:31:51Z</time>
      </trkpt>
      <trkpt lat="45.84758" lon="5.42911">
        <ele>252.96</ele>
        <time>2022-11-18T14:31:52Z</time>
      </trkpt>
      <trkpt lat="45.84774" lon="5.42909">
        <ele>253.93</ele>
        <time>2022-11-18T14:32:05Z</time>
      </trkpt>
      <trkpt lat="45.84795" lon="5.42912">
        <ele>254.41</ele>
        <time>2022-11-18T14:32:23Z</time>
      </trkpt>
      <trkpt lat="45.84804" lon="5.42913">
        <ele>254.41</ele>
        <time>2022-11-18T14:32:40Z</time>
      </trkpt>
      <trkpt lat="45.84804" lon="5.42914">
        <ele>254.89</ele>
        <time>2022-11-18T14:33:01Z</time>
      </trkpt>
      <trkpt lat="45.84807" lon="5.42914">
        <ele>254.89</ele>
        <time>2022-11-18T14:33:10Z</time>
      </trkpt>
      <trkpt lat="45.84812" lon="5.42914">
        <ele>254.89</ele>
        <time>2022-11-18T14:33:15Z</time>
      </trkpt>
      <trkpt lat="45.84826" lon="5.42913">
        <ele>255.37</ele>
        <time>2022-11-18T14:33:27Z</time>
      </trkpt>
      <trkpt lat="45.84842" lon="5.42911">
        <ele>256.33</ele>
        <time>2022-11-18T14:33:42Z</time>
      </trkpt>
      <trkpt lat="45.84855" lon="5.4291">
        <ele>256.81</ele>
        <time>2022-11-18T14:33:52Z</time>
      </trkpt>
      <trkpt lat="45.84869" lon="5.42909">
        <ele>257.77</ele>
        <time>2022-11-18T14:34:05Z</time>
      </trkpt>
      <trkpt lat="45.84882" lon="5.42909">
        <ele>259.21</ele>
        <time>2022-11-18T14:34:16Z</time>
      </trkpt>
      <trkpt lat="45.84885" lon="5.42909">
        <ele>259.21</ele>
        <time>2022-11-18T14:34:19Z</time>
      </trkpt>
      <trkpt lat="45.84891" lon="5.4291">
        <ele>260.65</ele>
        <time>2022-11-18T14:34:31Z</time>
      </trkpt>
      <trkpt lat="45.84894" lon="5.42908">
        <ele>260.65</ele>
        <time>2022-11-18T14:34:51Z</time>
      </trkpt>
      <trkpt lat="45.84897" lon="5.42907">
        <ele>261.14</ele>
        <time>2022-11-18T14:35:12Z</time>
      </trkpt>
      <trkpt lat="45.84896" lon="5.42906">
        <ele>261.62</ele>
        <time>2022-11-18T14:35:32Z</time>
      </trkpt>
      <trkpt lat="45.84896" lon="5.42905">
        <ele>261.62</ele>
        <time>2022-11-18T14:36:59Z</time>
      </trkpt>
      <trkpt lat="45.84897" lon="5.42903">
        <ele>261.62</ele>
        <time>2022-11-18T14:37:21Z</time>
      </trkpt>
      <trkpt lat="45.84898" lon="5.429">
        <ele>261.62</ele>
        <time>2022-11-18T14:37:43Z</time>
      </trkpt>
      <trkpt lat="45.849" lon="5.4289">
        <ele>262.58</ele>
        <time>2022-11-18T14:37:51Z</time>
      </trkpt>
      <trkpt lat="45.84906" lon="5.42859">
        <ele>262.1</ele>
        <time>2022-11-18T14:38:11Z</time>
      </trkpt>
      <trkpt lat="45.84902" lon="5.42827">
        <ele>261.62</ele>
        <time>2022-11-18T14:38:31Z</time>
      </trkpt>
      <trkpt lat="45.84896" lon="5.42799">
        <ele>261.14</ele>
        <time>2022-11-18T14:38:48Z</time>
      </trkpt>
      <trkpt lat="45.8489" lon="5.42774">
        <ele>260.17</ele>
        <time>2022-11-18T14:39:05Z</time>
      </trkpt>
      <trkpt lat="45.8489" lon="5.42771">
        <ele>260.17</ele>
        <time>2022-11-18T14:39:07Z</time>
      </trkpt>
      <trkpt lat="45.8489" lon="5.4277">
        <ele>260.17</ele>
        <time>2022-11-18T14:39:08Z</time>
      </trkpt>
      <trkpt lat="45.84885" lon="5.42747">
        <ele>258.73</ele>
        <time>2022-11-18T14:39:23Z</time>
      </trkpt>
      <trkpt lat="45.84886" lon="5.42745">
        <ele>258.73</ele>
        <time>2022-11-18T14:39:24Z</time>
      </trkpt>
      <trkpt lat="45.84885" lon="5.42717">
        <ele>257.77</ele>
        <time>2022-11-18T14:39:42Z</time>
      </trkpt>
      <trkpt lat="45.84889" lon="5.42691">
        <ele>257.29</ele>
        <time>2022-11-18T14:39:59Z</time>
      </trkpt>
      <trkpt lat="45.84896" lon="5.42664">
        <ele>256.81</ele>
        <time>2022-11-18T14:40:17Z</time>
      </trkpt>
      <trkpt lat="45.84908" lon="5.42647">
        <ele>255.37</ele>
        <time>2022-11-18T14:40:34Z</time>
      </trkpt>
      <trkpt lat="45.84924" lon="5.42629">
        <ele>253.93</ele>
        <time>2022-11-18T14:40:50Z</time>
      </trkpt>
      <trkpt lat="45.84935" lon="5.42612">
        <ele>252</ele>
        <time>2022-11-18T14:41:06Z</time>
      </trkpt>
      <trkpt lat="45.84936" lon="5.42608">
        <ele>252</ele>
        <time>2022-11-18T14:41:09Z</time>
      </trkpt>
      <trkpt lat="45.84941" lon="5.42581">
        <ele>250.56</ele>
        <time>2022-11-18T14:41:24Z</time>
      </trkpt>
      <trkpt lat="45.84945" lon="5.4255">
        <ele>249.6</ele>
        <time>2022-11-18T14:41:40Z</time>
      </trkpt>
      <trkpt lat="45.84945" lon="5.42549">
        <ele>249.6</ele>
        <time>2022-11-18T14:41:41Z</time>
      </trkpt>
      <trkpt lat="45.8495" lon="5.42525">
        <ele>249.6</ele>
        <time>2022-11-18T14:41:56Z</time>
      </trkpt>
      <trkpt lat="45.84957" lon="5.42508">
        <ele>249.6</ele>
        <time>2022-11-18T14:42:10Z</time>
      </trkpt>
      <trkpt lat="45.84961" lon="5.42503">
        <ele>249.6</ele>
        <time>2022-11-18T14:42:15Z</time>
      </trkpt>
      <trkpt lat="45.84974" lon="5.42482">
        <ele>249.6</ele>
        <time>2022-11-18T14:42:33Z</time>
      </trkpt>
      <trkpt lat="45.84981" lon="5.42458">
        <ele>249.6</ele>
        <time>2022-11-18T14:42:49Z</time>
      </trkpt>
      <trkpt lat="45.84979" lon="5.42433">
        <ele>250.56</ele>
        <time>2022-11-18T14:43:05Z</time>
      </trkpt>
      <trkpt lat="45.84976" lon="5.42413">
        <ele>252.48</ele>
        <time>2022-11-18T14:43:21Z</time>
      </trkpt>
      <trkpt lat="45.84976" lon="5.42392">
        <ele>254.41</ele>
        <time>2022-11-18T14:43:39Z</time>
      </trkpt>
      <trkpt lat="45.84976" lon="5.42365">
        <ele>255.85</ele>
        <time>2022-11-18T14:43:57Z</time>
      </trkpt>
      <trkpt lat="45.84978" lon="5.42336">
        <ele>256.81</ele>
        <time>2022-11-18T14:44:16Z</time>
      </trkpt>
      <trkpt lat="45.84981" lon="5.42308">
        <ele>257.77</ele>
        <time>2022-11-18T14:44:35Z</time>
      </trkpt>
      <trkpt lat="45.84983" lon="5.423">
        <ele>257.77</ele>
        <time>2022-11-18T14:44:41Z</time>
      </trkpt>
      <trkpt lat="45.84984" lon="5.42297">
        <ele>257.77</ele>
        <time>2022-11-18T14:44:43Z</time>
      </trkpt>
      <trkpt lat="45.84984" lon="5.42296">
        <ele>257.77</ele>
        <time>2022-11-18T14:44:44Z</time>
      </trkpt>
      <trkpt lat="45.84985" lon="5.42291">
        <ele>257.77</ele>
        <time>2022-11-18T14:44:47Z</time>
      </trkpt>
      <trkpt lat="45.84991" lon="5.42269">
        <ele>258.25</ele>
        <time>2022-11-18T14:45:04Z</time>
      </trkpt>
      <trkpt lat="45.84998" lon="5.42247">
        <ele>258.73</ele>
        <time>2022-11-18T14:45:20Z</time>
      </trkpt>
      <trkpt lat="45.85004" lon="5.42227">
        <ele>259.21</ele>
        <time>2022-11-18T14:45:35Z</time>
      </trkpt>
      <trkpt lat="45.85008" lon="5.42203">
        <ele>259.21</ele>
        <time>2022-11-18T14:45:50Z</time>
      </trkpt>
      <trkpt lat="45.85013" lon="5.42177">
        <ele>259.21</ele>
        <time>2022-11-18T14:46:06Z</time>
      </trkpt>
      <trkpt lat="45.85019" lon="5.42155">
        <ele>259.21</ele>
        <time>2022-11-18T14:46:20Z</time>
      </trkpt>
      <trkpt lat="45.85021" lon="5.42143">
        <ele>259.21</ele>
        <time>2022-11-18T14:46:27Z</time>
      </trkpt>
      <trkpt lat="45.85022" lon="5.42132">
        <ele>259.21</ele>
        <time>2022-11-18T14:46:34Z</time>
      </trkpt>
      <trkpt lat="45.85022" lon="5.42124">
        <ele>259.69</ele>
        <time>2022-11-18T14:46:39Z</time>
      </trkpt>
      <trkpt lat="45.85032" lon="5.42097">
        <ele>259.21</ele>
        <time>2022-11-18T14:46:57Z</time>
      </trkpt>
      <trkpt lat="45.85041" lon="5.42069">
        <ele>258.73</ele>
        <time>2022-11-18T14:47:13Z</time>
      </trkpt>
      <trkpt lat="45.85048" lon="5.42056">
        <ele>258.73</ele>
        <time>2022-11-18T14:47:22Z</time>
      </trkpt>
      <trkpt lat="45.85066" lon="5.42043">
        <ele>259.21</ele>
        <time>2022-11-18T14:47:38Z</time>
      </trkpt>
      <trkpt lat="45.85077" lon="5.42026">
        <ele>259.21</ele>
        <time>2022-11-18T14:47:53Z</time>
      </trkpt>
      <trkpt lat="45.85086" lon="5.42012">
        <ele>259.69</ele>
        <time>2022-11-18T14:48:05Z</time>
      </trkpt>
      <trkpt lat="45.85087" lon="5.4201">
        <ele>259.69</ele>
        <time>2022-11-18T14:48:06Z</time>
      </trkpt>
      <trkpt lat="45.8509" lon="5.42005">
        <ele>259.69</ele>
        <time>2022-11-18T14:48:10Z</time>
      </trkpt>
      <trkpt lat="45.85091" lon="5.42004">
        <ele>259.69</ele>
        <time>2022-11-18T14:48:11Z</time>
      </trkpt>
      <trkpt lat="45.85104" lon="5.41988">
        <ele>260.17</ele>
        <time>2022-11-18T14:48:25Z</time>
      </trkpt>
      <trkpt lat="45.85108" lon="5.41983">
        <ele>260.17</ele>
        <time>2022-11-18T14:48:30Z</time>
      </trkpt>
      <trkpt lat="45.85114" lon="5.41977">
        <ele>260.17</ele>
        <time>2022-11-18T14:48:37Z</time>
      </trkpt>
      <trkpt lat="45.85115" lon="5.41976">
        <ele>260.17</ele>
        <time>2022-11-18T14:48:38Z</time>
      </trkpt>
      <trkpt lat="45.85121" lon="5.4197">
        <ele>260.17</ele>
        <time>2022-11-18T14:48:45Z</time>
      </trkpt>
      <trkpt lat="45.85123" lon="5.41969">
        <ele>260.17</ele>
        <time>2022-11-18T14:48:46Z</time>
      </trkpt>
      <trkpt lat="45.85135" lon="5.41954">
        <ele>260.17</ele>
        <time>2022-11-18T14:49:00Z</time>
      </trkpt>
      <trkpt lat="45.85133" lon="5.41955">
        <ele>260.17</ele>
        <time>2022-11-18T14:49:24Z</time>
      </trkpt>
      <trkpt lat="45.85122" lon="5.41967">
        <ele>260.17</ele>
        <time>2022-11-18T14:49:40Z</time>
      </trkpt>
      <trkpt lat="45.85118" lon="5.4197">
        <ele>260.17</ele>
        <time>2022-11-18T14:49:44Z</time>
      </trkpt>
      <trkpt lat="45.85103" lon="5.41984">
        <ele>260.17</ele>
        <time>2022-11-18T14:50:01Z</time>
      </trkpt>
      <trkpt lat="45.85091" lon="5.42001">
        <ele>260.17</ele>
        <time>2022-11-18T14:50:16Z</time>
      </trkpt>
      <trkpt lat="45.85082" lon="5.42015">
        <ele>259.69</ele>
        <time>2022-11-18T14:50:28Z</time>
      </trkpt>
      <trkpt lat="45.85072" lon="5.42031">
        <ele>259.69</ele>
        <time>2022-11-18T14:50:42Z</time>
      </trkpt>
      <trkpt lat="45.8506" lon="5.42049">
        <ele>259.21</ele>
        <time>2022-11-18T14:50:58Z</time>
      </trkpt>
      <trkpt lat="45.85055" lon="5.42044">
        <ele>259.21</ele>
        <time>2022-11-18T14:51:13Z</time>
      </trkpt>
      <trkpt lat="45.85062" lon="5.42027">
        <ele>258.73</ele>
        <time>2022-11-18T14:51:31Z</time>
      </trkpt>
      <trkpt lat="45.85068" lon="5.42005">
        <ele>258.25</ele>
        <time>2022-11-18T14:51:50Z</time>
      </trkpt>
      <trkpt lat="45.85075" lon="5.41983">
        <ele>257.77</ele>
        <time>2022-11-18T14:52:07Z</time>
      </trkpt>
      <trkpt lat="45.85082" lon="5.41958">
        <ele>257.29</ele>
        <time>2022-11-18T14:52:26Z</time>
      </trkpt>
      <trkpt lat="45.85088" lon="5.41933">
        <ele>256.33</ele>
        <time>2022-11-18T14:52:43Z</time>
      </trkpt>
      <trkpt lat="45.85093" lon="5.41912">
        <ele>255.85</ele>
        <time>2022-11-18T14:52:56Z</time>
      </trkpt>
      <trkpt lat="45.851" lon="5.41897">
        <ele>254.89</ele>
        <time>2022-11-18T14:53:07Z</time>
      </trkpt>
      <trkpt lat="45.85105" lon="5.41892">
        <ele>254.41</ele>
        <time>2022-11-18T14:53:13Z</time>
      </trkpt>
      <trkpt lat="45.85117" lon="5.41888">
        <ele>253.44</ele>
        <time>2022-11-18T14:53:28Z</time>
      </trkpt>
      <trkpt lat="45.85126" lon="5.41879">
        <ele>251.52</ele>
        <time>2022-11-18T14:53:45Z</time>
      </trkpt>
      <trkpt lat="45.85132" lon="5.41853">
        <ele>249.6</ele>
        <time>2022-11-18T14:54:04Z</time>
      </trkpt>
      <trkpt lat="45.85135" lon="5.41836">
        <ele>249.12</ele>
        <time>2022-11-18T14:54:19Z</time>
      </trkpt>
      <trkpt lat="45.85143" lon="5.41818">
        <ele>246.72</ele>
        <time>2022-11-18T14:54:40Z</time>
      </trkpt>
      <trkpt lat="45.85146" lon="5.41816">
        <ele>245.27</ele>
        <time>2022-11-18T14:55:02Z</time>
      </trkpt>
      <trkpt lat="45.85151" lon="5.4181">
        <ele>244.79</ele>
        <time>2022-11-18T14:55:24Z</time>
      </trkpt>
      <trkpt lat="45.85161" lon="5.41792">
        <ele>242.87</ele>
        <time>2022-11-18T14:55:44Z</time>
      </trkpt>
      <trkpt lat="45.85173" lon="5.41774">
        <ele>240.95</ele>
        <time>2022-11-18T14:56:04Z</time>
      </trkpt>
      <trkpt lat="45.85186" lon="5.41759">
        <ele>238.06</ele>
        <time>2022-11-18T14:56:22Z</time>
      </trkpt>
      <trkpt lat="45.85198" lon="5.41747">
        <ele>235.18</ele>
        <time>2022-11-18T14:56:38Z</time>
      </trkpt>
      <trkpt lat="45.85208" lon="5.41734">
        <ele>231.81</ele>
        <time>2022-11-18T14:56:54Z</time>
      </trkpt>
      <trkpt lat="45.85218" lon="5.41717">
        <ele>228.93</ele>
        <time>2022-11-18T14:57:10Z</time>
      </trkpt>
      <trkpt lat="45.85224" lon="5.417">
        <ele>225.57</ele>
        <time>2022-11-18T14:57:27Z</time>
      </trkpt>
      <trkpt lat="45.85226" lon="5.41672">
        <ele>222.68</ele>
        <time>2022-11-18T14:57:44Z</time>
      </trkpt>
      <trkpt lat="45.85228" lon="5.41647">
        <ele>219.8</ele>
        <time>2022-11-18T14:57:58Z</time>
      </trkpt>
      <trkpt lat="45.85231" lon="5.41628">
        <ele>216.91</ele>
        <time>2022-11-18T14:58:16Z</time>
      </trkpt>
      <trkpt lat="45.85232" lon="5.41617">
        <ele>214.03</ele>
        <time>2022-11-18T14:58:30Z</time>
      </trkpt>
      <trkpt lat="45.85227" lon="5.416">
        <ele>211.15</ele>
        <time>2022-11-18T14:58:49Z</time>
      </trkpt>
      <trkpt lat="45.85222" lon="5.41591">
        <ele>207.78</ele>
        <time>2022-11-18T14:59:00Z</time>
      </trkpt>
      <trkpt lat="45.85222" lon="5.41578">
        <ele>205.86</ele>
        <time>2022-11-18T14:59:11Z</time>
      </trkpt>
      <trkpt lat="45.85226" lon="5.41575">
        <ele>205.38</ele>
        <time>2022-11-18T14:59:14Z</time>
      </trkpt>
      <trkpt lat="45.85241" lon="5.41561">
        <ele>205.86</ele>
        <time>2022-11-18T14:59:31Z</time>
      </trkpt>
      <trkpt lat="45.8526" lon="5.41544">
        <ele>205.86</ele>
        <time>2022-11-18T14:59:48Z</time>
      </trkpt>
      <trkpt lat="45.85263" lon="5.41542">
        <ele>205.86</ele>
        <time>2022-11-18T14:59:50Z</time>
      </trkpt>
      <trkpt lat="45.85264" lon="5.41541">
        <ele>205.86</ele>
        <time>2022-11-18T14:59:51Z</time>
      </trkpt>
      <trkpt lat="45.85265" lon="5.4154">
        <ele>205.86</ele>
        <time>2022-11-18T14:59:52Z</time>
      </trkpt>
      <trkpt lat="45.85278" lon="5.41529">
        <ele>205.86</ele>
        <time>2022-11-18T15:00:05Z</time>
      </trkpt>
      <trkpt lat="45.85291" lon="5.41514">
        <ele>206.34</ele>
        <time>2022-11-18T15:00:20Z</time>
      </trkpt>
      <trkpt lat="45.85305" lon="5.41496">
        <ele>206.82</ele>
        <time>2022-11-18T15:00:37Z</time>
      </trkpt>
      <trkpt lat="45.85317" lon="5.41478">
        <ele>206.82</ele>
        <time>2022-11-18T15:00:52Z</time>
      </trkpt>
      <trkpt lat="45.85319" lon="5.41475">
        <ele>207.3</ele>
        <time>2022-11-18T15:00:54Z</time>
      </trkpt>
      <trkpt lat="45.85319" lon="5.41474">
        <ele>207.3</ele>
        <time>2022-11-18T15:00:55Z</time>
      </trkpt>
      <trkpt lat="45.8532" lon="5.41472">
        <ele>207.3</ele>
        <time>2022-11-18T15:00:56Z</time>
      </trkpt>
      <trkpt lat="45.85321" lon="5.41471">
        <ele>207.3</ele>
        <time>2022-11-18T15:00:57Z</time>
      </trkpt>
      <trkpt lat="45.85334" lon="5.41449">
        <ele>207.78</ele>
        <time>2022-11-18T15:01:15Z</time>
      </trkpt>
      <trkpt lat="45.85343" lon="5.41436">
        <ele>207.78</ele>
        <time>2022-11-18T15:01:26Z</time>
      </trkpt>
      <trkpt lat="45.85344" lon="5.41433">
        <ele>207.78</ele>
        <time>2022-11-18T15:01:28Z</time>
      </trkpt>
      <trkpt lat="45.85345" lon="5.41432">
        <ele>207.78</ele>
        <time>2022-11-18T15:01:29Z</time>
      </trkpt>
      <trkpt lat="45.85357" lon="5.41416">
        <ele>207.78</ele>
        <time>2022-11-18T15:01:44Z</time>
      </trkpt>
      <trkpt lat="45.8536" lon="5.4139">
        <ele>207.78</ele>
        <time>2022-11-18T15:02:01Z</time>
      </trkpt>
      <trkpt lat="45.85364" lon="5.41381">
        <ele>207.78</ele>
        <time>2022-11-18T15:02:10Z</time>
      </trkpt>
      <trkpt lat="45.85377" lon="5.41361">
        <ele>207.78</ele>
        <time>2022-11-18T15:02:26Z</time>
      </trkpt>
      <trkpt lat="45.8539" lon="5.41337">
        <ele>207.78</ele>
        <time>2022-11-18T15:02:44Z</time>
      </trkpt>
      <trkpt lat="45.85403" lon="5.41314">
        <ele>208.74</ele>
        <time>2022-11-18T15:03:01Z</time>
      </trkpt>
      <trkpt lat="45.85416" lon="5.41293">
        <ele>208.74</ele>
        <time>2022-11-18T15:03:17Z</time>
      </trkpt>
      <trkpt lat="45.85427" lon="5.41269">
        <ele>209.22</ele>
        <time>2022-11-18T15:03:36Z</time>
      </trkpt>
      <trkpt lat="45.85437" lon="5.41251">
        <ele>209.22</ele>
        <time>2022-11-18T15:03:50Z</time>
      </trkpt>
      <trkpt lat="45.85451" lon="5.4123">
        <ele>209.7</ele>
        <time>2022-11-18T15:04:05Z</time>
      </trkpt>
      <trkpt lat="45.8546" lon="5.41208">
        <ele>209.7</ele>
        <time>2022-11-18T15:04:21Z</time>
      </trkpt>
      <trkpt lat="45.85471" lon="5.41187">
        <ele>209.7</ele>
        <time>2022-11-18T15:04:38Z</time>
      </trkpt>
      <trkpt lat="45.85484" lon="5.41167">
        <ele>209.7</ele>
        <time>2022-11-18T15:04:55Z</time>
      </trkpt>
      <trkpt lat="45.85497" lon="5.41146">
        <ele>209.7</ele>
        <time>2022-11-18T15:05:13Z</time>
      </trkpt>
      <trkpt lat="45.85508" lon="5.41129">
        <ele>209.7</ele>
        <time>2022-11-18T15:05:27Z</time>
      </trkpt>
      <trkpt lat="45.85521" lon="5.41109">
        <ele>209.7</ele>
        <time>2022-11-18T15:05:43Z</time>
      </trkpt>
      <trkpt lat="45.85522" lon="5.41107">
        <ele>209.7</ele>
        <time>2022-11-18T15:05:44Z</time>
      </trkpt>
      <trkpt lat="45.85524" lon="5.41104">
        <ele>209.7</ele>
        <time>2022-11-18T15:05:47Z</time>
      </trkpt>
      <trkpt lat="45.85525" lon="5.41103">
        <ele>209.7</ele>
        <time>2022-11-18T15:05:48Z</time>
      </trkpt>
      <trkpt lat="45.85526" lon="5.41102">
        <ele>209.7</ele>
        <time>2022-11-18T15:05:49Z</time>
      </trkpt>
      <trkpt lat="45.85526" lon="5.411">
        <ele>209.7</ele>
        <time>2022-11-18T15:05:50Z</time>
      </trkpt>
      <trkpt lat="45.85527" lon="5.41099">
        <ele>209.7</ele>
        <time>2022-11-18T15:05:51Z</time>
      </trkpt>
      <trkpt lat="45.85528" lon="5.41098">
        <ele>209.7</ele>
        <time>2022-11-18T15:05:52Z</time>
      </trkpt>
      <trkpt lat="45.85541" lon="5.41079">
        <ele>209.7</ele>
        <time>2022-11-18T15:06:09Z</time>
      </trkpt>
      <trkpt lat="45.85548" lon="5.4107">
        <ele>209.22</ele>
        <time>2022-11-18T15:06:17Z</time>
      </trkpt>
      <trkpt lat="45.85561" lon="5.41055">
        <ele>209.22</ele>
        <time>2022-11-18T15:06:33Z</time>
      </trkpt>
      <trkpt lat="45.85566" lon="5.41048">
        <ele>209.22</ele>
        <time>2022-11-18T15:06:50Z</time>
      </trkpt>
      <trkpt lat="45.85571" lon="5.41035">
        <ele>209.22</ele>
        <time>2022-11-18T15:07:07Z</time>
      </trkpt>
      <trkpt lat="45.85573" lon="5.41028">
        <ele>209.22</ele>
        <time>2022-11-18T15:07:19Z</time>
      </trkpt>
      <trkpt lat="45.85581" lon="5.4102">
        <ele>209.22</ele>
        <time>2022-11-18T15:07:27Z</time>
      </trkpt>
      <trkpt lat="45.85584" lon="5.41017">
        <ele>209.22</ele>
        <time>2022-11-18T15:07:30Z</time>
      </trkpt>
      <trkpt lat="45.85596" lon="5.41004">
        <ele>208.74</ele>
        <time>2022-11-18T15:07:44Z</time>
      </trkpt>
      <trkpt lat="45.85598" lon="5.41">
        <ele>208.74</ele>
        <time>2022-11-18T15:07:47Z</time>
      </trkpt>
      <trkpt lat="45.85616" lon="5.40972">
        <ele>208.26</ele>
        <time>2022-11-18T15:08:06Z</time>
      </trkpt>
      <trkpt lat="45.85627" lon="5.40951">
        <ele>207.78</ele>
        <time>2022-11-18T15:08:21Z</time>
      </trkpt>
      <trkpt lat="45.85628" lon="5.40949">
        <ele>207.78</ele>
        <time>2022-11-18T15:08:22Z</time>
      </trkpt>
      <trkpt lat="45.85629" lon="5.40948">
        <ele>207.78</ele>
        <time>2022-11-18T15:08:23Z</time>
      </trkpt>
      <trkpt lat="45.8563" lon="5.40947">
        <ele>207.78</ele>
        <time>2022-11-18T15:08:24Z</time>
      </trkpt>
      <trkpt lat="45.85641" lon="5.40929">
        <ele>207.78</ele>
        <time>2022-11-18T15:08:38Z</time>
      </trkpt>
      <trkpt lat="45.85644" lon="5.40922">
        <ele>207.78</ele>
        <time>2022-11-18T15:08:43Z</time>
      </trkpt>
      <trkpt lat="45.85645" lon="5.40921">
        <ele>207.78</ele>
        <time>2022-11-18T15:08:44Z</time>
      </trkpt>
      <trkpt lat="45.85646" lon="5.40919">
        <ele>207.78</ele>
        <time>2022-11-18T15:08:45Z</time>
      </trkpt>
      <trkpt lat="45.85657" lon="5.40892">
        <ele>207.3</ele>
        <time>2022-11-18T15:09:03Z</time>
      </trkpt>
      <trkpt lat="45.85663" lon="5.40874">
        <ele>207.3</ele>
        <time>2022-11-18T15:09:15Z</time>
      </trkpt>
      <trkpt lat="45.85664" lon="5.40872">
        <ele>207.3</ele>
        <time>2022-11-18T15:09:16Z</time>
      </trkpt>
      <trkpt lat="45.85674" lon="5.40849">
        <ele>206.82</ele>
        <time>2022-11-18T15:09:32Z</time>
      </trkpt>
      <trkpt lat="45.8568" lon="5.40826">
        <ele>206.82</ele>
        <time>2022-11-18T15:09:47Z</time>
      </trkpt>
      <trkpt lat="45.85688" lon="5.40808">
        <ele>206.82</ele>
        <time>2022-11-18T15:09:59Z</time>
      </trkpt>
      <trkpt lat="45.85688" lon="5.40807">
        <ele>206.82</ele>
        <time>2022-11-18T15:10:00Z</time>
      </trkpt>
      <trkpt lat="45.85697" lon="5.40783">
        <ele>206.34</ele>
        <time>2022-11-18T15:10:15Z</time>
      </trkpt>
      <trkpt lat="45.85705" lon="5.40753">
        <ele>205.86</ele>
        <time>2022-11-18T15:10:34Z</time>
      </trkpt>
      <trkpt lat="45.85712" lon="5.40729">
        <ele>205.38</ele>
        <time>2022-11-18T15:10:50Z</time>
      </trkpt>
      <trkpt lat="45.85712" lon="5.40726">
        <ele>205.38</ele>
        <time>2022-11-18T15:10:52Z</time>
      </trkpt>
      <trkpt lat="45.85713" lon="5.40724">
        <ele>205.38</ele>
        <time>2022-11-18T15:10:53Z</time>
      </trkpt>
      <trkpt lat="45.85713" lon="5.40722">
        <ele>205.38</ele>
        <time>2022-11-18T15:10:54Z</time>
      </trkpt>
      <trkpt lat="45.85714" lon="5.40721">
        <ele>205.38</ele>
        <time>2022-11-18T15:10:55Z</time>
      </trkpt>
      <trkpt lat="45.85715" lon="5.40719">
        <ele>205.38</ele>
        <time>2022-11-18T15:10:56Z</time>
      </trkpt>
      <trkpt lat="45.85715" lon="5.40718">
        <ele>205.38</ele>
        <time>2022-11-18T15:10:57Z</time>
      </trkpt>
      <trkpt lat="45.85716" lon="5.40716">
        <ele>205.38</ele>
        <time>2022-11-18T15:10:58Z</time>
      </trkpt>
      <trkpt lat="45.85716" lon="5.40715">
        <ele>205.38</ele>
        <time>2022-11-18T15:10:59Z</time>
      </trkpt>
      <trkpt lat="45.85717" lon="5.40713">
        <ele>205.38</ele>
        <time>2022-11-18T15:11:00Z</time>
      </trkpt>
      <trkpt lat="45.85718" lon="5.40712">
        <ele>205.38</ele>
        <time>2022-11-18T15:11:01Z</time>
      </trkpt>
      <trkpt lat="45.85718" lon="5.4071">
        <ele>205.38</ele>
        <time>2022-11-18T15:11:02Z</time>
      </trkpt>
      <trkpt lat="45.85728" lon="5.40683">
        <ele>205.38</ele>
        <time>2022-11-18T15:11:20Z</time>
      </trkpt>
      <trkpt lat="45.85738" lon="5.40657">
        <ele>204.42</ele>
        <time>2022-11-18T15:11:38Z</time>
      </trkpt>
      <trkpt lat="45.8574" lon="5.4065">
        <ele>204.42</ele>
        <time>2022-11-18T15:11:43Z</time>
      </trkpt>
      <trkpt lat="45.8574" lon="5.40649">
        <ele>204.42</ele>
        <time>2022-11-18T15:11:44Z</time>
      </trkpt>
      <trkpt lat="45.8574" lon="5.40647">
        <ele>204.42</ele>
        <time>2022-11-18T15:11:45Z</time>
      </trkpt>
      <trkpt lat="45.8574" lon="5.40645">
        <ele>204.42</ele>
        <time>2022-11-18T15:11:46Z</time>
      </trkpt>
      <trkpt lat="45.85741" lon="5.4064">
        <ele>204.42</ele>
        <time>2022-11-18T15:11:49Z</time>
      </trkpt>
      <trkpt lat="45.85742" lon="5.40639">
        <ele>204.42</ele>
        <time>2022-11-18T15:11:50Z</time>
      </trkpt>
      <trkpt lat="45.85743" lon="5.40637">
        <ele>204.42</ele>
        <time>2022-11-18T15:11:51Z</time>
      </trkpt>
      <trkpt lat="45.85753" lon="5.40616">
        <ele>203.94</ele>
        <time>2022-11-18T15:12:06Z</time>
      </trkpt>
      <trkpt lat="45.85757" lon="5.40604">
        <ele>203.94</ele>
        <time>2022-11-18T15:12:14Z</time>
      </trkpt>
      <trkpt lat="45.85758" lon="5.40603">
        <ele>203.94</ele>
        <time>2022-11-18T15:12:15Z</time>
      </trkpt>
      <trkpt lat="45.85758" lon="5.40601">
        <ele>203.94</ele>
        <time>2022-11-18T15:12:16Z</time>
      </trkpt>
      <trkpt lat="45.85759" lon="5.406">
        <ele>203.94</ele>
        <time>2022-11-18T15:12:17Z</time>
      </trkpt>
      <trkpt lat="45.85759" lon="5.40598">
        <ele>203.94</ele>
        <time>2022-11-18T15:12:18Z</time>
      </trkpt>
      <trkpt lat="45.8576" lon="5.40596">
        <ele>203.94</ele>
        <time>2022-11-18T15:12:19Z</time>
      </trkpt>
      <trkpt lat="45.85761" lon="5.40594">
        <ele>203.46</ele>
        <time>2022-11-18T15:12:20Z</time>
      </trkpt>
      <trkpt lat="45.85766" lon="5.4058">
        <ele>203.46</ele>
        <time>2022-11-18T15:12:28Z</time>
      </trkpt>
      <trkpt lat="45.85767" lon="5.40559">
        <ele>202.98</ele>
        <time>2022-11-18T15:12:41Z</time>
      </trkpt>
      <trkpt lat="45.85779" lon="5.40537">
        <ele>202.98</ele>
        <time>2022-11-18T15:12:59Z</time>
      </trkpt>
      <trkpt lat="45.85777" lon="5.40528">
        <ele>202.98</ele>
        <time>2022-11-18T15:13:06Z</time>
      </trkpt>
      <trkpt lat="45.85776" lon="5.40527">
        <ele>202.98</ele>
        <time>2022-11-18T15:13:07Z</time>
      </trkpt>
      <trkpt lat="45.85782" lon="5.40513">
        <ele>202.98</ele>
        <time>2022-11-18T15:13:21Z</time>
      </trkpt>
      <trkpt lat="45.85781" lon="5.40509">
        <ele>202.98</ele>
        <time>2022-11-18T15:13:42Z</time>
      </trkpt>
      <trkpt lat="45.85782" lon="5.4051">
        <ele>202.98</ele>
        <time>2022-11-18T15:13:57Z</time>
      </trkpt>
      <trkpt lat="45.85784" lon="5.40509">
        <ele>202.98</ele>
        <time>2022-11-18T15:14:42Z</time>
      </trkpt>
    </trkseg>
  </trk>
</gpx>